<?xml version="1.0" encoding="UTF-8" standalone="no" ?>
<gpx xmlns="http://www.topografix.com/GPX/1/1" xmlns:xsi="http://www.w3.org/2001/XMLSchema-instance" xsi:schemaLocation="http://www.topografix.com/GPX/1/1 http://www.topografix.com/GPX/1/1/gpx.xsd" version="1.1" creator="VisuGPX - https://www.visugpx.com">
  <metadata>
    <name>Relai 5 du Grand Duc</name>
    <desc><![CDATA[Relai 5 du Grand Duc et les très long 10km finaux!]]></desc>
  </metadata>
  <trk>
    <name><![CDATA[20110626172334]]></name>
    <trkseg>
      <trkpt lat="45.26348" lon="5.83747">
        <ele>455</ele>
        <time>2011-06-26T15:40:04Z</time>
      </trkpt>
      <trkpt lat="45.26353" lon="5.83755">
        <ele>454</ele>
        <time>2011-06-26T15:40:08Z</time>
      </trkpt>
      <trkpt lat="45.26358" lon="5.83753">
        <ele>455</ele>
        <time>2011-06-26T15:40:12Z</time>
      </trkpt>
      <trkpt lat="45.26364" lon="5.83749">
        <ele>457</ele>
        <time>2011-06-26T15:40:16Z</time>
      </trkpt>
      <trkpt lat="45.26369" lon="5.83745">
        <ele>457</ele>
        <time>2011-06-26T15:40:20Z</time>
      </trkpt>
      <trkpt lat="45.26375" lon="5.83742">
        <ele>458</ele>
        <time>2011-06-26T15:40:24Z</time>
      </trkpt>
      <trkpt lat="45.26381" lon="5.8374">
        <ele>458</ele>
        <time>2011-06-26T15:40:28Z</time>
      </trkpt>
      <trkpt lat="45.26387" lon="5.83739">
        <ele>459</ele>
        <time>2011-06-26T15:40:32Z</time>
      </trkpt>
      <trkpt lat="45.26392" lon="5.83737">
        <ele>459</ele>
        <time>2011-06-26T15:40:36Z</time>
      </trkpt>
      <trkpt lat="45.26397" lon="5.83734">
        <ele>459</ele>
        <time>2011-06-26T15:40:40Z</time>
      </trkpt>
      <trkpt lat="45.26403" lon="5.83731">
        <ele>459</ele>
        <time>2011-06-26T15:40:44Z</time>
      </trkpt>
      <trkpt lat="45.26409" lon="5.83727">
        <ele>459</ele>
        <time>2011-06-26T15:40:48Z</time>
      </trkpt>
      <trkpt lat="45.26416" lon="5.83723">
        <ele>460</ele>
        <time>2011-06-26T15:40:52Z</time>
      </trkpt>
      <trkpt lat="45.26423" lon="5.83721">
        <ele>466</ele>
        <time>2011-06-26T15:40:56Z</time>
      </trkpt>
      <trkpt lat="45.2643" lon="5.83717">
        <ele>466</ele>
        <time>2011-06-26T15:41:00Z</time>
      </trkpt>
      <trkpt lat="45.26437" lon="5.83714">
        <ele>467</ele>
        <time>2011-06-26T15:41:04Z</time>
      </trkpt>
      <trkpt lat="45.26443" lon="5.83712">
        <ele>467</ele>
        <time>2011-06-26T15:41:08Z</time>
      </trkpt>
      <trkpt lat="45.2645" lon="5.83708">
        <ele>468</ele>
        <time>2011-06-26T15:41:12Z</time>
      </trkpt>
      <trkpt lat="45.26456" lon="5.83705">
        <ele>468</ele>
        <time>2011-06-26T15:41:16Z</time>
      </trkpt>
      <trkpt lat="45.26462" lon="5.83702">
        <ele>469</ele>
        <time>2011-06-26T15:41:20Z</time>
      </trkpt>
      <trkpt lat="45.26469" lon="5.83699">
        <ele>469</ele>
        <time>2011-06-26T15:41:24Z</time>
      </trkpt>
      <trkpt lat="45.26476" lon="5.83697">
        <ele>470</ele>
        <time>2011-06-26T15:41:28Z</time>
      </trkpt>
      <trkpt lat="45.26481" lon="5.83694">
        <ele>470</ele>
        <time>2011-06-26T15:41:32Z</time>
      </trkpt>
      <trkpt lat="45.26486" lon="5.83689">
        <ele>471</ele>
        <time>2011-06-26T15:41:36Z</time>
      </trkpt>
      <trkpt lat="45.26491" lon="5.83686">
        <ele>472</ele>
        <time>2011-06-26T15:41:40Z</time>
      </trkpt>
      <trkpt lat="45.26497" lon="5.83683">
        <ele>472</ele>
        <time>2011-06-26T15:41:44Z</time>
      </trkpt>
      <trkpt lat="45.26504" lon="5.8368">
        <ele>477</ele>
        <time>2011-06-26T15:41:48Z</time>
      </trkpt>
      <trkpt lat="45.26511" lon="5.83676">
        <ele>477</ele>
        <time>2011-06-26T15:41:52Z</time>
      </trkpt>
      <trkpt lat="45.26517" lon="5.83674">
        <ele>478</ele>
        <time>2011-06-26T15:41:56Z</time>
      </trkpt>
      <trkpt lat="45.26524" lon="5.83675">
        <ele>478</ele>
        <time>2011-06-26T15:42:00Z</time>
      </trkpt>
      <trkpt lat="45.26531" lon="5.83675">
        <ele>479</ele>
        <time>2011-06-26T15:42:04Z</time>
      </trkpt>
      <trkpt lat="45.26538" lon="5.83673">
        <ele>479</ele>
        <time>2011-06-26T15:42:08Z</time>
      </trkpt>
      <trkpt lat="45.26543" lon="5.83669">
        <ele>480</ele>
        <time>2011-06-26T15:42:12Z</time>
      </trkpt>
      <trkpt lat="45.2655" lon="5.83668">
        <ele>481</ele>
        <time>2011-06-26T15:42:16Z</time>
      </trkpt>
      <trkpt lat="45.26556" lon="5.83665">
        <ele>482</ele>
        <time>2011-06-26T15:42:20Z</time>
      </trkpt>
      <trkpt lat="45.26562" lon="5.83662">
        <ele>483</ele>
        <time>2011-06-26T15:42:24Z</time>
      </trkpt>
      <trkpt lat="45.26567" lon="5.83659">
        <ele>483</ele>
        <time>2011-06-26T15:42:28Z</time>
      </trkpt>
      <trkpt lat="45.26573" lon="5.83657">
        <ele>484</ele>
        <time>2011-06-26T15:42:32Z</time>
      </trkpt>
      <trkpt lat="45.26579" lon="5.83657">
        <ele>484</ele>
        <time>2011-06-26T15:42:36Z</time>
      </trkpt>
      <trkpt lat="45.26586" lon="5.83657">
        <ele>488</ele>
        <time>2011-06-26T15:42:40Z</time>
      </trkpt>
      <trkpt lat="45.26594" lon="5.83656">
        <ele>489</ele>
        <time>2011-06-26T15:42:44Z</time>
      </trkpt>
      <trkpt lat="45.26599" lon="5.83653">
        <ele>490</ele>
        <time>2011-06-26T15:42:48Z</time>
      </trkpt>
      <trkpt lat="45.26605" lon="5.83655">
        <ele>490</ele>
        <time>2011-06-26T15:42:52Z</time>
      </trkpt>
      <trkpt lat="45.26612" lon="5.83655">
        <ele>491</ele>
        <time>2011-06-26T15:42:56Z</time>
      </trkpt>
      <trkpt lat="45.26618" lon="5.83652">
        <ele>492</ele>
        <time>2011-06-26T15:43:00Z</time>
      </trkpt>
      <trkpt lat="45.26623" lon="5.83651">
        <ele>492</ele>
        <time>2011-06-26T15:43:04Z</time>
      </trkpt>
      <trkpt lat="45.2663" lon="5.8365">
        <ele>493</ele>
        <time>2011-06-26T15:43:08Z</time>
      </trkpt>
      <trkpt lat="45.26637" lon="5.83647">
        <ele>493</ele>
        <time>2011-06-26T15:43:12Z</time>
      </trkpt>
      <trkpt lat="45.26644" lon="5.83643">
        <ele>494</ele>
        <time>2011-06-26T15:43:16Z</time>
      </trkpt>
      <trkpt lat="45.2665" lon="5.83645">
        <ele>494</ele>
        <time>2011-06-26T15:43:20Z</time>
      </trkpt>
      <trkpt lat="45.26657" lon="5.83643">
        <ele>495</ele>
        <time>2011-06-26T15:43:24Z</time>
      </trkpt>
      <trkpt lat="45.26662" lon="5.83641">
        <ele>495</ele>
        <time>2011-06-26T15:43:28Z</time>
      </trkpt>
      <trkpt lat="45.26668" lon="5.8364">
        <ele>502</ele>
        <time>2011-06-26T15:43:32Z</time>
      </trkpt>
      <trkpt lat="45.26674" lon="5.8364">
        <ele>502</ele>
        <time>2011-06-26T15:43:36Z</time>
      </trkpt>
      <trkpt lat="45.2668" lon="5.83639">
        <ele>502</ele>
        <time>2011-06-26T15:43:40Z</time>
      </trkpt>
      <trkpt lat="45.26684" lon="5.83639">
        <ele>502</ele>
        <time>2011-06-26T15:43:44Z</time>
      </trkpt>
      <trkpt lat="45.26689" lon="5.83641">
        <ele>503</ele>
        <time>2011-06-26T15:43:48Z</time>
      </trkpt>
      <trkpt lat="45.26695" lon="5.8364">
        <ele>503</ele>
        <time>2011-06-26T15:43:52Z</time>
      </trkpt>
      <trkpt lat="45.267" lon="5.83638">
        <ele>504</ele>
        <time>2011-06-26T15:43:56Z</time>
      </trkpt>
      <trkpt lat="45.26706" lon="5.83637">
        <ele>504</ele>
        <time>2011-06-26T15:44:00Z</time>
      </trkpt>
      <trkpt lat="45.26711" lon="5.83635">
        <ele>505</ele>
        <time>2011-06-26T15:44:04Z</time>
      </trkpt>
      <trkpt lat="45.26717" lon="5.83633">
        <ele>505</ele>
        <time>2011-06-26T15:44:08Z</time>
      </trkpt>
      <trkpt lat="45.26722" lon="5.83632">
        <ele>505</ele>
        <time>2011-06-26T15:44:12Z</time>
      </trkpt>
      <trkpt lat="45.26728" lon="5.83631">
        <ele>506</ele>
        <time>2011-06-26T15:44:16Z</time>
      </trkpt>
      <trkpt lat="45.26734" lon="5.83631">
        <ele>506</ele>
        <time>2011-06-26T15:44:20Z</time>
      </trkpt>
      <trkpt lat="45.26741" lon="5.83631">
        <ele>506</ele>
        <time>2011-06-26T15:44:24Z</time>
      </trkpt>
      <trkpt lat="45.26747" lon="5.83633">
        <ele>506</ele>
        <time>2011-06-26T15:44:28Z</time>
      </trkpt>
      <trkpt lat="45.26753" lon="5.83632">
        <ele>513</ele>
        <time>2011-06-26T15:44:32Z</time>
      </trkpt>
      <trkpt lat="45.26759" lon="5.83631">
        <ele>513</ele>
        <time>2011-06-26T15:44:36Z</time>
      </trkpt>
      <trkpt lat="45.26765" lon="5.83629">
        <ele>514</ele>
        <time>2011-06-26T15:44:40Z</time>
      </trkpt>
      <trkpt lat="45.26772" lon="5.83628">
        <ele>514</ele>
        <time>2011-06-26T15:44:44Z</time>
      </trkpt>
      <trkpt lat="45.26778" lon="5.83628">
        <ele>514</ele>
        <time>2011-06-26T15:44:48Z</time>
      </trkpt>
      <trkpt lat="45.26783" lon="5.83626">
        <ele>515</ele>
        <time>2011-06-26T15:44:52Z</time>
      </trkpt>
      <trkpt lat="45.26789" lon="5.83623">
        <ele>515</ele>
        <time>2011-06-26T15:44:56Z</time>
      </trkpt>
      <trkpt lat="45.26793" lon="5.83622">
        <ele>515</ele>
        <time>2011-06-26T15:45:00Z</time>
      </trkpt>
      <trkpt lat="45.26799" lon="5.83621">
        <ele>516</ele>
        <time>2011-06-26T15:45:04Z</time>
      </trkpt>
      <trkpt lat="45.26805" lon="5.8362">
        <ele>516</ele>
        <time>2011-06-26T15:45:08Z</time>
      </trkpt>
      <trkpt lat="45.2681" lon="5.8362">
        <ele>516</ele>
        <time>2011-06-26T15:45:12Z</time>
      </trkpt>
      <trkpt lat="45.26817" lon="5.8362">
        <ele>517</ele>
        <time>2011-06-26T15:45:16Z</time>
      </trkpt>
      <trkpt lat="45.26823" lon="5.83617">
        <ele>517</ele>
        <time>2011-06-26T15:45:20Z</time>
      </trkpt>
      <trkpt lat="45.26828" lon="5.83613">
        <ele>517</ele>
        <time>2011-06-26T15:45:24Z</time>
      </trkpt>
      <trkpt lat="45.26833" lon="5.83611">
        <ele>518</ele>
        <time>2011-06-26T15:45:28Z</time>
      </trkpt>
      <trkpt lat="45.26838" lon="5.83609">
        <ele>524</ele>
        <time>2011-06-26T15:45:32Z</time>
      </trkpt>
      <trkpt lat="45.26843" lon="5.83607">
        <ele>524</ele>
        <time>2011-06-26T15:45:36Z</time>
      </trkpt>
      <trkpt lat="45.26848" lon="5.83603">
        <ele>524</ele>
        <time>2011-06-26T15:45:40Z</time>
      </trkpt>
      <trkpt lat="45.26852" lon="5.83599">
        <ele>524</ele>
        <time>2011-06-26T15:45:44Z</time>
      </trkpt>
      <trkpt lat="45.26857" lon="5.83594">
        <ele>525</ele>
        <time>2011-06-26T15:45:48Z</time>
      </trkpt>
      <trkpt lat="45.26861" lon="5.83591">
        <ele>525</ele>
        <time>2011-06-26T15:45:52Z</time>
      </trkpt>
      <trkpt lat="45.26866" lon="5.83588">
        <ele>526</ele>
        <time>2011-06-26T15:45:56Z</time>
      </trkpt>
      <trkpt lat="45.26871" lon="5.83584">
        <ele>526</ele>
        <time>2011-06-26T15:46:00Z</time>
      </trkpt>
      <trkpt lat="45.26875" lon="5.83578">
        <ele>528</ele>
        <time>2011-06-26T15:46:04Z</time>
      </trkpt>
      <trkpt lat="45.26875" lon="5.83571">
        <ele>529</ele>
        <time>2011-06-26T15:46:08Z</time>
      </trkpt>
      <trkpt lat="45.2688" lon="5.83567">
        <ele>529</ele>
        <time>2011-06-26T15:46:12Z</time>
      </trkpt>
      <trkpt lat="45.26885" lon="5.83564">
        <ele>530</ele>
        <time>2011-06-26T15:46:16Z</time>
      </trkpt>
      <trkpt lat="45.26889" lon="5.83558">
        <ele>530</ele>
        <time>2011-06-26T15:46:20Z</time>
      </trkpt>
      <trkpt lat="45.26893" lon="5.83554">
        <ele>530</ele>
        <time>2011-06-26T15:46:24Z</time>
      </trkpt>
      <trkpt lat="45.26895" lon="5.83547">
        <ele>530</ele>
        <time>2011-06-26T15:46:28Z</time>
      </trkpt>
      <trkpt lat="45.26897" lon="5.83541">
        <ele>531</ele>
        <time>2011-06-26T15:46:32Z</time>
      </trkpt>
      <trkpt lat="45.26901" lon="5.83536">
        <ele>531</ele>
        <time>2011-06-26T15:46:36Z</time>
      </trkpt>
      <trkpt lat="45.26905" lon="5.83532">
        <ele>531</ele>
        <time>2011-06-26T15:46:40Z</time>
      </trkpt>
      <trkpt lat="45.26908" lon="5.83529">
        <ele>532</ele>
        <time>2011-06-26T15:46:44Z</time>
      </trkpt>
      <trkpt lat="45.26911" lon="5.83524">
        <ele>532</ele>
        <time>2011-06-26T15:46:48Z</time>
      </trkpt>
      <trkpt lat="45.26914" lon="5.83521">
        <ele>533</ele>
        <time>2011-06-26T15:46:52Z</time>
      </trkpt>
      <trkpt lat="45.26919" lon="5.83518">
        <ele>539</ele>
        <time>2011-06-26T15:46:56Z</time>
      </trkpt>
      <trkpt lat="45.26924" lon="5.83514">
        <ele>539</ele>
        <time>2011-06-26T15:47:00Z</time>
      </trkpt>
      <trkpt lat="45.26929" lon="5.8351">
        <ele>539</ele>
        <time>2011-06-26T15:47:04Z</time>
      </trkpt>
      <trkpt lat="45.26934" lon="5.83506">
        <ele>540</ele>
        <time>2011-06-26T15:47:08Z</time>
      </trkpt>
      <trkpt lat="45.2694" lon="5.83503">
        <ele>540</ele>
        <time>2011-06-26T15:47:12Z</time>
      </trkpt>
      <trkpt lat="45.26945" lon="5.83501">
        <ele>541</ele>
        <time>2011-06-26T15:47:16Z</time>
      </trkpt>
      <trkpt lat="45.26949" lon="5.83498">
        <ele>543</ele>
        <time>2011-06-26T15:47:20Z</time>
      </trkpt>
      <trkpt lat="45.26954" lon="5.83495">
        <ele>544</ele>
        <time>2011-06-26T15:47:24Z</time>
      </trkpt>
      <trkpt lat="45.26958" lon="5.83491">
        <ele>544</ele>
        <time>2011-06-26T15:47:28Z</time>
      </trkpt>
      <trkpt lat="45.26959" lon="5.83485">
        <ele>544</ele>
        <time>2011-06-26T15:47:32Z</time>
      </trkpt>
      <trkpt lat="45.26959" lon="5.83478">
        <ele>544</ele>
        <time>2011-06-26T15:47:36Z</time>
      </trkpt>
      <trkpt lat="45.26958" lon="5.8347">
        <ele>544</ele>
        <time>2011-06-26T15:47:40Z</time>
      </trkpt>
      <trkpt lat="45.26956" lon="5.83462">
        <ele>544</ele>
        <time>2011-06-26T15:47:44Z</time>
      </trkpt>
      <trkpt lat="45.26956" lon="5.83451">
        <ele>544</ele>
        <time>2011-06-26T15:47:48Z</time>
      </trkpt>
      <trkpt lat="45.26958" lon="5.8344">
        <ele>545</ele>
        <time>2011-06-26T15:47:52Z</time>
      </trkpt>
      <trkpt lat="45.26959" lon="5.83431">
        <ele>545</ele>
        <time>2011-06-26T15:47:56Z</time>
      </trkpt>
      <trkpt lat="45.2696" lon="5.83423">
        <ele>545</ele>
        <time>2011-06-26T15:48:00Z</time>
      </trkpt>
      <trkpt lat="45.26961" lon="5.83414">
        <ele>546</ele>
        <time>2011-06-26T15:48:04Z</time>
      </trkpt>
      <trkpt lat="45.2696" lon="5.83406">
        <ele>546</ele>
        <time>2011-06-26T15:48:08Z</time>
      </trkpt>
      <trkpt lat="45.26958" lon="5.83397">
        <ele>546</ele>
        <time>2011-06-26T15:48:12Z</time>
      </trkpt>
      <trkpt lat="45.26955" lon="5.83388">
        <ele>545</ele>
        <time>2011-06-26T15:48:16Z</time>
      </trkpt>
      <trkpt lat="45.26953" lon="5.83379">
        <ele>545</ele>
        <time>2011-06-26T15:48:20Z</time>
      </trkpt>
      <trkpt lat="45.26953" lon="5.83369">
        <ele>545</ele>
        <time>2011-06-26T15:48:24Z</time>
      </trkpt>
      <trkpt lat="45.26958" lon="5.83363">
        <ele>546</ele>
        <time>2011-06-26T15:48:28Z</time>
      </trkpt>
      <trkpt lat="45.26963" lon="5.8336">
        <ele>546</ele>
        <time>2011-06-26T15:48:32Z</time>
      </trkpt>
      <trkpt lat="45.26967" lon="5.83359">
        <ele>547</ele>
        <time>2011-06-26T15:48:36Z</time>
      </trkpt>
      <trkpt lat="45.26972" lon="5.83357">
        <ele>547</ele>
        <time>2011-06-26T15:48:40Z</time>
      </trkpt>
      <trkpt lat="45.26977" lon="5.83355">
        <ele>547</ele>
        <time>2011-06-26T15:48:44Z</time>
      </trkpt>
      <trkpt lat="45.26981" lon="5.83354">
        <ele>548</ele>
        <time>2011-06-26T15:48:48Z</time>
      </trkpt>
      <trkpt lat="45.26986" lon="5.83352">
        <ele>548</ele>
        <time>2011-06-26T15:48:52Z</time>
      </trkpt>
      <trkpt lat="45.2699" lon="5.8335">
        <ele>549</ele>
        <time>2011-06-26T15:48:56Z</time>
      </trkpt>
      <trkpt lat="45.26994" lon="5.83348">
        <ele>549</ele>
        <time>2011-06-26T15:49:00Z</time>
      </trkpt>
      <trkpt lat="45.26998" lon="5.83347">
        <ele>550</ele>
        <time>2011-06-26T15:49:04Z</time>
      </trkpt>
      <trkpt lat="45.27003" lon="5.83345">
        <ele>554</ele>
        <time>2011-06-26T15:49:08Z</time>
      </trkpt>
      <trkpt lat="45.27008" lon="5.83344">
        <ele>554</ele>
        <time>2011-06-26T15:49:12Z</time>
      </trkpt>
      <trkpt lat="45.27013" lon="5.83343">
        <ele>555</ele>
        <time>2011-06-26T15:49:16Z</time>
      </trkpt>
      <trkpt lat="45.27017" lon="5.83341">
        <ele>555</ele>
        <time>2011-06-26T15:49:20Z</time>
      </trkpt>
      <trkpt lat="45.27021" lon="5.83336">
        <ele>556</ele>
        <time>2011-06-26T15:49:24Z</time>
      </trkpt>
      <trkpt lat="45.27026" lon="5.83334">
        <ele>556</ele>
        <time>2011-06-26T15:49:28Z</time>
      </trkpt>
      <trkpt lat="45.27031" lon="5.83331">
        <ele>558</ele>
        <time>2011-06-26T15:49:32Z</time>
      </trkpt>
      <trkpt lat="45.27035" lon="5.83329">
        <ele>559</ele>
        <time>2011-06-26T15:49:36Z</time>
      </trkpt>
      <trkpt lat="45.2704" lon="5.83328">
        <ele>559</ele>
        <time>2011-06-26T15:49:40Z</time>
      </trkpt>
      <trkpt lat="45.27045" lon="5.83326">
        <ele>560</ele>
        <time>2011-06-26T15:49:44Z</time>
      </trkpt>
      <trkpt lat="45.2705" lon="5.83324">
        <ele>560</ele>
        <time>2011-06-26T15:49:48Z</time>
      </trkpt>
      <trkpt lat="45.27055" lon="5.83322">
        <ele>561</ele>
        <time>2011-06-26T15:49:52Z</time>
      </trkpt>
      <trkpt lat="45.27061" lon="5.83321">
        <ele>561</ele>
        <time>2011-06-26T15:49:56Z</time>
      </trkpt>
      <trkpt lat="45.27066" lon="5.83319">
        <ele>562</ele>
        <time>2011-06-26T15:50:00Z</time>
      </trkpt>
      <trkpt lat="45.27071" lon="5.83318">
        <ele>562</ele>
        <time>2011-06-26T15:50:04Z</time>
      </trkpt>
      <trkpt lat="45.27076" lon="5.83317">
        <ele>563</ele>
        <time>2011-06-26T15:50:08Z</time>
      </trkpt>
      <trkpt lat="45.27081" lon="5.8332">
        <ele>563</ele>
        <time>2011-06-26T15:50:12Z</time>
      </trkpt>
      <trkpt lat="45.27086" lon="5.8332">
        <ele>567</ele>
        <time>2011-06-26T15:50:16Z</time>
      </trkpt>
      <trkpt lat="45.27091" lon="5.83321">
        <ele>568</ele>
        <time>2011-06-26T15:50:20Z</time>
      </trkpt>
      <trkpt lat="45.27096" lon="5.83321">
        <ele>568</ele>
        <time>2011-06-26T15:50:24Z</time>
      </trkpt>
      <trkpt lat="45.27101" lon="5.83321">
        <ele>569</ele>
        <time>2011-06-26T15:50:28Z</time>
      </trkpt>
      <trkpt lat="45.27106" lon="5.83321">
        <ele>569</ele>
        <time>2011-06-26T15:50:32Z</time>
      </trkpt>
      <trkpt lat="45.27112" lon="5.8332">
        <ele>570</ele>
        <time>2011-06-26T15:50:36Z</time>
      </trkpt>
      <trkpt lat="45.27118" lon="5.83319">
        <ele>570</ele>
        <time>2011-06-26T15:50:40Z</time>
      </trkpt>
      <trkpt lat="45.27123" lon="5.83318">
        <ele>571</ele>
        <time>2011-06-26T15:50:44Z</time>
      </trkpt>
      <trkpt lat="45.27129" lon="5.83319">
        <ele>571</ele>
        <time>2011-06-26T15:50:48Z</time>
      </trkpt>
      <trkpt lat="45.27134" lon="5.83318">
        <ele>572</ele>
        <time>2011-06-26T15:50:52Z</time>
      </trkpt>
      <trkpt lat="45.27139" lon="5.83317">
        <ele>572</ele>
        <time>2011-06-26T15:50:56Z</time>
      </trkpt>
      <trkpt lat="45.27145" lon="5.83316">
        <ele>573</ele>
        <time>2011-06-26T15:51:00Z</time>
      </trkpt>
      <trkpt lat="45.27151" lon="5.83316">
        <ele>573</ele>
        <time>2011-06-26T15:51:04Z</time>
      </trkpt>
      <trkpt lat="45.27156" lon="5.83316">
        <ele>574</ele>
        <time>2011-06-26T15:51:08Z</time>
      </trkpt>
      <trkpt lat="45.27162" lon="5.83317">
        <ele>574</ele>
        <time>2011-06-26T15:51:12Z</time>
      </trkpt>
      <trkpt lat="45.27167" lon="5.83316">
        <ele>580</ele>
        <time>2011-06-26T15:51:16Z</time>
      </trkpt>
      <trkpt lat="45.27172" lon="5.83316">
        <ele>580</ele>
        <time>2011-06-26T15:51:20Z</time>
      </trkpt>
      <trkpt lat="45.27177" lon="5.83316">
        <ele>580</ele>
        <time>2011-06-26T15:51:24Z</time>
      </trkpt>
      <trkpt lat="45.27182" lon="5.83317">
        <ele>581</ele>
        <time>2011-06-26T15:51:28Z</time>
      </trkpt>
      <trkpt lat="45.27187" lon="5.83317">
        <ele>581</ele>
        <time>2011-06-26T15:51:32Z</time>
      </trkpt>
      <trkpt lat="45.27192" lon="5.83318">
        <ele>582</ele>
        <time>2011-06-26T15:51:36Z</time>
      </trkpt>
      <trkpt lat="45.27198" lon="5.83319">
        <ele>582</ele>
        <time>2011-06-26T15:51:40Z</time>
      </trkpt>
      <trkpt lat="45.27203" lon="5.83319">
        <ele>583</ele>
        <time>2011-06-26T15:51:44Z</time>
      </trkpt>
      <trkpt lat="45.27209" lon="5.83319">
        <ele>583</ele>
        <time>2011-06-26T15:51:48Z</time>
      </trkpt>
      <trkpt lat="45.27214" lon="5.83319">
        <ele>584</ele>
        <time>2011-06-26T15:51:52Z</time>
      </trkpt>
      <trkpt lat="45.2722" lon="5.83319">
        <ele>585</ele>
        <time>2011-06-26T15:51:56Z</time>
      </trkpt>
      <trkpt lat="45.27226" lon="5.83321">
        <ele>585</ele>
        <time>2011-06-26T15:52:00Z</time>
      </trkpt>
      <trkpt lat="45.27231" lon="5.83321">
        <ele>586</ele>
        <time>2011-06-26T15:52:04Z</time>
      </trkpt>
      <trkpt lat="45.27237" lon="5.83321">
        <ele>587</ele>
        <time>2011-06-26T15:52:08Z</time>
      </trkpt>
      <trkpt lat="45.27242" lon="5.83321">
        <ele>587</ele>
        <time>2011-06-26T15:52:12Z</time>
      </trkpt>
      <trkpt lat="45.27247" lon="5.83321">
        <ele>588</ele>
        <time>2011-06-26T15:52:16Z</time>
      </trkpt>
      <trkpt lat="45.27253" lon="5.83322">
        <ele>592</ele>
        <time>2011-06-26T15:52:20Z</time>
      </trkpt>
      <trkpt lat="45.27258" lon="5.83322">
        <ele>593</ele>
        <time>2011-06-26T15:52:24Z</time>
      </trkpt>
      <trkpt lat="45.27263" lon="5.83323">
        <ele>593</ele>
        <time>2011-06-26T15:52:28Z</time>
      </trkpt>
      <trkpt lat="45.27269" lon="5.83323">
        <ele>594</ele>
        <time>2011-06-26T15:52:32Z</time>
      </trkpt>
      <trkpt lat="45.27275" lon="5.83324">
        <ele>595</ele>
        <time>2011-06-26T15:52:36Z</time>
      </trkpt>
      <trkpt lat="45.2728" lon="5.83324">
        <ele>595</ele>
        <time>2011-06-26T15:52:40Z</time>
      </trkpt>
      <trkpt lat="45.27285" lon="5.83324">
        <ele>596</ele>
        <time>2011-06-26T15:52:44Z</time>
      </trkpt>
      <trkpt lat="45.27291" lon="5.83323">
        <ele>597</ele>
        <time>2011-06-26T15:52:48Z</time>
      </trkpt>
      <trkpt lat="45.27297" lon="5.83322">
        <ele>597</ele>
        <time>2011-06-26T15:52:52Z</time>
      </trkpt>
      <trkpt lat="45.27302" lon="5.8332">
        <ele>598</ele>
        <time>2011-06-26T15:52:56Z</time>
      </trkpt>
      <trkpt lat="45.27308" lon="5.83319">
        <ele>598</ele>
        <time>2011-06-26T15:53:00Z</time>
      </trkpt>
      <trkpt lat="45.27314" lon="5.83318">
        <ele>599</ele>
        <time>2011-06-26T15:53:04Z</time>
      </trkpt>
      <trkpt lat="45.2732" lon="5.83317">
        <ele>599</ele>
        <time>2011-06-26T15:53:08Z</time>
      </trkpt>
      <trkpt lat="45.27325" lon="5.83317">
        <ele>600</ele>
        <time>2011-06-26T15:53:12Z</time>
      </trkpt>
      <trkpt lat="45.2733" lon="5.83315">
        <ele>600</ele>
        <time>2011-06-26T15:53:16Z</time>
      </trkpt>
      <trkpt lat="45.27336" lon="5.83314">
        <ele>607</ele>
        <time>2011-06-26T15:53:20Z</time>
      </trkpt>
      <trkpt lat="45.27341" lon="5.83312">
        <ele>608</ele>
        <time>2011-06-26T15:53:24Z</time>
      </trkpt>
      <trkpt lat="45.27347" lon="5.83311">
        <ele>609</ele>
        <time>2011-06-26T15:53:28Z</time>
      </trkpt>
      <trkpt lat="45.27352" lon="5.8331">
        <ele>609</ele>
        <time>2011-06-26T15:53:32Z</time>
      </trkpt>
      <trkpt lat="45.27357" lon="5.83309">
        <ele>610</ele>
        <time>2011-06-26T15:53:36Z</time>
      </trkpt>
      <trkpt lat="45.27362" lon="5.83309">
        <ele>610</ele>
        <time>2011-06-26T15:53:40Z</time>
      </trkpt>
      <trkpt lat="45.27366" lon="5.83309">
        <ele>611</ele>
        <time>2011-06-26T15:53:44Z</time>
      </trkpt>
      <trkpt lat="45.27371" lon="5.83309">
        <ele>611</ele>
        <time>2011-06-26T15:53:48Z</time>
      </trkpt>
      <trkpt lat="45.27375" lon="5.83308">
        <ele>612</ele>
        <time>2011-06-26T15:53:52Z</time>
      </trkpt>
      <trkpt lat="45.2738" lon="5.83308">
        <ele>612</ele>
        <time>2011-06-26T15:53:56Z</time>
      </trkpt>
      <trkpt lat="45.27385" lon="5.83308">
        <ele>613</ele>
        <time>2011-06-26T15:54:00Z</time>
      </trkpt>
      <trkpt lat="45.2739" lon="5.83307">
        <ele>613</ele>
        <time>2011-06-26T15:54:04Z</time>
      </trkpt>
      <trkpt lat="45.27395" lon="5.83307">
        <ele>614</ele>
        <time>2011-06-26T15:54:08Z</time>
      </trkpt>
      <trkpt lat="45.27401" lon="5.83307">
        <ele>615</ele>
        <time>2011-06-26T15:54:12Z</time>
      </trkpt>
      <trkpt lat="45.27406" lon="5.83307">
        <ele>615</ele>
        <time>2011-06-26T15:54:16Z</time>
      </trkpt>
      <trkpt lat="45.27412" lon="5.83306">
        <ele>615</ele>
        <time>2011-06-26T15:54:20Z</time>
      </trkpt>
      <trkpt lat="45.27418" lon="5.83306">
        <ele>624</ele>
        <time>2011-06-26T15:54:24Z</time>
      </trkpt>
      <trkpt lat="45.27423" lon="5.83307">
        <ele>624</ele>
        <time>2011-06-26T15:54:28Z</time>
      </trkpt>
      <trkpt lat="45.27428" lon="5.83307">
        <ele>625</ele>
        <time>2011-06-26T15:54:32Z</time>
      </trkpt>
      <trkpt lat="45.27433" lon="5.83309">
        <ele>625</ele>
        <time>2011-06-26T15:54:36Z</time>
      </trkpt>
      <trkpt lat="45.27439" lon="5.8331">
        <ele>625</ele>
        <time>2011-06-26T15:54:40Z</time>
      </trkpt>
      <trkpt lat="45.27443" lon="5.83311">
        <ele>626</ele>
        <time>2011-06-26T15:54:44Z</time>
      </trkpt>
      <trkpt lat="45.27448" lon="5.83313">
        <ele>626</ele>
        <time>2011-06-26T15:54:48Z</time>
      </trkpt>
      <trkpt lat="45.27453" lon="5.83314">
        <ele>627</ele>
        <time>2011-06-26T15:54:52Z</time>
      </trkpt>
      <trkpt lat="45.27458" lon="5.83315">
        <ele>627</ele>
        <time>2011-06-26T15:54:56Z</time>
      </trkpt>
      <trkpt lat="45.27463" lon="5.83316">
        <ele>628</ele>
        <time>2011-06-26T15:55:00Z</time>
      </trkpt>
      <trkpt lat="45.27468" lon="5.83318">
        <ele>629</ele>
        <time>2011-06-26T15:55:04Z</time>
      </trkpt>
      <trkpt lat="45.27473" lon="5.83319">
        <ele>629</ele>
        <time>2011-06-26T15:55:08Z</time>
      </trkpt>
      <trkpt lat="45.27477" lon="5.8332">
        <ele>630</ele>
        <time>2011-06-26T15:55:12Z</time>
      </trkpt>
      <trkpt lat="45.27482" lon="5.8332">
        <ele>631</ele>
        <time>2011-06-26T15:55:16Z</time>
      </trkpt>
      <trkpt lat="45.27487" lon="5.83321">
        <ele>632</ele>
        <time>2011-06-26T15:55:20Z</time>
      </trkpt>
      <trkpt lat="45.27492" lon="5.83321">
        <ele>632</ele>
        <time>2011-06-26T15:55:24Z</time>
      </trkpt>
      <trkpt lat="45.27498" lon="5.83322">
        <ele>633</ele>
        <time>2011-06-26T15:55:28Z</time>
      </trkpt>
      <trkpt lat="45.27502" lon="5.83324">
        <ele>638</ele>
        <time>2011-06-26T15:55:32Z</time>
      </trkpt>
      <trkpt lat="45.27507" lon="5.83326">
        <ele>638</ele>
        <time>2011-06-26T15:55:36Z</time>
      </trkpt>
      <trkpt lat="45.27511" lon="5.83327">
        <ele>639</ele>
        <time>2011-06-26T15:55:40Z</time>
      </trkpt>
      <trkpt lat="45.27516" lon="5.83328">
        <ele>639</ele>
        <time>2011-06-26T15:55:44Z</time>
      </trkpt>
      <trkpt lat="45.27521" lon="5.83329">
        <ele>640</ele>
        <time>2011-06-26T15:55:48Z</time>
      </trkpt>
      <trkpt lat="45.27526" lon="5.8333">
        <ele>640</ele>
        <time>2011-06-26T15:55:52Z</time>
      </trkpt>
      <trkpt lat="45.27531" lon="5.83331">
        <ele>641</ele>
        <time>2011-06-26T15:55:56Z</time>
      </trkpt>
      <trkpt lat="45.27536" lon="5.83332">
        <ele>642</ele>
        <time>2011-06-26T15:56:00Z</time>
      </trkpt>
      <trkpt lat="45.27541" lon="5.83333">
        <ele>642</ele>
        <time>2011-06-26T15:56:04Z</time>
      </trkpt>
      <trkpt lat="45.27545" lon="5.83336">
        <ele>652</ele>
        <time>2011-06-26T15:56:08Z</time>
      </trkpt>
      <trkpt lat="45.27549" lon="5.83338">
        <ele>653</ele>
        <time>2011-06-26T15:56:12Z</time>
      </trkpt>
      <trkpt lat="45.27554" lon="5.83338">
        <ele>653</ele>
        <time>2011-06-26T15:56:16Z</time>
      </trkpt>
      <trkpt lat="45.27558" lon="5.8334">
        <ele>654</ele>
        <time>2011-06-26T15:56:20Z</time>
      </trkpt>
      <trkpt lat="45.27563" lon="5.8334">
        <ele>654</ele>
        <time>2011-06-26T15:56:24Z</time>
      </trkpt>
      <trkpt lat="45.27567" lon="5.83338">
        <ele>654</ele>
        <time>2011-06-26T15:56:28Z</time>
      </trkpt>
      <trkpt lat="45.27571" lon="5.83336">
        <ele>653</ele>
        <time>2011-06-26T15:56:32Z</time>
      </trkpt>
      <trkpt lat="45.27575" lon="5.83334">
        <ele>653</ele>
        <time>2011-06-26T15:56:36Z</time>
      </trkpt>
      <trkpt lat="45.2758" lon="5.83331">
        <ele>650</ele>
        <time>2011-06-26T15:56:40Z</time>
      </trkpt>
      <trkpt lat="45.27585" lon="5.83328">
        <ele>654</ele>
        <time>2011-06-26T15:56:44Z</time>
      </trkpt>
      <trkpt lat="45.27589" lon="5.83324">
        <ele>655</ele>
        <time>2011-06-26T15:56:48Z</time>
      </trkpt>
      <trkpt lat="45.27593" lon="5.83321">
        <ele>656</ele>
        <time>2011-06-26T15:56:52Z</time>
      </trkpt>
      <trkpt lat="45.27597" lon="5.83317">
        <ele>657</ele>
        <time>2011-06-26T15:56:56Z</time>
      </trkpt>
      <trkpt lat="45.276" lon="5.83312">
        <ele>658</ele>
        <time>2011-06-26T15:57:00Z</time>
      </trkpt>
      <trkpt lat="45.27605" lon="5.83306">
        <ele>659</ele>
        <time>2011-06-26T15:57:04Z</time>
      </trkpt>
      <trkpt lat="45.27609" lon="5.833">
        <ele>659</ele>
        <time>2011-06-26T15:57:08Z</time>
      </trkpt>
      <trkpt lat="45.27612" lon="5.83296">
        <ele>659</ele>
        <time>2011-06-26T15:57:12Z</time>
      </trkpt>
      <trkpt lat="45.27616" lon="5.83292">
        <ele>659</ele>
        <time>2011-06-26T15:57:16Z</time>
      </trkpt>
      <trkpt lat="45.2762" lon="5.83288">
        <ele>660</ele>
        <time>2011-06-26T15:57:20Z</time>
      </trkpt>
      <trkpt lat="45.27623" lon="5.83285">
        <ele>660</ele>
        <time>2011-06-26T15:57:24Z</time>
      </trkpt>
      <trkpt lat="45.27627" lon="5.83282">
        <ele>660</ele>
        <time>2011-06-26T15:57:28Z</time>
      </trkpt>
      <trkpt lat="45.27631" lon="5.8328">
        <ele>661</ele>
        <time>2011-06-26T15:57:32Z</time>
      </trkpt>
      <trkpt lat="45.27635" lon="5.83278">
        <ele>661</ele>
        <time>2011-06-26T15:57:36Z</time>
      </trkpt>
      <trkpt lat="45.27638" lon="5.83274">
        <ele>661</ele>
        <time>2011-06-26T15:57:40Z</time>
      </trkpt>
      <trkpt lat="45.27642" lon="5.83272">
        <ele>661</ele>
        <time>2011-06-26T15:57:44Z</time>
      </trkpt>
      <trkpt lat="45.27646" lon="5.83271">
        <ele>662</ele>
        <time>2011-06-26T15:57:48Z</time>
      </trkpt>
      <trkpt lat="45.27651" lon="5.83268">
        <ele>662</ele>
        <time>2011-06-26T15:57:52Z</time>
      </trkpt>
      <trkpt lat="45.27656" lon="5.83268">
        <ele>662</ele>
        <time>2011-06-26T15:57:56Z</time>
      </trkpt>
      <trkpt lat="45.27661" lon="5.83266">
        <ele>663</ele>
        <time>2011-06-26T15:58:00Z</time>
      </trkpt>
      <trkpt lat="45.27667" lon="5.83265">
        <ele>672</ele>
        <time>2011-06-26T15:58:04Z</time>
      </trkpt>
      <trkpt lat="45.27673" lon="5.83263">
        <ele>672</ele>
        <time>2011-06-26T15:58:08Z</time>
      </trkpt>
      <trkpt lat="45.27678" lon="5.83261">
        <ele>673</ele>
        <time>2011-06-26T15:58:12Z</time>
      </trkpt>
      <trkpt lat="45.27684" lon="5.8326">
        <ele>674</ele>
        <time>2011-06-26T15:58:16Z</time>
      </trkpt>
      <trkpt lat="45.27689" lon="5.83257">
        <ele>675</ele>
        <time>2011-06-26T15:58:20Z</time>
      </trkpt>
      <trkpt lat="45.27694" lon="5.83256">
        <ele>676</ele>
        <time>2011-06-26T15:58:24Z</time>
      </trkpt>
      <trkpt lat="45.27699" lon="5.83253">
        <ele>677</ele>
        <time>2011-06-26T15:58:28Z</time>
      </trkpt>
      <trkpt lat="45.27704" lon="5.83252">
        <ele>678</ele>
        <time>2011-06-26T15:58:32Z</time>
      </trkpt>
      <trkpt lat="45.27709" lon="5.83251">
        <ele>679</ele>
        <time>2011-06-26T15:58:36Z</time>
      </trkpt>
      <trkpt lat="45.27715" lon="5.83249">
        <ele>670</ele>
        <time>2011-06-26T15:58:40Z</time>
      </trkpt>
      <trkpt lat="45.2772" lon="5.83249">
        <ele>670</ele>
        <time>2011-06-26T15:58:44Z</time>
      </trkpt>
      <trkpt lat="45.27726" lon="5.83246">
        <ele>671</ele>
        <time>2011-06-26T15:58:48Z</time>
      </trkpt>
      <trkpt lat="45.27732" lon="5.83242">
        <ele>672</ele>
        <time>2011-06-26T15:58:52Z</time>
      </trkpt>
      <trkpt lat="45.27737" lon="5.8324">
        <ele>673</ele>
        <time>2011-06-26T15:58:56Z</time>
      </trkpt>
      <trkpt lat="45.27743" lon="5.83239">
        <ele>674</ele>
        <time>2011-06-26T15:59:00Z</time>
      </trkpt>
      <trkpt lat="45.27748" lon="5.83237">
        <ele>674</ele>
        <time>2011-06-26T15:59:04Z</time>
      </trkpt>
      <trkpt lat="45.27752" lon="5.83236">
        <ele>681</ele>
        <time>2011-06-26T15:59:08Z</time>
      </trkpt>
      <trkpt lat="45.27757" lon="5.83235">
        <ele>682</ele>
        <time>2011-06-26T15:59:12Z</time>
      </trkpt>
      <trkpt lat="45.27762" lon="5.83235">
        <ele>682</ele>
        <time>2011-06-26T15:59:16Z</time>
      </trkpt>
      <trkpt lat="45.27768" lon="5.83233">
        <ele>683</ele>
        <time>2011-06-26T15:59:20Z</time>
      </trkpt>
      <trkpt lat="45.27773" lon="5.83231">
        <ele>684</ele>
        <time>2011-06-26T15:59:24Z</time>
      </trkpt>
      <trkpt lat="45.27778" lon="5.8323">
        <ele>685</ele>
        <time>2011-06-26T15:59:28Z</time>
      </trkpt>
      <trkpt lat="45.27783" lon="5.83231">
        <ele>686</ele>
        <time>2011-06-26T15:59:32Z</time>
      </trkpt>
      <trkpt lat="45.27788" lon="5.83231">
        <ele>687</ele>
        <time>2011-06-26T15:59:36Z</time>
      </trkpt>
      <trkpt lat="45.27793" lon="5.83231">
        <ele>688</ele>
        <time>2011-06-26T15:59:40Z</time>
      </trkpt>
      <trkpt lat="45.27798" lon="5.83231">
        <ele>689</ele>
        <time>2011-06-26T15:59:44Z</time>
      </trkpt>
      <trkpt lat="45.27802" lon="5.83229">
        <ele>689</ele>
        <time>2011-06-26T15:59:48Z</time>
      </trkpt>
      <trkpt lat="45.27806" lon="5.83227">
        <ele>690</ele>
        <time>2011-06-26T15:59:52Z</time>
      </trkpt>
      <trkpt lat="45.2781" lon="5.83225">
        <ele>690</ele>
        <time>2011-06-26T15:59:56Z</time>
      </trkpt>
      <trkpt lat="45.27815" lon="5.83223">
        <ele>691</ele>
        <time>2011-06-26T16:00:00Z</time>
      </trkpt>
      <trkpt lat="45.27819" lon="5.83222">
        <ele>691</ele>
        <time>2011-06-26T16:00:04Z</time>
      </trkpt>
      <trkpt lat="45.27824" lon="5.83221">
        <ele>692</ele>
        <time>2011-06-26T16:00:08Z</time>
      </trkpt>
      <trkpt lat="45.27828" lon="5.8322">
        <ele>692</ele>
        <time>2011-06-26T16:00:12Z</time>
      </trkpt>
      <trkpt lat="45.27833" lon="5.83218">
        <ele>692</ele>
        <time>2011-06-26T16:00:16Z</time>
      </trkpt>
      <trkpt lat="45.27838" lon="5.83216">
        <ele>704</ele>
        <time>2011-06-26T16:00:20Z</time>
      </trkpt>
      <trkpt lat="45.27842" lon="5.83215">
        <ele>705</ele>
        <time>2011-06-26T16:00:24Z</time>
      </trkpt>
      <trkpt lat="45.27847" lon="5.83214">
        <ele>705</ele>
        <time>2011-06-26T16:00:28Z</time>
      </trkpt>
      <trkpt lat="45.27851" lon="5.83213">
        <ele>705</ele>
        <time>2011-06-26T16:00:32Z</time>
      </trkpt>
      <trkpt lat="45.27856" lon="5.83212">
        <ele>705</ele>
        <time>2011-06-26T16:00:36Z</time>
      </trkpt>
      <trkpt lat="45.27861" lon="5.83211">
        <ele>706</ele>
        <time>2011-06-26T16:00:40Z</time>
      </trkpt>
      <trkpt lat="45.27866" lon="5.8321">
        <ele>706</ele>
        <time>2011-06-26T16:00:44Z</time>
      </trkpt>
      <trkpt lat="45.27871" lon="5.83209">
        <ele>707</ele>
        <time>2011-06-26T16:00:48Z</time>
      </trkpt>
      <trkpt lat="45.27875" lon="5.83209">
        <ele>707</ele>
        <time>2011-06-26T16:00:52Z</time>
      </trkpt>
      <trkpt lat="45.27879" lon="5.83209">
        <ele>708</ele>
        <time>2011-06-26T16:00:56Z</time>
      </trkpt>
      <trkpt lat="45.27882" lon="5.8321">
        <ele>708</ele>
        <time>2011-06-26T16:01:00Z</time>
      </trkpt>
      <trkpt lat="45.27886" lon="5.83211">
        <ele>709</ele>
        <time>2011-06-26T16:01:04Z</time>
      </trkpt>
      <trkpt lat="45.27891" lon="5.83212">
        <ele>709</ele>
        <time>2011-06-26T16:01:08Z</time>
      </trkpt>
      <trkpt lat="45.27895" lon="5.83212">
        <ele>710</ele>
        <time>2011-06-26T16:01:12Z</time>
      </trkpt>
      <trkpt lat="45.27899" lon="5.83212">
        <ele>710</ele>
        <time>2011-06-26T16:01:16Z</time>
      </trkpt>
      <trkpt lat="45.27903" lon="5.83212">
        <ele>710</ele>
        <time>2011-06-26T16:01:20Z</time>
      </trkpt>
      <trkpt lat="45.27907" lon="5.83211">
        <ele>711</ele>
        <time>2011-06-26T16:01:24Z</time>
      </trkpt>
      <trkpt lat="45.27911" lon="5.8321">
        <ele>711</ele>
        <time>2011-06-26T16:01:28Z</time>
      </trkpt>
      <trkpt lat="45.27915" lon="5.83208">
        <ele>710</ele>
        <time>2011-06-26T16:01:32Z</time>
      </trkpt>
      <trkpt lat="45.2792" lon="5.83206">
        <ele>722</ele>
        <time>2011-06-26T16:01:36Z</time>
      </trkpt>
      <trkpt lat="45.27924" lon="5.83205">
        <ele>722</ele>
        <time>2011-06-26T16:01:40Z</time>
      </trkpt>
      <trkpt lat="45.27928" lon="5.83203">
        <ele>722</ele>
        <time>2011-06-26T16:01:44Z</time>
      </trkpt>
      <trkpt lat="45.27932" lon="5.83203">
        <ele>722</ele>
        <time>2011-06-26T16:01:48Z</time>
      </trkpt>
      <trkpt lat="45.27937" lon="5.83202">
        <ele>722</ele>
        <time>2011-06-26T16:01:52Z</time>
      </trkpt>
      <trkpt lat="45.27941" lon="5.83203">
        <ele>723</ele>
        <time>2011-06-26T16:01:56Z</time>
      </trkpt>
      <trkpt lat="45.27945" lon="5.83202">
        <ele>723</ele>
        <time>2011-06-26T16:02:00Z</time>
      </trkpt>
      <trkpt lat="45.27949" lon="5.83202">
        <ele>724</ele>
        <time>2011-06-26T16:02:04Z</time>
      </trkpt>
      <trkpt lat="45.27953" lon="5.83201">
        <ele>724</ele>
        <time>2011-06-26T16:02:08Z</time>
      </trkpt>
      <trkpt lat="45.27957" lon="5.83201">
        <ele>725</ele>
        <time>2011-06-26T16:02:12Z</time>
      </trkpt>
      <trkpt lat="45.27961" lon="5.83201">
        <ele>725</ele>
        <time>2011-06-26T16:02:16Z</time>
      </trkpt>
      <trkpt lat="45.27966" lon="5.83199">
        <ele>725</ele>
        <time>2011-06-26T16:02:20Z</time>
      </trkpt>
      <trkpt lat="45.2797" lon="5.83196">
        <ele>725</ele>
        <time>2011-06-26T16:02:24Z</time>
      </trkpt>
      <trkpt lat="45.27974" lon="5.83194">
        <ele>725</ele>
        <time>2011-06-26T16:02:28Z</time>
      </trkpt>
      <trkpt lat="45.27978" lon="5.83191">
        <ele>725</ele>
        <time>2011-06-26T16:02:32Z</time>
      </trkpt>
      <trkpt lat="45.27981" lon="5.83191">
        <ele>725</ele>
        <time>2011-06-26T16:02:36Z</time>
      </trkpt>
      <trkpt lat="45.27985" lon="5.83191">
        <ele>725</ele>
        <time>2011-06-26T16:02:40Z</time>
      </trkpt>
      <trkpt lat="45.27988" lon="5.83189">
        <ele>725</ele>
        <time>2011-06-26T16:02:44Z</time>
      </trkpt>
      <trkpt lat="45.27993" lon="5.83188">
        <ele>725</ele>
        <time>2011-06-26T16:02:48Z</time>
      </trkpt>
      <trkpt lat="45.27997" lon="5.83187">
        <ele>725</ele>
        <time>2011-06-26T16:02:52Z</time>
      </trkpt>
      <trkpt lat="45.28002" lon="5.83186">
        <ele>733</ele>
        <time>2011-06-26T16:02:56Z</time>
      </trkpt>
      <trkpt lat="45.28006" lon="5.83185">
        <ele>733</ele>
        <time>2011-06-26T16:03:00Z</time>
      </trkpt>
      <trkpt lat="45.2801" lon="5.83184">
        <ele>734</ele>
        <time>2011-06-26T16:03:04Z</time>
      </trkpt>
      <trkpt lat="45.28014" lon="5.83183">
        <ele>734</ele>
        <time>2011-06-26T16:03:08Z</time>
      </trkpt>
      <trkpt lat="45.28019" lon="5.83183">
        <ele>735</ele>
        <time>2011-06-26T16:03:12Z</time>
      </trkpt>
      <trkpt lat="45.28023" lon="5.83183">
        <ele>736</ele>
        <time>2011-06-26T16:03:16Z</time>
      </trkpt>
      <trkpt lat="45.28027" lon="5.83184">
        <ele>737</ele>
        <time>2011-06-26T16:03:20Z</time>
      </trkpt>
      <trkpt lat="45.28031" lon="5.83185">
        <ele>738</ele>
        <time>2011-06-26T16:03:24Z</time>
      </trkpt>
      <trkpt lat="45.28035" lon="5.83185">
        <ele>739</ele>
        <time>2011-06-26T16:03:28Z</time>
      </trkpt>
      <trkpt lat="45.28039" lon="5.83186">
        <ele>739</ele>
        <time>2011-06-26T16:03:32Z</time>
      </trkpt>
      <trkpt lat="45.28043" lon="5.83185">
        <ele>740</ele>
        <time>2011-06-26T16:03:36Z</time>
      </trkpt>
      <trkpt lat="45.28047" lon="5.83184">
        <ele>740</ele>
        <time>2011-06-26T16:03:40Z</time>
      </trkpt>
      <trkpt lat="45.28049" lon="5.83182">
        <ele>740</ele>
        <time>2011-06-26T16:03:44Z</time>
      </trkpt>
      <trkpt lat="45.2805" lon="5.83182">
        <ele>740</ele>
        <time>2011-06-26T16:03:48Z</time>
      </trkpt>
      <trkpt lat="45.28052" lon="5.83183">
        <ele>740</ele>
        <time>2011-06-26T16:03:52Z</time>
      </trkpt>
      <trkpt lat="45.28055" lon="5.83186">
        <ele>741</ele>
        <time>2011-06-26T16:03:56Z</time>
      </trkpt>
      <trkpt lat="45.28058" lon="5.83188">
        <ele>741</ele>
        <time>2011-06-26T16:04:00Z</time>
      </trkpt>
      <trkpt lat="45.28061" lon="5.8319">
        <ele>742</ele>
        <time>2011-06-26T16:04:04Z</time>
      </trkpt>
      <trkpt lat="45.28066" lon="5.83192">
        <ele>742</ele>
        <time>2011-06-26T16:04:08Z</time>
      </trkpt>
      <trkpt lat="45.28071" lon="5.83193">
        <ele>742</ele>
        <time>2011-06-26T16:04:12Z</time>
      </trkpt>
      <trkpt lat="45.28078" lon="5.83194">
        <ele>743</ele>
        <time>2011-06-26T16:04:16Z</time>
      </trkpt>
      <trkpt lat="45.28086" lon="5.83195">
        <ele>756</ele>
        <time>2011-06-26T16:04:20Z</time>
      </trkpt>
      <trkpt lat="45.28089" lon="5.83196">
        <ele>756</ele>
        <time>2011-06-26T16:04:24Z</time>
      </trkpt>
      <trkpt lat="45.28093" lon="5.83197">
        <ele>757</ele>
        <time>2011-06-26T16:04:28Z</time>
      </trkpt>
      <trkpt lat="45.28097" lon="5.83199">
        <ele>758</ele>
        <time>2011-06-26T16:04:32Z</time>
      </trkpt>
      <trkpt lat="45.28101" lon="5.832">
        <ele>759</ele>
        <time>2011-06-26T16:04:36Z</time>
      </trkpt>
      <trkpt lat="45.28104" lon="5.83202">
        <ele>760</ele>
        <time>2011-06-26T16:04:40Z</time>
      </trkpt>
      <trkpt lat="45.28108" lon="5.83201">
        <ele>761</ele>
        <time>2011-06-26T16:04:44Z</time>
      </trkpt>
      <trkpt lat="45.28112" lon="5.83199">
        <ele>761</ele>
        <time>2011-06-26T16:04:48Z</time>
      </trkpt>
      <trkpt lat="45.28115" lon="5.83196">
        <ele>761</ele>
        <time>2011-06-26T16:04:52Z</time>
      </trkpt>
      <trkpt lat="45.28118" lon="5.83195">
        <ele>761</ele>
        <time>2011-06-26T16:04:56Z</time>
      </trkpt>
      <trkpt lat="45.28123" lon="5.83192">
        <ele>762</ele>
        <time>2011-06-26T16:05:00Z</time>
      </trkpt>
      <trkpt lat="45.28127" lon="5.8319">
        <ele>762</ele>
        <time>2011-06-26T16:05:04Z</time>
      </trkpt>
      <trkpt lat="45.28131" lon="5.83189">
        <ele>763</ele>
        <time>2011-06-26T16:05:08Z</time>
      </trkpt>
      <trkpt lat="45.28133" lon="5.8319">
        <ele>763</ele>
        <time>2011-06-26T16:05:12Z</time>
      </trkpt>
      <trkpt lat="45.28134" lon="5.83192">
        <ele>764</ele>
        <time>2011-06-26T16:05:16Z</time>
      </trkpt>
      <trkpt lat="45.28137" lon="5.83194">
        <ele>764</ele>
        <time>2011-06-26T16:05:20Z</time>
      </trkpt>
      <trkpt lat="45.28139" lon="5.83196">
        <ele>765</ele>
        <time>2011-06-26T16:05:24Z</time>
      </trkpt>
      <trkpt lat="45.28142" lon="5.83197">
        <ele>766</ele>
        <time>2011-06-26T16:05:28Z</time>
      </trkpt>
      <trkpt lat="45.28146" lon="5.83198">
        <ele>766</ele>
        <time>2011-06-26T16:05:32Z</time>
      </trkpt>
      <trkpt lat="45.28149" lon="5.83198">
        <ele>767</ele>
        <time>2011-06-26T16:05:36Z</time>
      </trkpt>
      <trkpt lat="45.28151" lon="5.83197">
        <ele>767</ele>
        <time>2011-06-26T16:05:40Z</time>
      </trkpt>
      <trkpt lat="45.28154" lon="5.83196">
        <ele>767</ele>
        <time>2011-06-26T16:05:44Z</time>
      </trkpt>
      <trkpt lat="45.28159" lon="5.83194">
        <ele>766</ele>
        <time>2011-06-26T16:05:48Z</time>
      </trkpt>
      <trkpt lat="45.28163" lon="5.83191">
        <ele>766</ele>
        <time>2011-06-26T16:05:52Z</time>
      </trkpt>
      <trkpt lat="45.28168" lon="5.83189">
        <ele>779</ele>
        <time>2011-06-26T16:05:56Z</time>
      </trkpt>
      <trkpt lat="45.28172" lon="5.83186">
        <ele>778</ele>
        <time>2011-06-26T16:06:00Z</time>
      </trkpt>
      <trkpt lat="45.28174" lon="5.83183">
        <ele>778</ele>
        <time>2011-06-26T16:06:04Z</time>
      </trkpt>
      <trkpt lat="45.28177" lon="5.83181">
        <ele>777</ele>
        <time>2011-06-26T16:06:08Z</time>
      </trkpt>
      <trkpt lat="45.2818" lon="5.8318">
        <ele>778</ele>
        <time>2011-06-26T16:06:12Z</time>
      </trkpt>
      <trkpt lat="45.28185" lon="5.83178">
        <ele>779</ele>
        <time>2011-06-26T16:06:16Z</time>
      </trkpt>
      <trkpt lat="45.28187" lon="5.83178">
        <ele>780</ele>
        <time>2011-06-26T16:06:20Z</time>
      </trkpt>
      <trkpt lat="45.28188" lon="5.83178">
        <ele>781</ele>
        <time>2011-06-26T16:06:24Z</time>
      </trkpt>
      <trkpt lat="45.28192" lon="5.83178">
        <ele>782</ele>
        <time>2011-06-26T16:06:28Z</time>
      </trkpt>
      <trkpt lat="45.28196" lon="5.83178">
        <ele>784</ele>
        <time>2011-06-26T16:06:32Z</time>
      </trkpt>
      <trkpt lat="45.28203" lon="5.83176">
        <ele>785</ele>
        <time>2011-06-26T16:06:36Z</time>
      </trkpt>
      <trkpt lat="45.28208" lon="5.83174">
        <ele>786</ele>
        <time>2011-06-26T16:06:40Z</time>
      </trkpt>
      <trkpt lat="45.28212" lon="5.83174">
        <ele>787</ele>
        <time>2011-06-26T16:06:44Z</time>
      </trkpt>
      <trkpt lat="45.28215" lon="5.83172">
        <ele>788</ele>
        <time>2011-06-26T16:06:48Z</time>
      </trkpt>
      <trkpt lat="45.28218" lon="5.8317">
        <ele>788</ele>
        <time>2011-06-26T16:06:52Z</time>
      </trkpt>
      <trkpt lat="45.28221" lon="5.83167">
        <ele>789</ele>
        <time>2011-06-26T16:06:56Z</time>
      </trkpt>
      <trkpt lat="45.28224" lon="5.83164">
        <ele>778</ele>
        <time>2011-06-26T16:07:00Z</time>
      </trkpt>
      <trkpt lat="45.28227" lon="5.83161">
        <ele>778</ele>
        <time>2011-06-26T16:07:04Z</time>
      </trkpt>
      <trkpt lat="45.28229" lon="5.83158">
        <ele>779</ele>
        <time>2011-06-26T16:07:08Z</time>
      </trkpt>
      <trkpt lat="45.28231" lon="5.83154">
        <ele>779</ele>
        <time>2011-06-26T16:07:12Z</time>
      </trkpt>
      <trkpt lat="45.28234" lon="5.8315">
        <ele>779</ele>
        <time>2011-06-26T16:07:16Z</time>
      </trkpt>
      <trkpt lat="45.28238" lon="5.83146">
        <ele>779</ele>
        <time>2011-06-26T16:07:20Z</time>
      </trkpt>
      <trkpt lat="45.2824" lon="5.83142">
        <ele>779</ele>
        <time>2011-06-26T16:07:24Z</time>
      </trkpt>
      <trkpt lat="45.28244" lon="5.8314">
        <ele>779</ele>
        <time>2011-06-26T16:07:28Z</time>
      </trkpt>
      <trkpt lat="45.28248" lon="5.8314">
        <ele>779</ele>
        <time>2011-06-26T16:07:32Z</time>
      </trkpt>
      <trkpt lat="45.28253" lon="5.83139">
        <ele>792</ele>
        <time>2011-06-26T16:07:36Z</time>
      </trkpt>
      <trkpt lat="45.28258" lon="5.83137">
        <ele>792</ele>
        <time>2011-06-26T16:07:40Z</time>
      </trkpt>
      <trkpt lat="45.28264" lon="5.83136">
        <ele>792</ele>
        <time>2011-06-26T16:07:44Z</time>
      </trkpt>
      <trkpt lat="45.28267" lon="5.83136">
        <ele>792</ele>
        <time>2011-06-26T16:07:48Z</time>
      </trkpt>
      <trkpt lat="45.28272" lon="5.83137">
        <ele>793</ele>
        <time>2011-06-26T16:07:52Z</time>
      </trkpt>
      <trkpt lat="45.28275" lon="5.83138">
        <ele>793</ele>
        <time>2011-06-26T16:07:56Z</time>
      </trkpt>
      <trkpt lat="45.28278" lon="5.83137">
        <ele>793</ele>
        <time>2011-06-26T16:08:00Z</time>
      </trkpt>
      <trkpt lat="45.28281" lon="5.83137">
        <ele>794</ele>
        <time>2011-06-26T16:08:04Z</time>
      </trkpt>
      <trkpt lat="45.28284" lon="5.83138">
        <ele>794</ele>
        <time>2011-06-26T16:08:08Z</time>
      </trkpt>
      <trkpt lat="45.28288" lon="5.83138">
        <ele>794</ele>
        <time>2011-06-26T16:08:12Z</time>
      </trkpt>
      <trkpt lat="45.28291" lon="5.83138">
        <ele>795</ele>
        <time>2011-06-26T16:08:16Z</time>
      </trkpt>
      <trkpt lat="45.28293" lon="5.83139">
        <ele>795</ele>
        <time>2011-06-26T16:08:20Z</time>
      </trkpt>
      <trkpt lat="45.28298" lon="5.8314">
        <ele>796</ele>
        <time>2011-06-26T16:08:24Z</time>
      </trkpt>
      <trkpt lat="45.28301" lon="5.8314">
        <ele>796</ele>
        <time>2011-06-26T16:08:28Z</time>
      </trkpt>
      <trkpt lat="45.28304" lon="5.8314">
        <ele>796</ele>
        <time>2011-06-26T16:08:32Z</time>
      </trkpt>
      <trkpt lat="45.28305" lon="5.83142">
        <ele>797</ele>
        <time>2011-06-26T16:08:36Z</time>
      </trkpt>
      <trkpt lat="45.2831" lon="5.83143">
        <ele>797</ele>
        <time>2011-06-26T16:08:40Z</time>
      </trkpt>
      <trkpt lat="45.28315" lon="5.83144">
        <ele>798</ele>
        <time>2011-06-26T16:08:44Z</time>
      </trkpt>
      <trkpt lat="45.2832" lon="5.83146">
        <ele>799</ele>
        <time>2011-06-26T16:08:48Z</time>
      </trkpt>
      <trkpt lat="45.28325" lon="5.83149">
        <ele>800</ele>
        <time>2011-06-26T16:08:52Z</time>
      </trkpt>
      <trkpt lat="45.28329" lon="5.8315">
        <ele>801</ele>
        <time>2011-06-26T16:08:56Z</time>
      </trkpt>
      <trkpt lat="45.28333" lon="5.83152">
        <ele>802</ele>
        <time>2011-06-26T16:09:00Z</time>
      </trkpt>
      <trkpt lat="45.28338" lon="5.83153">
        <ele>808</ele>
        <time>2011-06-26T16:09:04Z</time>
      </trkpt>
      <trkpt lat="45.28343" lon="5.83154">
        <ele>809</ele>
        <time>2011-06-26T16:09:08Z</time>
      </trkpt>
      <trkpt lat="45.28344" lon="5.83159">
        <ele>809</ele>
        <time>2011-06-26T16:09:14Z</time>
      </trkpt>
      <trkpt lat="45.28345" lon="5.83159">
        <ele>809</ele>
        <time>2011-06-26T16:09:16Z</time>
      </trkpt>
      <trkpt lat="45.28348" lon="5.83157">
        <ele>809</ele>
        <time>2011-06-26T16:09:20Z</time>
      </trkpt>
      <trkpt lat="45.28352" lon="5.83155">
        <ele>809</ele>
        <time>2011-06-26T16:09:24Z</time>
      </trkpt>
      <trkpt lat="45.28356" lon="5.83152">
        <ele>810</ele>
        <time>2011-06-26T16:09:28Z</time>
      </trkpt>
      <trkpt lat="45.28359" lon="5.83149">
        <ele>810</ele>
        <time>2011-06-26T16:09:32Z</time>
      </trkpt>
      <trkpt lat="45.28363" lon="5.83143">
        <ele>810</ele>
        <time>2011-06-26T16:09:36Z</time>
      </trkpt>
      <trkpt lat="45.28368" lon="5.83139">
        <ele>811</ele>
        <time>2011-06-26T16:09:40Z</time>
      </trkpt>
      <trkpt lat="45.28374" lon="5.83135">
        <ele>811</ele>
        <time>2011-06-26T16:09:44Z</time>
      </trkpt>
      <trkpt lat="45.2838" lon="5.83131">
        <ele>812</ele>
        <time>2011-06-26T16:09:48Z</time>
      </trkpt>
      <trkpt lat="45.28386" lon="5.83129">
        <ele>812</ele>
        <time>2011-06-26T16:09:52Z</time>
      </trkpt>
      <trkpt lat="45.2839" lon="5.83126">
        <ele>812</ele>
        <time>2011-06-26T16:09:56Z</time>
      </trkpt>
      <trkpt lat="45.28394" lon="5.83125">
        <ele>812</ele>
        <time>2011-06-26T16:10:00Z</time>
      </trkpt>
      <trkpt lat="45.284" lon="5.83122">
        <ele>813</ele>
        <time>2011-06-26T16:10:04Z</time>
      </trkpt>
      <trkpt lat="45.28406" lon="5.8312">
        <ele>813</ele>
        <time>2011-06-26T16:10:08Z</time>
      </trkpt>
      <trkpt lat="45.28409" lon="5.83118">
        <ele>813</ele>
        <time>2011-06-26T16:10:12Z</time>
      </trkpt>
      <trkpt lat="45.28412" lon="5.83115">
        <ele>813</ele>
        <time>2011-06-26T16:10:16Z</time>
      </trkpt>
      <trkpt lat="45.28418" lon="5.83115">
        <ele>824</ele>
        <time>2011-06-26T16:10:20Z</time>
      </trkpt>
      <trkpt lat="45.28424" lon="5.83113">
        <ele>824</ele>
        <time>2011-06-26T16:10:24Z</time>
      </trkpt>
      <trkpt lat="45.28429" lon="5.83112">
        <ele>825</ele>
        <time>2011-06-26T16:10:28Z</time>
      </trkpt>
      <trkpt lat="45.28435" lon="5.8311">
        <ele>825</ele>
        <time>2011-06-26T16:10:32Z</time>
      </trkpt>
      <trkpt lat="45.2844" lon="5.83107">
        <ele>825</ele>
        <time>2011-06-26T16:10:36Z</time>
      </trkpt>
      <trkpt lat="45.28445" lon="5.83105">
        <ele>826</ele>
        <time>2011-06-26T16:10:40Z</time>
      </trkpt>
      <trkpt lat="45.28452" lon="5.83103">
        <ele>827</ele>
        <time>2011-06-26T16:10:44Z</time>
      </trkpt>
      <trkpt lat="45.28457" lon="5.83102">
        <ele>828</ele>
        <time>2011-06-26T16:10:48Z</time>
      </trkpt>
      <trkpt lat="45.28463" lon="5.831">
        <ele>828</ele>
        <time>2011-06-26T16:10:52Z</time>
      </trkpt>
      <trkpt lat="45.28469" lon="5.831">
        <ele>829</ele>
        <time>2011-06-26T16:10:56Z</time>
      </trkpt>
      <trkpt lat="45.28474" lon="5.831">
        <ele>829</ele>
        <time>2011-06-26T16:11:00Z</time>
      </trkpt>
      <trkpt lat="45.2848" lon="5.831">
        <ele>830</ele>
        <time>2011-06-26T16:11:04Z</time>
      </trkpt>
      <trkpt lat="45.28485" lon="5.83102">
        <ele>830</ele>
        <time>2011-06-26T16:11:08Z</time>
      </trkpt>
      <trkpt lat="45.28492" lon="5.83103">
        <ele>831</ele>
        <time>2011-06-26T16:11:12Z</time>
      </trkpt>
      <trkpt lat="45.28498" lon="5.83103">
        <ele>831</ele>
        <time>2011-06-26T16:11:16Z</time>
      </trkpt>
      <trkpt lat="45.28504" lon="5.83104">
        <ele>842</ele>
        <time>2011-06-26T16:11:20Z</time>
      </trkpt>
      <trkpt lat="45.28509" lon="5.83105">
        <ele>842</ele>
        <time>2011-06-26T16:11:24Z</time>
      </trkpt>
      <trkpt lat="45.28512" lon="5.83107">
        <ele>843</ele>
        <time>2011-06-26T16:11:28Z</time>
      </trkpt>
      <trkpt lat="45.28516" lon="5.83108">
        <ele>844</ele>
        <time>2011-06-26T16:11:32Z</time>
      </trkpt>
      <trkpt lat="45.28521" lon="5.83109">
        <ele>845</ele>
        <time>2011-06-26T16:11:36Z</time>
      </trkpt>
      <trkpt lat="45.28526" lon="5.8311">
        <ele>846</ele>
        <time>2011-06-26T16:11:40Z</time>
      </trkpt>
      <trkpt lat="45.2853" lon="5.83109">
        <ele>846</ele>
        <time>2011-06-26T16:11:44Z</time>
      </trkpt>
      <trkpt lat="45.28535" lon="5.83108">
        <ele>847</ele>
        <time>2011-06-26T16:11:48Z</time>
      </trkpt>
      <trkpt lat="45.28539" lon="5.83107">
        <ele>848</ele>
        <time>2011-06-26T16:11:52Z</time>
      </trkpt>
      <trkpt lat="45.28542" lon="5.83109">
        <ele>848</ele>
        <time>2011-06-26T16:11:56Z</time>
      </trkpt>
      <trkpt lat="45.28546" lon="5.8311">
        <ele>849</ele>
        <time>2011-06-26T16:12:00Z</time>
      </trkpt>
      <trkpt lat="45.2855" lon="5.8311">
        <ele>849</ele>
        <time>2011-06-26T16:12:04Z</time>
      </trkpt>
      <trkpt lat="45.28554" lon="5.8311">
        <ele>850</ele>
        <time>2011-06-26T16:12:08Z</time>
      </trkpt>
      <trkpt lat="45.28558" lon="5.83109">
        <ele>850</ele>
        <time>2011-06-26T16:12:12Z</time>
      </trkpt>
      <trkpt lat="45.28561" lon="5.83109">
        <ele>850</ele>
        <time>2011-06-26T16:12:16Z</time>
      </trkpt>
      <trkpt lat="45.28565" lon="5.83109">
        <ele>850</ele>
        <time>2011-06-26T16:12:20Z</time>
      </trkpt>
      <trkpt lat="45.28568" lon="5.8311">
        <ele>850</ele>
        <time>2011-06-26T16:12:24Z</time>
      </trkpt>
      <trkpt lat="45.28572" lon="5.83109">
        <ele>850</ele>
        <time>2011-06-26T16:12:28Z</time>
      </trkpt>
      <trkpt lat="45.28575" lon="5.83111">
        <ele>851</ele>
        <time>2011-06-26T16:12:32Z</time>
      </trkpt>
      <trkpt lat="45.28578" lon="5.83112">
        <ele>851</ele>
        <time>2011-06-26T16:12:36Z</time>
      </trkpt>
      <trkpt lat="45.2858" lon="5.83113">
        <ele>851</ele>
        <time>2011-06-26T16:12:40Z</time>
      </trkpt>
      <trkpt lat="45.28583" lon="5.83113">
        <ele>851</ele>
        <time>2011-06-26T16:12:44Z</time>
      </trkpt>
      <trkpt lat="45.28585" lon="5.83114">
        <ele>865</ele>
        <time>2011-06-26T16:12:48Z</time>
      </trkpt>
      <trkpt lat="45.28586" lon="5.83114">
        <ele>865</ele>
        <time>2011-06-26T16:12:52Z</time>
      </trkpt>
      <trkpt lat="45.28586" lon="5.83115">
        <ele>866</ele>
        <time>2011-06-26T16:12:56Z</time>
      </trkpt>
      <trkpt lat="45.2859" lon="5.83113">
        <ele>865</ele>
        <time>2011-06-26T16:13:00Z</time>
      </trkpt>
      <trkpt lat="45.28594" lon="5.83111">
        <ele>865</ele>
        <time>2011-06-26T16:13:04Z</time>
      </trkpt>
      <trkpt lat="45.28597" lon="5.83109">
        <ele>865</ele>
        <time>2011-06-26T16:13:08Z</time>
      </trkpt>
      <trkpt lat="45.28602" lon="5.83107">
        <ele>866</ele>
        <time>2011-06-26T16:13:12Z</time>
      </trkpt>
      <trkpt lat="45.28607" lon="5.83104">
        <ele>866</ele>
        <time>2011-06-26T16:13:16Z</time>
      </trkpt>
      <trkpt lat="45.28613" lon="5.83101">
        <ele>867</ele>
        <time>2011-06-26T16:13:20Z</time>
      </trkpt>
      <trkpt lat="45.28617" lon="5.831">
        <ele>868</ele>
        <time>2011-06-26T16:13:24Z</time>
      </trkpt>
      <trkpt lat="45.28623" lon="5.83096">
        <ele>869</ele>
        <time>2011-06-26T16:13:28Z</time>
      </trkpt>
      <trkpt lat="45.28627" lon="5.83094">
        <ele>870</ele>
        <time>2011-06-26T16:13:32Z</time>
      </trkpt>
      <trkpt lat="45.28631" lon="5.83092">
        <ele>870</ele>
        <time>2011-06-26T16:13:36Z</time>
      </trkpt>
      <trkpt lat="45.28635" lon="5.8309">
        <ele>871</ele>
        <time>2011-06-26T16:13:40Z</time>
      </trkpt>
      <trkpt lat="45.28638" lon="5.83089">
        <ele>871</ele>
        <time>2011-06-26T16:13:44Z</time>
      </trkpt>
      <trkpt lat="45.28642" lon="5.83087">
        <ele>872</ele>
        <time>2011-06-26T16:13:48Z</time>
      </trkpt>
      <trkpt lat="45.28647" lon="5.83084">
        <ele>872</ele>
        <time>2011-06-26T16:13:52Z</time>
      </trkpt>
      <trkpt lat="45.28651" lon="5.83083">
        <ele>869</ele>
        <time>2011-06-26T16:13:56Z</time>
      </trkpt>
      <trkpt lat="45.28654" lon="5.83084">
        <ele>873</ele>
        <time>2011-06-26T16:14:00Z</time>
      </trkpt>
      <trkpt lat="45.28657" lon="5.83086">
        <ele>873</ele>
        <time>2011-06-26T16:14:04Z</time>
      </trkpt>
      <trkpt lat="45.28659" lon="5.83086">
        <ele>873</ele>
        <time>2011-06-26T16:14:08Z</time>
      </trkpt>
      <trkpt lat="45.28664" lon="5.83087">
        <ele>873</ele>
        <time>2011-06-26T16:14:12Z</time>
      </trkpt>
      <trkpt lat="45.28668" lon="5.83087">
        <ele>878</ele>
        <time>2011-06-26T16:14:16Z</time>
      </trkpt>
      <trkpt lat="45.28671" lon="5.83086">
        <ele>879</ele>
        <time>2011-06-26T16:14:20Z</time>
      </trkpt>
      <trkpt lat="45.28675" lon="5.83084">
        <ele>882</ele>
        <time>2011-06-26T16:14:24Z</time>
      </trkpt>
      <trkpt lat="45.28678" lon="5.83087">
        <ele>885</ele>
        <time>2011-06-26T16:14:28Z</time>
      </trkpt>
      <trkpt lat="45.2868" lon="5.83087">
        <ele>886</ele>
        <time>2011-06-26T16:14:32Z</time>
      </trkpt>
      <trkpt lat="45.28683" lon="5.83087">
        <ele>888</ele>
        <time>2011-06-26T16:14:36Z</time>
      </trkpt>
      <trkpt lat="45.28687" lon="5.83085">
        <ele>890</ele>
        <time>2011-06-26T16:14:40Z</time>
      </trkpt>
      <trkpt lat="45.28691" lon="5.83087">
        <ele>892</ele>
        <time>2011-06-26T16:14:44Z</time>
      </trkpt>
      <trkpt lat="45.28693" lon="5.83086">
        <ele>893</ele>
        <time>2011-06-26T16:14:48Z</time>
      </trkpt>
      <trkpt lat="45.28692" lon="5.83084">
        <ele>893</ele>
        <time>2011-06-26T16:14:52Z</time>
      </trkpt>
      <trkpt lat="45.2869" lon="5.83084">
        <ele>892</ele>
        <time>2011-06-26T16:14:56Z</time>
      </trkpt>
      <trkpt lat="45.28686" lon="5.83083">
        <ele>884</ele>
        <time>2011-06-26T16:15:00Z</time>
      </trkpt>
      <trkpt lat="45.28684" lon="5.83083">
        <ele>883</ele>
        <time>2011-06-26T16:15:04Z</time>
      </trkpt>
      <trkpt lat="45.28683" lon="5.83085">
        <ele>888</ele>
        <time>2011-06-26T16:15:08Z</time>
      </trkpt>
      <trkpt lat="45.2868" lon="5.83089">
        <ele>887</ele>
        <time>2011-06-26T16:15:12Z</time>
      </trkpt>
      <trkpt lat="45.28675" lon="5.83094">
        <ele>886</ele>
        <time>2011-06-26T16:15:16Z</time>
      </trkpt>
      <trkpt lat="45.28668" lon="5.831">
        <ele>888</ele>
        <time>2011-06-26T16:15:20Z</time>
      </trkpt>
      <trkpt lat="45.28666" lon="5.83106">
        <ele>875</ele>
        <time>2011-06-26T16:15:24Z</time>
      </trkpt>
      <trkpt lat="45.28667" lon="5.83109">
        <ele>893</ele>
        <time>2011-06-26T16:15:28Z</time>
      </trkpt>
      <trkpt lat="45.28668" lon="5.83112">
        <ele>894</ele>
        <time>2011-06-26T16:15:32Z</time>
      </trkpt>
      <trkpt lat="45.28665" lon="5.83117">
        <ele>877</ele>
        <time>2011-06-26T16:15:36Z</time>
      </trkpt>
      <trkpt lat="45.28663" lon="5.83121">
        <ele>878</ele>
        <time>2011-06-26T16:15:40Z</time>
      </trkpt>
      <trkpt lat="45.28662" lon="5.83124">
        <ele>878</ele>
        <time>2011-06-26T16:15:44Z</time>
      </trkpt>
      <trkpt lat="45.28657" lon="5.83129">
        <ele>879</ele>
        <time>2011-06-26T16:15:48Z</time>
      </trkpt>
      <trkpt lat="45.28651" lon="5.83136">
        <ele>880</ele>
        <time>2011-06-26T16:15:52Z</time>
      </trkpt>
      <trkpt lat="45.28645" lon="5.83142">
        <ele>881</ele>
        <time>2011-06-26T16:15:56Z</time>
      </trkpt>
      <trkpt lat="45.2864" lon="5.83149">
        <ele>881</ele>
        <time>2011-06-26T16:16:00Z</time>
      </trkpt>
      <trkpt lat="45.28636" lon="5.83157">
        <ele>882</ele>
        <time>2011-06-26T16:16:04Z</time>
      </trkpt>
      <trkpt lat="45.28634" lon="5.83161">
        <ele>881</ele>
        <time>2011-06-26T16:16:08Z</time>
      </trkpt>
      <trkpt lat="45.28637" lon="5.83164">
        <ele>883</ele>
        <time>2011-06-26T16:16:12Z</time>
      </trkpt>
      <trkpt lat="45.2864" lon="5.83166">
        <ele>884</ele>
        <time>2011-06-26T16:16:16Z</time>
      </trkpt>
      <trkpt lat="45.2864" lon="5.83167">
        <ele>902</ele>
        <time>2011-06-26T16:16:20Z</time>
      </trkpt>
      <trkpt lat="45.28641" lon="5.83169">
        <ele>902</ele>
        <time>2011-06-26T16:16:24Z</time>
      </trkpt>
      <trkpt lat="45.28642" lon="5.8317">
        <ele>902</ele>
        <time>2011-06-26T16:16:28Z</time>
      </trkpt>
      <trkpt lat="45.28644" lon="5.83172">
        <ele>902</ele>
        <time>2011-06-26T16:16:32Z</time>
      </trkpt>
      <trkpt lat="45.28647" lon="5.83174">
        <ele>903</ele>
        <time>2011-06-26T16:16:36Z</time>
      </trkpt>
      <trkpt lat="45.28651" lon="5.83173">
        <ele>903</ele>
        <time>2011-06-26T16:16:40Z</time>
      </trkpt>
      <trkpt lat="45.28652" lon="5.83174">
        <ele>903</ele>
        <time>2011-06-26T16:16:44Z</time>
      </trkpt>
      <trkpt lat="45.28653" lon="5.83177">
        <ele>904</ele>
        <time>2011-06-26T16:16:48Z</time>
      </trkpt>
      <trkpt lat="45.28655" lon="5.83176">
        <ele>903</ele>
        <time>2011-06-26T16:16:52Z</time>
      </trkpt>
      <trkpt lat="45.2866" lon="5.83173">
        <ele>903</ele>
        <time>2011-06-26T16:16:56Z</time>
      </trkpt>
      <trkpt lat="45.28662" lon="5.8317">
        <ele>903</ele>
        <time>2011-06-26T16:17:00Z</time>
      </trkpt>
      <trkpt lat="45.28667" lon="5.83167">
        <ele>902</ele>
        <time>2011-06-26T16:17:04Z</time>
      </trkpt>
      <trkpt lat="45.28672" lon="5.83165">
        <ele>903</ele>
        <time>2011-06-26T16:17:08Z</time>
      </trkpt>
      <trkpt lat="45.28677" lon="5.83162">
        <ele>903</ele>
        <time>2011-06-26T16:17:12Z</time>
      </trkpt>
      <trkpt lat="45.2868" lon="5.83159">
        <ele>904</ele>
        <time>2011-06-26T16:17:16Z</time>
      </trkpt>
      <trkpt lat="45.28683" lon="5.83155">
        <ele>904</ele>
        <time>2011-06-26T16:17:20Z</time>
      </trkpt>
      <trkpt lat="45.28685" lon="5.83153">
        <ele>904</ele>
        <time>2011-06-26T16:17:24Z</time>
      </trkpt>
      <trkpt lat="45.28691" lon="5.83151">
        <ele>905</ele>
        <time>2011-06-26T16:17:28Z</time>
      </trkpt>
      <trkpt lat="45.28696" lon="5.8315">
        <ele>906</ele>
        <time>2011-06-26T16:17:32Z</time>
      </trkpt>
      <trkpt lat="45.28701" lon="5.83149">
        <ele>907</ele>
        <time>2011-06-26T16:17:36Z</time>
      </trkpt>
      <trkpt lat="45.28709" lon="5.83147">
        <ele>909</ele>
        <time>2011-06-26T16:17:40Z</time>
      </trkpt>
      <trkpt lat="45.28713" lon="5.83146">
        <ele>910</ele>
        <time>2011-06-26T16:17:44Z</time>
      </trkpt>
      <trkpt lat="45.28715" lon="5.83144">
        <ele>910</ele>
        <time>2011-06-26T16:17:51Z</time>
      </trkpt>
      <trkpt lat="45.28715" lon="5.83143">
        <ele>910</ele>
        <time>2011-06-26T16:17:52Z</time>
      </trkpt>
      <trkpt lat="45.28719" lon="5.83139">
        <ele>910</ele>
        <time>2011-06-26T16:17:56Z</time>
      </trkpt>
      <trkpt lat="45.28723" lon="5.83135">
        <ele>910</ele>
        <time>2011-06-26T16:18:00Z</time>
      </trkpt>
      <trkpt lat="45.28726" lon="5.83132">
        <ele>910</ele>
        <time>2011-06-26T16:18:05Z</time>
      </trkpt>
      <trkpt lat="45.28729" lon="5.83129">
        <ele>910</ele>
        <time>2011-06-26T16:18:08Z</time>
      </trkpt>
      <trkpt lat="45.28732" lon="5.83126">
        <ele>909</ele>
        <time>2011-06-26T16:18:12Z</time>
      </trkpt>
      <trkpt lat="45.28733" lon="5.83124">
        <ele>909</ele>
        <time>2011-06-26T16:18:16Z</time>
      </trkpt>
      <trkpt lat="45.28734" lon="5.83123">
        <ele>909</ele>
        <time>2011-06-26T16:18:20Z</time>
      </trkpt>
      <trkpt lat="45.28732" lon="5.83126">
        <ele>910</ele>
        <time>2011-06-26T16:18:24Z</time>
      </trkpt>
      <trkpt lat="45.28729" lon="5.83131">
        <ele>910</ele>
        <time>2011-06-26T16:18:28Z</time>
      </trkpt>
      <trkpt lat="45.28722" lon="5.83138">
        <ele>911</ele>
        <time>2011-06-26T16:18:32Z</time>
      </trkpt>
      <trkpt lat="45.28718" lon="5.83142">
        <ele>911</ele>
        <time>2011-06-26T16:18:36Z</time>
      </trkpt>
      <trkpt lat="45.28715" lon="5.83147">
        <ele>911</ele>
        <time>2011-06-26T16:18:40Z</time>
      </trkpt>
      <trkpt lat="45.28712" lon="5.8315">
        <ele>910</ele>
        <time>2011-06-26T16:18:44Z</time>
      </trkpt>
      <trkpt lat="45.28708" lon="5.83153">
        <ele>910</ele>
        <time>2011-06-26T16:18:48Z</time>
      </trkpt>
      <trkpt lat="45.28704" lon="5.83156">
        <ele>909</ele>
        <time>2011-06-26T16:18:52Z</time>
      </trkpt>
      <trkpt lat="45.28701" lon="5.83159">
        <ele>908</ele>
        <time>2011-06-26T16:18:56Z</time>
      </trkpt>
      <trkpt lat="45.28697" lon="5.83163">
        <ele>907</ele>
        <time>2011-06-26T16:19:00Z</time>
      </trkpt>
      <trkpt lat="45.28694" lon="5.83168">
        <ele>927</ele>
        <time>2011-06-26T16:19:04Z</time>
      </trkpt>
      <trkpt lat="45.28692" lon="5.83171">
        <ele>926</ele>
        <time>2011-06-26T16:19:08Z</time>
      </trkpt>
      <trkpt lat="45.28689" lon="5.83174">
        <ele>926</ele>
        <time>2011-06-26T16:19:12Z</time>
      </trkpt>
      <trkpt lat="45.28686" lon="5.83179">
        <ele>926</ele>
        <time>2011-06-26T16:19:16Z</time>
      </trkpt>
      <trkpt lat="45.28682" lon="5.83183">
        <ele>925</ele>
        <time>2011-06-26T16:19:20Z</time>
      </trkpt>
      <trkpt lat="45.28677" lon="5.83187">
        <ele>925</ele>
        <time>2011-06-26T16:19:24Z</time>
      </trkpt>
      <trkpt lat="45.28674" lon="5.83193">
        <ele>928</ele>
        <time>2011-06-26T16:19:28Z</time>
      </trkpt>
      <trkpt lat="45.28672" lon="5.83199">
        <ele>930</ele>
        <time>2011-06-26T16:19:32Z</time>
      </trkpt>
      <trkpt lat="45.2867" lon="5.83205">
        <ele>933</ele>
        <time>2011-06-26T16:19:36Z</time>
      </trkpt>
      <trkpt lat="45.28667" lon="5.83209">
        <ele>934</ele>
        <time>2011-06-26T16:19:40Z</time>
      </trkpt>
      <trkpt lat="45.28664" lon="5.83214">
        <ele>913</ele>
        <time>2011-06-26T16:19:44Z</time>
      </trkpt>
      <trkpt lat="45.28661" lon="5.83219">
        <ele>915</ele>
        <time>2011-06-26T16:19:48Z</time>
      </trkpt>
      <trkpt lat="45.28658" lon="5.83226">
        <ele>918</ele>
        <time>2011-06-26T16:19:52Z</time>
      </trkpt>
      <trkpt lat="45.28655" lon="5.83232">
        <ele>920</ele>
        <time>2011-06-26T16:19:56Z</time>
      </trkpt>
      <trkpt lat="45.28652" lon="5.83241">
        <ele>923</ele>
        <time>2011-06-26T16:20:00Z</time>
      </trkpt>
      <trkpt lat="45.2865" lon="5.83248">
        <ele>923</ele>
        <time>2011-06-26T16:20:04Z</time>
      </trkpt>
      <trkpt lat="45.28647" lon="5.83255">
        <ele>940</ele>
        <time>2011-06-26T16:20:08Z</time>
      </trkpt>
      <trkpt lat="45.28644" lon="5.83261">
        <ele>940</ele>
        <time>2011-06-26T16:20:12Z</time>
      </trkpt>
      <trkpt lat="45.28639" lon="5.83265">
        <ele>940</ele>
        <time>2011-06-26T16:20:16Z</time>
      </trkpt>
      <trkpt lat="45.28634" lon="5.83268">
        <ele>939</ele>
        <time>2011-06-26T16:20:20Z</time>
      </trkpt>
      <trkpt lat="45.2863" lon="5.83271">
        <ele>939</ele>
        <time>2011-06-26T16:20:24Z</time>
      </trkpt>
      <trkpt lat="45.28628" lon="5.83274">
        <ele>939</ele>
        <time>2011-06-26T16:20:29Z</time>
      </trkpt>
      <trkpt lat="45.28626" lon="5.83275">
        <ele>939</ele>
        <time>2011-06-26T16:20:32Z</time>
      </trkpt>
      <trkpt lat="45.28629" lon="5.83275">
        <ele>939</ele>
        <time>2011-06-26T16:20:36Z</time>
      </trkpt>
      <trkpt lat="45.28631" lon="5.83274">
        <ele>940</ele>
        <time>2011-06-26T16:20:40Z</time>
      </trkpt>
      <trkpt lat="45.28632" lon="5.83275">
        <ele>940</ele>
        <time>2011-06-26T16:20:44Z</time>
      </trkpt>
      <trkpt lat="45.28634" lon="5.83278">
        <ele>941</ele>
        <time>2011-06-26T16:20:48Z</time>
      </trkpt>
      <trkpt lat="45.28635" lon="5.8328">
        <ele>942</ele>
        <time>2011-06-26T16:20:52Z</time>
      </trkpt>
      <trkpt lat="45.28638" lon="5.8328">
        <ele>942</ele>
        <time>2011-06-26T16:20:56Z</time>
      </trkpt>
      <trkpt lat="45.28641" lon="5.83278">
        <ele>942</ele>
        <time>2011-06-26T16:21:00Z</time>
      </trkpt>
      <trkpt lat="45.28646" lon="5.83276">
        <ele>943</ele>
        <time>2011-06-26T16:21:04Z</time>
      </trkpt>
      <trkpt lat="45.2865" lon="5.83273">
        <ele>943</ele>
        <time>2011-06-26T16:21:08Z</time>
      </trkpt>
      <trkpt lat="45.28654" lon="5.8327">
        <ele>942</ele>
        <time>2011-06-26T16:21:12Z</time>
      </trkpt>
      <trkpt lat="45.28657" lon="5.83268">
        <ele>942</ele>
        <time>2011-06-26T16:21:16Z</time>
      </trkpt>
      <trkpt lat="45.28661" lon="5.83269">
        <ele>943</ele>
        <time>2011-06-26T16:21:20Z</time>
      </trkpt>
      <trkpt lat="45.28665" lon="5.83269">
        <ele>943</ele>
        <time>2011-06-26T16:21:24Z</time>
      </trkpt>
      <trkpt lat="45.28668" lon="5.83266">
        <ele>960</ele>
        <time>2011-06-26T16:21:28Z</time>
      </trkpt>
      <trkpt lat="45.28674" lon="5.83262">
        <ele>959</ele>
        <time>2011-06-26T16:21:32Z</time>
      </trkpt>
      <trkpt lat="45.28681" lon="5.8326">
        <ele>961</ele>
        <time>2011-06-26T16:21:36Z</time>
      </trkpt>
      <trkpt lat="45.28686" lon="5.83258">
        <ele>964</ele>
        <time>2011-06-26T16:21:40Z</time>
      </trkpt>
      <trkpt lat="45.28691" lon="5.83252">
        <ele>966</ele>
        <time>2011-06-26T16:21:44Z</time>
      </trkpt>
      <trkpt lat="45.28694" lon="5.83248">
        <ele>945</ele>
        <time>2011-06-26T16:21:48Z</time>
      </trkpt>
      <trkpt lat="45.28696" lon="5.83248">
        <ele>945</ele>
        <time>2011-06-26T16:21:52Z</time>
      </trkpt>
      <trkpt lat="45.287" lon="5.83246">
        <ele>946</ele>
        <time>2011-06-26T16:21:56Z</time>
      </trkpt>
      <trkpt lat="45.28706" lon="5.83243">
        <ele>947</ele>
        <time>2011-06-26T16:22:00Z</time>
      </trkpt>
      <trkpt lat="45.28707" lon="5.83244">
        <ele>948</ele>
        <time>2011-06-26T16:22:04Z</time>
      </trkpt>
      <trkpt lat="45.28713" lon="5.83241">
        <ele>950</ele>
        <time>2011-06-26T16:22:08Z</time>
      </trkpt>
      <trkpt lat="45.28718" lon="5.83238">
        <ele>951</ele>
        <time>2011-06-26T16:22:12Z</time>
      </trkpt>
      <trkpt lat="45.28723" lon="5.83234">
        <ele>953</ele>
        <time>2011-06-26T16:22:16Z</time>
      </trkpt>
      <trkpt lat="45.28729" lon="5.8323">
        <ele>954</ele>
        <time>2011-06-26T16:22:20Z</time>
      </trkpt>
      <trkpt lat="45.28733" lon="5.83228">
        <ele>954</ele>
        <time>2011-06-26T16:22:24Z</time>
      </trkpt>
      <trkpt lat="45.28738" lon="5.83223">
        <ele>953</ele>
        <time>2011-06-26T16:22:28Z</time>
      </trkpt>
      <trkpt lat="45.2874" lon="5.83223">
        <ele>954</ele>
        <time>2011-06-26T16:22:32Z</time>
      </trkpt>
      <trkpt lat="45.2874" lon="5.83224">
        <ele>954</ele>
        <time>2011-06-26T16:22:36Z</time>
      </trkpt>
      <trkpt lat="45.28741" lon="5.83225">
        <ele>955</ele>
        <time>2011-06-26T16:22:40Z</time>
      </trkpt>
      <trkpt lat="45.28742" lon="5.83224">
        <ele>955</ele>
        <time>2011-06-26T16:22:44Z</time>
      </trkpt>
      <trkpt lat="45.2875" lon="5.83218">
        <ele>953</ele>
        <time>2011-06-26T16:22:48Z</time>
      </trkpt>
      <trkpt lat="45.28757" lon="5.83213">
        <ele>971</ele>
        <time>2011-06-26T16:22:52Z</time>
      </trkpt>
      <trkpt lat="45.28759" lon="5.83211">
        <ele>971</ele>
        <time>2011-06-26T16:22:56Z</time>
      </trkpt>
      <trkpt lat="45.2876" lon="5.83212">
        <ele>971</ele>
        <time>2011-06-26T16:23:00Z</time>
      </trkpt>
      <trkpt lat="45.28762" lon="5.83209">
        <ele>970</ele>
        <time>2011-06-26T16:23:04Z</time>
      </trkpt>
      <trkpt lat="45.28766" lon="5.83204">
        <ele>969</ele>
        <time>2011-06-26T16:23:08Z</time>
      </trkpt>
      <trkpt lat="45.28767" lon="5.832">
        <ele>967</ele>
        <time>2011-06-26T16:23:12Z</time>
      </trkpt>
      <trkpt lat="45.28768" lon="5.83197">
        <ele>966</ele>
        <time>2011-06-26T16:23:16Z</time>
      </trkpt>
      <trkpt lat="45.28769" lon="5.83194">
        <ele>965</ele>
        <time>2011-06-26T16:23:20Z</time>
      </trkpt>
      <trkpt lat="45.28769" lon="5.83192">
        <ele>965</ele>
        <time>2011-06-26T16:23:24Z</time>
      </trkpt>
      <trkpt lat="45.28769" lon="5.83193">
        <ele>965</ele>
        <time>2011-06-26T16:23:28Z</time>
      </trkpt>
      <trkpt lat="45.28769" lon="5.83199">
        <ele>967</ele>
        <time>2011-06-26T16:23:32Z</time>
      </trkpt>
      <trkpt lat="45.28768" lon="5.83204">
        <ele>969</ele>
        <time>2011-06-26T16:23:36Z</time>
      </trkpt>
      <trkpt lat="45.28768" lon="5.83209">
        <ele>971</ele>
        <time>2011-06-26T16:23:40Z</time>
      </trkpt>
      <trkpt lat="45.28767" lon="5.83213">
        <ele>972</ele>
        <time>2011-06-26T16:23:44Z</time>
      </trkpt>
      <trkpt lat="45.28767" lon="5.83217">
        <ele>973</ele>
        <time>2011-06-26T16:23:48Z</time>
      </trkpt>
      <trkpt lat="45.28765" lon="5.83222">
        <ele>974</ele>
        <time>2011-06-26T16:23:52Z</time>
      </trkpt>
      <trkpt lat="45.28763" lon="5.83226">
        <ele>975</ele>
        <time>2011-06-26T16:23:56Z</time>
      </trkpt>
      <trkpt lat="45.2876" lon="5.8323">
        <ele>976</ele>
        <time>2011-06-26T16:24:00Z</time>
      </trkpt>
      <trkpt lat="45.28756" lon="5.83235">
        <ele>978</ele>
        <time>2011-06-26T16:24:04Z</time>
      </trkpt>
      <trkpt lat="45.28752" lon="5.83238">
        <ele>978</ele>
        <time>2011-06-26T16:24:08Z</time>
      </trkpt>
      <trkpt lat="45.28749" lon="5.83244">
        <ele>973</ele>
        <time>2011-06-26T16:24:12Z</time>
      </trkpt>
      <trkpt lat="45.28745" lon="5.83249">
        <ele>974</ele>
        <time>2011-06-26T16:24:16Z</time>
      </trkpt>
      <trkpt lat="45.28742" lon="5.83254">
        <ele>982</ele>
        <time>2011-06-26T16:24:20Z</time>
      </trkpt>
      <trkpt lat="45.28739" lon="5.83261">
        <ele>982</ele>
        <time>2011-06-26T16:24:24Z</time>
      </trkpt>
      <trkpt lat="45.28736" lon="5.83268">
        <ele>983</ele>
        <time>2011-06-26T16:24:28Z</time>
      </trkpt>
      <trkpt lat="45.28733" lon="5.83273">
        <ele>983</ele>
        <time>2011-06-26T16:24:32Z</time>
      </trkpt>
      <trkpt lat="45.28729" lon="5.83278">
        <ele>984</ele>
        <time>2011-06-26T16:24:36Z</time>
      </trkpt>
      <trkpt lat="45.28726" lon="5.83283">
        <ele>984</ele>
        <time>2011-06-26T16:24:40Z</time>
      </trkpt>
      <trkpt lat="45.28722" lon="5.83288">
        <ele>984</ele>
        <time>2011-06-26T16:24:44Z</time>
      </trkpt>
      <trkpt lat="45.28719" lon="5.83293">
        <ele>985</ele>
        <time>2011-06-26T16:24:48Z</time>
      </trkpt>
      <trkpt lat="45.28717" lon="5.83297">
        <ele>986</ele>
        <time>2011-06-26T16:24:52Z</time>
      </trkpt>
      <trkpt lat="45.28713" lon="5.83302">
        <ele>986</ele>
        <time>2011-06-26T16:24:56Z</time>
      </trkpt>
      <trkpt lat="45.28711" lon="5.83305">
        <ele>986</ele>
        <time>2011-06-26T16:25:00Z</time>
      </trkpt>
      <trkpt lat="45.28708" lon="5.83309">
        <ele>986</ele>
        <time>2011-06-26T16:25:04Z</time>
      </trkpt>
      <trkpt lat="45.28705" lon="5.83314">
        <ele>986</ele>
        <time>2011-06-26T16:25:08Z</time>
      </trkpt>
      <trkpt lat="45.28702" lon="5.83315">
        <ele>986</ele>
        <time>2011-06-26T16:25:12Z</time>
      </trkpt>
      <trkpt lat="45.28698" lon="5.83318">
        <ele>985</ele>
        <time>2011-06-26T16:25:16Z</time>
      </trkpt>
      <trkpt lat="45.28696" lon="5.83325">
        <ele>985</ele>
        <time>2011-06-26T16:25:20Z</time>
      </trkpt>
      <trkpt lat="45.28692" lon="5.83329">
        <ele>985</ele>
        <time>2011-06-26T16:25:24Z</time>
      </trkpt>
      <trkpt lat="45.28686" lon="5.83334">
        <ele>1002</ele>
        <time>2011-06-26T16:25:28Z</time>
      </trkpt>
      <trkpt lat="45.28684" lon="5.83342">
        <ele>1002</ele>
        <time>2011-06-26T16:25:32Z</time>
      </trkpt>
      <trkpt lat="45.2868" lon="5.8335">
        <ele>1004</ele>
        <time>2011-06-26T16:25:36Z</time>
      </trkpt>
      <trkpt lat="45.28678" lon="5.83357">
        <ele>1007</ele>
        <time>2011-06-26T16:25:40Z</time>
      </trkpt>
      <trkpt lat="45.28677" lon="5.83359">
        <ele>1008</ele>
        <time>2011-06-26T16:25:44Z</time>
      </trkpt>
      <trkpt lat="45.28676" lon="5.83362">
        <ele>1009</ele>
        <time>2011-06-26T16:25:49Z</time>
      </trkpt>
      <trkpt lat="45.28676" lon="5.83365">
        <ele>1010</ele>
        <time>2011-06-26T16:25:54Z</time>
      </trkpt>
      <trkpt lat="45.28676" lon="5.83365">
        <ele>1010</ele>
        <time>2011-06-26T16:25:56Z</time>
      </trkpt>
      <trkpt lat="45.28677" lon="5.83366">
        <ele>1011</ele>
        <time>2011-06-26T16:26:00Z</time>
      </trkpt>
      <trkpt lat="45.28679" lon="5.83367">
        <ele>1011</ele>
        <time>2011-06-26T16:26:04Z</time>
      </trkpt>
      <trkpt lat="45.28683" lon="5.83367">
        <ele>1012</ele>
        <time>2011-06-26T16:26:08Z</time>
      </trkpt>
      <trkpt lat="45.28684" lon="5.83369">
        <ele>1013</ele>
        <time>2011-06-26T16:26:12Z</time>
      </trkpt>
      <trkpt lat="45.28686" lon="5.8337">
        <ele>1014</ele>
        <time>2011-06-26T16:26:16Z</time>
      </trkpt>
      <trkpt lat="45.28687" lon="5.8337">
        <ele>1014</ele>
        <time>2011-06-26T16:26:20Z</time>
      </trkpt>
      <trkpt lat="45.28692" lon="5.83367">
        <ele>1015</ele>
        <time>2011-06-26T16:26:24Z</time>
      </trkpt>
      <trkpt lat="45.28696" lon="5.83364">
        <ele>1015</ele>
        <time>2011-06-26T16:26:28Z</time>
      </trkpt>
      <trkpt lat="45.287" lon="5.8336">
        <ele>1016</ele>
        <time>2011-06-26T16:26:32Z</time>
      </trkpt>
      <trkpt lat="45.28707" lon="5.83356">
        <ele>1017</ele>
        <time>2011-06-26T16:26:36Z</time>
      </trkpt>
      <trkpt lat="45.28712" lon="5.83353">
        <ele>1018</ele>
        <time>2011-06-26T16:26:40Z</time>
      </trkpt>
      <trkpt lat="45.28715" lon="5.83353">
        <ele>1019</ele>
        <time>2011-06-26T16:26:44Z</time>
      </trkpt>
      <trkpt lat="45.28715" lon="5.83351">
        <ele>1019</ele>
        <time>2011-06-26T16:26:48Z</time>
      </trkpt>
      <trkpt lat="45.28718" lon="5.83349">
        <ele>1019</ele>
        <time>2011-06-26T16:26:52Z</time>
      </trkpt>
      <trkpt lat="45.28721" lon="5.83344">
        <ele>1020</ele>
        <time>2011-06-26T16:26:56Z</time>
      </trkpt>
      <trkpt lat="45.28726" lon="5.83338">
        <ele>1020</ele>
        <time>2011-06-26T16:27:00Z</time>
      </trkpt>
      <trkpt lat="45.28732" lon="5.83334">
        <ele>1022</ele>
        <time>2011-06-26T16:27:04Z</time>
      </trkpt>
      <trkpt lat="45.28737" lon="5.83329">
        <ele>1007</ele>
        <time>2011-06-26T16:27:08Z</time>
      </trkpt>
      <trkpt lat="45.28742" lon="5.83325">
        <ele>1009</ele>
        <time>2011-06-26T16:27:12Z</time>
      </trkpt>
      <trkpt lat="45.28748" lon="5.8332">
        <ele>1007</ele>
        <time>2011-06-26T16:27:16Z</time>
      </trkpt>
      <trkpt lat="45.28752" lon="5.83316">
        <ele>1021</ele>
        <time>2011-06-26T16:27:20Z</time>
      </trkpt>
      <trkpt lat="45.28758" lon="5.83307">
        <ele>1019</ele>
        <time>2011-06-26T16:27:24Z</time>
      </trkpt>
      <trkpt lat="45.2876" lon="5.83303">
        <ele>1018</ele>
        <time>2011-06-26T16:27:28Z</time>
      </trkpt>
      <trkpt lat="45.28762" lon="5.83303">
        <ele>1018</ele>
        <time>2011-06-26T16:27:32Z</time>
      </trkpt>
      <trkpt lat="45.28766" lon="5.83301">
        <ele>1018</ele>
        <time>2011-06-26T16:27:36Z</time>
      </trkpt>
      <trkpt lat="45.2877" lon="5.833">
        <ele>1018</ele>
        <time>2011-06-26T16:27:40Z</time>
      </trkpt>
      <trkpt lat="45.28773" lon="5.83301">
        <ele>1018</ele>
        <time>2011-06-26T16:27:44Z</time>
      </trkpt>
      <trkpt lat="45.28777" lon="5.83303">
        <ele>1019</ele>
        <time>2011-06-26T16:27:48Z</time>
      </trkpt>
      <trkpt lat="45.28782" lon="5.83301">
        <ele>1020</ele>
        <time>2011-06-26T16:27:52Z</time>
      </trkpt>
      <trkpt lat="45.28789" lon="5.83296">
        <ele>1020</ele>
        <time>2011-06-26T16:27:56Z</time>
      </trkpt>
      <trkpt lat="45.28794" lon="5.8329">
        <ele>1019</ele>
        <time>2011-06-26T16:28:00Z</time>
      </trkpt>
      <trkpt lat="45.28798" lon="5.83286">
        <ele>1019</ele>
        <time>2011-06-26T16:28:04Z</time>
      </trkpt>
      <trkpt lat="45.28802" lon="5.83281">
        <ele>1018</ele>
        <time>2011-06-26T16:28:08Z</time>
      </trkpt>
      <trkpt lat="45.28807" lon="5.83276">
        <ele>1018</ele>
        <time>2011-06-26T16:28:12Z</time>
      </trkpt>
      <trkpt lat="45.28808" lon="5.83276">
        <ele>1018</ele>
        <time>2011-06-26T16:28:16Z</time>
      </trkpt>
      <trkpt lat="45.28809" lon="5.83273">
        <ele>1017</ele>
        <time>2011-06-26T16:28:20Z</time>
      </trkpt>
      <trkpt lat="45.28808" lon="5.83275">
        <ele>1018</ele>
        <time>2011-06-26T16:28:24Z</time>
      </trkpt>
      <trkpt lat="45.28808" lon="5.83277">
        <ele>1018</ele>
        <time>2011-06-26T16:28:28Z</time>
      </trkpt>
      <trkpt lat="45.28806" lon="5.83279">
        <ele>1018</ele>
        <time>2011-06-26T16:28:32Z</time>
      </trkpt>
      <trkpt lat="45.28803" lon="5.8328">
        <ele>1018</ele>
        <time>2011-06-26T16:28:36Z</time>
      </trkpt>
      <trkpt lat="45.28799" lon="5.83282">
        <ele>1018</ele>
        <time>2011-06-26T16:28:40Z</time>
      </trkpt>
      <trkpt lat="45.28798" lon="5.83286">
        <ele>1019</ele>
        <time>2011-06-26T16:28:44Z</time>
      </trkpt>
      <trkpt lat="45.28796" lon="5.8329">
        <ele>1019</ele>
        <time>2011-06-26T16:28:48Z</time>
      </trkpt>
      <trkpt lat="45.28794" lon="5.83294">
        <ele>1020</ele>
        <time>2011-06-26T16:28:52Z</time>
      </trkpt>
      <trkpt lat="45.28793" lon="5.83298">
        <ele>1021</ele>
        <time>2011-06-26T16:28:56Z</time>
      </trkpt>
      <trkpt lat="45.28791" lon="5.83302">
        <ele>1021</ele>
        <time>2011-06-26T16:29:00Z</time>
      </trkpt>
      <trkpt lat="45.28788" lon="5.83305">
        <ele>1022</ele>
        <time>2011-06-26T16:29:04Z</time>
      </trkpt>
      <trkpt lat="45.28786" lon="5.83306">
        <ele>1021</ele>
        <time>2011-06-26T16:29:08Z</time>
      </trkpt>
      <trkpt lat="45.28783" lon="5.83308">
        <ele>1021</ele>
        <time>2011-06-26T16:29:12Z</time>
      </trkpt>
      <trkpt lat="45.2878" lon="5.83309">
        <ele>1021</ele>
        <time>2011-06-26T16:29:16Z</time>
      </trkpt>
      <trkpt lat="45.28776" lon="5.83311">
        <ele>1021</ele>
        <time>2011-06-26T16:29:20Z</time>
      </trkpt>
      <trkpt lat="45.28772" lon="5.83314">
        <ele>1021</ele>
        <time>2011-06-26T16:29:24Z</time>
      </trkpt>
      <trkpt lat="45.28769" lon="5.83317">
        <ele>1021</ele>
        <time>2011-06-26T16:29:28Z</time>
      </trkpt>
      <trkpt lat="45.28766" lon="5.8332">
        <ele>1022</ele>
        <time>2011-06-26T16:29:32Z</time>
      </trkpt>
      <trkpt lat="45.28764" lon="5.83325">
        <ele>1023</ele>
        <time>2011-06-26T16:29:36Z</time>
      </trkpt>
      <trkpt lat="45.28763" lon="5.83334">
        <ele>1040</ele>
        <time>2011-06-26T16:29:40Z</time>
      </trkpt>
      <trkpt lat="45.28762" lon="5.83344">
        <ele>1043</ele>
        <time>2011-06-26T16:29:44Z</time>
      </trkpt>
      <trkpt lat="45.28758" lon="5.83354">
        <ele>1047</ele>
        <time>2011-06-26T16:29:48Z</time>
      </trkpt>
      <trkpt lat="45.28754" lon="5.83358">
        <ele>1049</ele>
        <time>2011-06-26T16:29:52Z</time>
      </trkpt>
      <trkpt lat="45.28751" lon="5.83361">
        <ele>1050</ele>
        <time>2011-06-26T16:29:56Z</time>
      </trkpt>
      <trkpt lat="45.28748" lon="5.83363">
        <ele>1027</ele>
        <time>2011-06-26T16:30:00Z</time>
      </trkpt>
      <trkpt lat="45.28745" lon="5.83367">
        <ele>1027</ele>
        <time>2011-06-26T16:30:04Z</time>
      </trkpt>
      <trkpt lat="45.28741" lon="5.83369">
        <ele>1027</ele>
        <time>2011-06-26T16:30:08Z</time>
      </trkpt>
      <trkpt lat="45.28739" lon="5.83375">
        <ele>1029</ele>
        <time>2011-06-26T16:30:12Z</time>
      </trkpt>
      <trkpt lat="45.28737" lon="5.83383">
        <ele>1031</ele>
        <time>2011-06-26T16:30:16Z</time>
      </trkpt>
      <trkpt lat="45.28733" lon="5.83387">
        <ele>1032</ele>
        <time>2011-06-26T16:30:20Z</time>
      </trkpt>
      <trkpt lat="45.28729" lon="5.83392">
        <ele>1032</ele>
        <time>2011-06-26T16:30:24Z</time>
      </trkpt>
      <trkpt lat="45.28726" lon="5.83396">
        <ele>1033</ele>
        <time>2011-06-26T16:30:28Z</time>
      </trkpt>
      <trkpt lat="45.28725" lon="5.83404">
        <ele>1035</ele>
        <time>2011-06-26T16:30:33Z</time>
      </trkpt>
      <trkpt lat="45.28724" lon="5.83412">
        <ele>1036</ele>
        <time>2011-06-26T16:30:36Z</time>
      </trkpt>
      <trkpt lat="45.28723" lon="5.83421">
        <ele>1059</ele>
        <time>2011-06-26T16:30:40Z</time>
      </trkpt>
      <trkpt lat="45.28725" lon="5.83425">
        <ele>1059</ele>
        <time>2011-06-26T16:30:44Z</time>
      </trkpt>
      <trkpt lat="45.28727" lon="5.83426">
        <ele>1060</ele>
        <time>2011-06-26T16:30:48Z</time>
      </trkpt>
      <trkpt lat="45.28731" lon="5.83422">
        <ele>1061</ele>
        <time>2011-06-26T16:30:52Z</time>
      </trkpt>
      <trkpt lat="45.28733" lon="5.8342">
        <ele>1061</ele>
        <time>2011-06-26T16:30:56Z</time>
      </trkpt>
      <trkpt lat="45.28735" lon="5.83418">
        <ele>1061</ele>
        <time>2011-06-26T16:31:00Z</time>
      </trkpt>
      <trkpt lat="45.28738" lon="5.83414">
        <ele>1048</ele>
        <time>2011-06-26T16:31:04Z</time>
      </trkpt>
      <trkpt lat="45.2874" lon="5.83412">
        <ele>1049</ele>
        <time>2011-06-26T16:31:08Z</time>
      </trkpt>
      <trkpt lat="45.28741" lon="5.83409">
        <ele>1048</ele>
        <time>2011-06-26T16:31:12Z</time>
      </trkpt>
      <trkpt lat="45.28744" lon="5.83408">
        <ele>1049</ele>
        <time>2011-06-26T16:31:16Z</time>
      </trkpt>
      <trkpt lat="45.28747" lon="5.83404">
        <ele>1047</ele>
        <time>2011-06-26T16:31:20Z</time>
      </trkpt>
      <trkpt lat="45.28753" lon="5.83399">
        <ele>1063</ele>
        <time>2011-06-26T16:31:24Z</time>
      </trkpt>
      <trkpt lat="45.28755" lon="5.83397">
        <ele>1062</ele>
        <time>2011-06-26T16:31:28Z</time>
      </trkpt>
      <trkpt lat="45.28758" lon="5.83394">
        <ele>1062</ele>
        <time>2011-06-26T16:31:32Z</time>
      </trkpt>
      <trkpt lat="45.28757" lon="5.83392">
        <ele>1062</ele>
        <time>2011-06-26T16:31:36Z</time>
      </trkpt>
      <trkpt lat="45.28755" lon="5.83391">
        <ele>1061</ele>
        <time>2011-06-26T16:31:40Z</time>
      </trkpt>
      <trkpt lat="45.28758" lon="5.83387">
        <ele>1061</ele>
        <time>2011-06-26T16:31:44Z</time>
      </trkpt>
      <trkpt lat="45.28764" lon="5.83385">
        <ele>1061</ele>
        <time>2011-06-26T16:31:48Z</time>
      </trkpt>
      <trkpt lat="45.2877" lon="5.83384">
        <ele>1061</ele>
        <time>2011-06-26T16:31:52Z</time>
      </trkpt>
      <trkpt lat="45.28775" lon="5.83382">
        <ele>1062</ele>
        <time>2011-06-26T16:31:56Z</time>
      </trkpt>
      <trkpt lat="45.2878" lon="5.8338">
        <ele>1062</ele>
        <time>2011-06-26T16:32:00Z</time>
      </trkpt>
      <trkpt lat="45.28785" lon="5.83381">
        <ele>1064</ele>
        <time>2011-06-26T16:32:04Z</time>
      </trkpt>
      <trkpt lat="45.28787" lon="5.8338">
        <ele>1064</ele>
        <time>2011-06-26T16:32:08Z</time>
      </trkpt>
      <trkpt lat="45.28792" lon="5.83375">
        <ele>1064</ele>
        <time>2011-06-26T16:32:12Z</time>
      </trkpt>
      <trkpt lat="45.28797" lon="5.8337">
        <ele>1063</ele>
        <time>2011-06-26T16:32:16Z</time>
      </trkpt>
      <trkpt lat="45.28803" lon="5.83361">
        <ele>1062</ele>
        <time>2011-06-26T16:32:21Z</time>
      </trkpt>
      <trkpt lat="45.28805" lon="5.83358">
        <ele>1062</ele>
        <time>2011-06-26T16:32:24Z</time>
      </trkpt>
      <trkpt lat="45.28808" lon="5.83358">
        <ele>1062</ele>
        <time>2011-06-26T16:32:34Z</time>
      </trkpt>
      <trkpt lat="45.28809" lon="5.8336">
        <ele>1063</ele>
        <time>2011-06-26T16:32:36Z</time>
      </trkpt>
      <trkpt lat="45.28811" lon="5.83361">
        <ele>1063</ele>
        <time>2011-06-26T16:32:40Z</time>
      </trkpt>
      <trkpt lat="45.28813" lon="5.83359">
        <ele>1063</ele>
        <time>2011-06-26T16:32:44Z</time>
      </trkpt>
      <trkpt lat="45.28815" lon="5.83356">
        <ele>1062</ele>
        <time>2011-06-26T16:32:48Z</time>
      </trkpt>
      <trkpt lat="45.28815" lon="5.83355">
        <ele>1062</ele>
        <time>2011-06-26T16:32:52Z</time>
      </trkpt>
      <trkpt lat="45.28815" lon="5.83356">
        <ele>1062</ele>
        <time>2011-06-26T16:32:56Z</time>
      </trkpt>
      <trkpt lat="45.28814" lon="5.83357">
        <ele>1062</ele>
        <time>2011-06-26T16:33:00Z</time>
      </trkpt>
      <trkpt lat="45.28813" lon="5.83358">
        <ele>1063</ele>
        <time>2011-06-26T16:33:04Z</time>
      </trkpt>
      <trkpt lat="45.28811" lon="5.83363">
        <ele>1064</ele>
        <time>2011-06-26T16:33:08Z</time>
      </trkpt>
      <trkpt lat="45.28809" lon="5.83369">
        <ele>1065</ele>
        <time>2011-06-26T16:33:12Z</time>
      </trkpt>
      <trkpt lat="45.28807" lon="5.83374">
        <ele>1067</ele>
        <time>2011-06-26T16:33:16Z</time>
      </trkpt>
      <trkpt lat="45.28803" lon="5.83377">
        <ele>1067</ele>
        <time>2011-06-26T16:33:20Z</time>
      </trkpt>
      <trkpt lat="45.28799" lon="5.83379">
        <ele>1066</ele>
        <time>2011-06-26T16:33:24Z</time>
      </trkpt>
      <trkpt lat="45.28798" lon="5.83381">
        <ele>1067</ele>
        <time>2011-06-26T16:33:28Z</time>
      </trkpt>
      <trkpt lat="45.288" lon="5.83378">
        <ele>1066</ele>
        <time>2011-06-26T16:33:32Z</time>
      </trkpt>
      <trkpt lat="45.28801" lon="5.83378">
        <ele>1067</ele>
        <time>2011-06-26T16:33:36Z</time>
      </trkpt>
      <trkpt lat="45.28801" lon="5.83379">
        <ele>1067</ele>
        <time>2011-06-26T16:33:40Z</time>
      </trkpt>
      <trkpt lat="45.28803" lon="5.83382">
        <ele>1068</ele>
        <time>2011-06-26T16:33:49Z</time>
      </trkpt>
      <trkpt lat="45.28806" lon="5.8338">
        <ele>1068</ele>
        <time>2011-06-26T16:33:52Z</time>
      </trkpt>
      <trkpt lat="45.28809" lon="5.83377">
        <ele>1068</ele>
        <time>2011-06-26T16:33:56Z</time>
      </trkpt>
      <trkpt lat="45.28811" lon="5.83376">
        <ele>1068</ele>
        <time>2011-06-26T16:34:00Z</time>
      </trkpt>
      <trkpt lat="45.28811" lon="5.83377">
        <ele>1068</ele>
        <time>2011-06-26T16:34:04Z</time>
      </trkpt>
      <trkpt lat="45.28816" lon="5.83376">
        <ele>1069</ele>
        <time>2011-06-26T16:34:08Z</time>
      </trkpt>
      <trkpt lat="45.28818" lon="5.83377">
        <ele>1070</ele>
        <time>2011-06-26T16:34:12Z</time>
      </trkpt>
      <trkpt lat="45.28825" lon="5.8337">
        <ele>1068</ele>
        <time>2011-06-26T16:34:24Z</time>
      </trkpt>
      <trkpt lat="45.28832" lon="5.83368">
        <ele>1067</ele>
        <time>2011-06-26T16:34:28Z</time>
      </trkpt>
      <trkpt lat="45.28839" lon="5.83366">
        <ele>1089</ele>
        <time>2011-06-26T16:34:32Z</time>
      </trkpt>
      <trkpt lat="45.28839" lon="5.83365">
        <ele>1089</ele>
        <time>2011-06-26T16:34:36Z</time>
      </trkpt>
      <trkpt lat="45.28839" lon="5.83365">
        <ele>1089</ele>
        <time>2011-06-26T16:34:40Z</time>
      </trkpt>
      <trkpt lat="45.28839" lon="5.83365">
        <ele>1089</ele>
        <time>2011-06-26T16:34:44Z</time>
      </trkpt>
      <trkpt lat="45.28839" lon="5.83367">
        <ele>1090</ele>
        <time>2011-06-26T16:34:48Z</time>
      </trkpt>
      <trkpt lat="45.28839" lon="5.83372">
        <ele>1093</ele>
        <time>2011-06-26T16:34:52Z</time>
      </trkpt>
      <trkpt lat="45.28839" lon="5.83375">
        <ele>1094</ele>
        <time>2011-06-26T16:34:56Z</time>
      </trkpt>
      <trkpt lat="45.28836" lon="5.83376">
        <ele>1094</ele>
        <time>2011-06-26T16:35:00Z</time>
      </trkpt>
      <trkpt lat="45.28833" lon="5.83376">
        <ele>1071</ele>
        <time>2011-06-26T16:35:04Z</time>
      </trkpt>
      <trkpt lat="45.28831" lon="5.83378">
        <ele>1072</ele>
        <time>2011-06-26T16:35:08Z</time>
      </trkpt>
      <trkpt lat="45.28828" lon="5.83381">
        <ele>1073</ele>
        <time>2011-06-26T16:35:12Z</time>
      </trkpt>
      <trkpt lat="45.28825" lon="5.83387">
        <ele>1076</ele>
        <time>2011-06-26T16:35:16Z</time>
      </trkpt>
      <trkpt lat="45.28823" lon="5.83391">
        <ele>1078</ele>
        <time>2011-06-26T16:35:20Z</time>
      </trkpt>
      <trkpt lat="45.2882" lon="5.83395">
        <ele>1079</ele>
        <time>2011-06-26T16:35:24Z</time>
      </trkpt>
      <trkpt lat="45.28817" lon="5.83399">
        <ele>1080</ele>
        <time>2011-06-26T16:35:28Z</time>
      </trkpt>
      <trkpt lat="45.28814" lon="5.83404">
        <ele>1081</ele>
        <time>2011-06-26T16:35:32Z</time>
      </trkpt>
      <trkpt lat="45.28811" lon="5.83409">
        <ele>1081</ele>
        <time>2011-06-26T16:35:36Z</time>
      </trkpt>
      <trkpt lat="45.28811" lon="5.83414">
        <ele>1082</ele>
        <time>2011-06-26T16:35:40Z</time>
      </trkpt>
      <trkpt lat="45.28812" lon="5.83416">
        <ele>1083</ele>
        <time>2011-06-26T16:35:44Z</time>
      </trkpt>
      <trkpt lat="45.28814" lon="5.83418">
        <ele>1107</ele>
        <time>2011-06-26T16:35:48Z</time>
      </trkpt>
      <trkpt lat="45.28814" lon="5.83419">
        <ele>1107</ele>
        <time>2011-06-26T16:35:52Z</time>
      </trkpt>
      <trkpt lat="45.28815" lon="5.83421">
        <ele>1107</ele>
        <time>2011-06-26T16:35:56Z</time>
      </trkpt>
      <trkpt lat="45.28817" lon="5.8342">
        <ele>1108</ele>
        <time>2011-06-26T16:36:00Z</time>
      </trkpt>
      <trkpt lat="45.28819" lon="5.8342">
        <ele>1108</ele>
        <time>2011-06-26T16:36:04Z</time>
      </trkpt>
      <trkpt lat="45.28819" lon="5.83419">
        <ele>1108</ele>
        <time>2011-06-26T16:36:08Z</time>
      </trkpt>
      <trkpt lat="45.28823" lon="5.83419">
        <ele>1108</ele>
        <time>2011-06-26T16:36:12Z</time>
      </trkpt>
      <trkpt lat="45.28827" lon="5.83419">
        <ele>1109</ele>
        <time>2011-06-26T16:36:17Z</time>
      </trkpt>
      <trkpt lat="45.28831" lon="5.83417">
        <ele>1109</ele>
        <time>2011-06-26T16:36:20Z</time>
      </trkpt>
      <trkpt lat="45.28834" lon="5.83418">
        <ele>1110</ele>
        <time>2011-06-26T16:36:24Z</time>
      </trkpt>
      <trkpt lat="45.28834" lon="5.83418">
        <ele>1111</ele>
        <time>2011-06-26T16:36:28Z</time>
      </trkpt>
      <trkpt lat="45.28836" lon="5.83416">
        <ele>1108</ele>
        <time>2011-06-26T16:36:32Z</time>
      </trkpt>
      <trkpt lat="45.28837" lon="5.83415">
        <ele>1108</ele>
        <time>2011-06-26T16:36:36Z</time>
      </trkpt>
      <trkpt lat="45.2884" lon="5.83412">
        <ele>1107</ele>
        <time>2011-06-26T16:36:40Z</time>
      </trkpt>
      <trkpt lat="45.28845" lon="5.83408">
        <ele>1106</ele>
        <time>2011-06-26T16:36:44Z</time>
      </trkpt>
      <trkpt lat="45.28852" lon="5.83404">
        <ele>1105</ele>
        <time>2011-06-26T16:36:48Z</time>
      </trkpt>
      <trkpt lat="45.28858" lon="5.83401">
        <ele>1105</ele>
        <time>2011-06-26T16:36:52Z</time>
      </trkpt>
      <trkpt lat="45.28864" lon="5.83398">
        <ele>1105</ele>
        <time>2011-06-26T16:36:56Z</time>
      </trkpt>
      <trkpt lat="45.28868" lon="5.83399">
        <ele>1106</ele>
        <time>2011-06-26T16:37:00Z</time>
      </trkpt>
      <trkpt lat="45.28868" lon="5.83397">
        <ele>1105</ele>
        <time>2011-06-26T16:37:04Z</time>
      </trkpt>
      <trkpt lat="45.28869" lon="5.83398">
        <ele>1106</ele>
        <time>2011-06-26T16:37:08Z</time>
      </trkpt>
      <trkpt lat="45.28869" lon="5.834">
        <ele>1106</ele>
        <time>2011-06-26T16:37:12Z</time>
      </trkpt>
      <trkpt lat="45.28869" lon="5.83401">
        <ele>1107</ele>
        <time>2011-06-26T16:37:16Z</time>
      </trkpt>
      <trkpt lat="45.28867" lon="5.83403">
        <ele>1107</ele>
        <time>2011-06-26T16:37:20Z</time>
      </trkpt>
      <trkpt lat="45.28866" lon="5.83406">
        <ele>1107</ele>
        <time>2011-06-26T16:37:24Z</time>
      </trkpt>
      <trkpt lat="45.28864" lon="5.83408">
        <ele>1107</ele>
        <time>2011-06-26T16:37:28Z</time>
      </trkpt>
      <trkpt lat="45.28862" lon="5.83412">
        <ele>1107</ele>
        <time>2011-06-26T16:37:32Z</time>
      </trkpt>
      <trkpt lat="45.2886" lon="5.83413">
        <ele>1107</ele>
        <time>2011-06-26T16:37:36Z</time>
      </trkpt>
      <trkpt lat="45.28856" lon="5.83414">
        <ele>1107</ele>
        <time>2011-06-26T16:37:40Z</time>
      </trkpt>
      <trkpt lat="45.28854" lon="5.83418">
        <ele>1131</ele>
        <time>2011-06-26T16:37:44Z</time>
      </trkpt>
      <trkpt lat="45.2885" lon="5.83422">
        <ele>1129</ele>
        <time>2011-06-26T16:37:48Z</time>
      </trkpt>
      <trkpt lat="45.28847" lon="5.83427">
        <ele>1129</ele>
        <time>2011-06-26T16:37:52Z</time>
      </trkpt>
      <trkpt lat="45.28845" lon="5.83433">
        <ele>1132</ele>
        <time>2011-06-26T16:37:56Z</time>
      </trkpt>
      <trkpt lat="45.28843" lon="5.83439">
        <ele>1135</ele>
        <time>2011-06-26T16:38:00Z</time>
      </trkpt>
      <trkpt lat="45.2884" lon="5.83445">
        <ele>1138</ele>
        <time>2011-06-26T16:38:04Z</time>
      </trkpt>
      <trkpt lat="45.28838" lon="5.83452">
        <ele>1141</ele>
        <time>2011-06-26T16:38:08Z</time>
      </trkpt>
      <trkpt lat="45.28834" lon="5.83458">
        <ele>1143</ele>
        <time>2011-06-26T16:38:12Z</time>
      </trkpt>
      <trkpt lat="45.28831" lon="5.83464">
        <ele>1119</ele>
        <time>2011-06-26T16:38:16Z</time>
      </trkpt>
      <trkpt lat="45.28827" lon="5.83469">
        <ele>1121</ele>
        <time>2011-06-26T16:38:20Z</time>
      </trkpt>
      <trkpt lat="45.28823" lon="5.83472">
        <ele>1122</ele>
        <time>2011-06-26T16:38:24Z</time>
      </trkpt>
      <trkpt lat="45.28819" lon="5.83475">
        <ele>1122</ele>
        <time>2011-06-26T16:38:28Z</time>
      </trkpt>
      <trkpt lat="45.28817" lon="5.83478">
        <ele>1123</ele>
        <time>2011-06-26T16:38:32Z</time>
      </trkpt>
      <trkpt lat="45.2882" lon="5.83477">
        <ele>1124</ele>
        <time>2011-06-26T16:38:36Z</time>
      </trkpt>
      <trkpt lat="45.28819" lon="5.8348">
        <ele>1125</ele>
        <time>2011-06-26T16:38:40Z</time>
      </trkpt>
      <trkpt lat="45.28818" lon="5.83484">
        <ele>1128</ele>
        <time>2011-06-26T16:38:44Z</time>
      </trkpt>
      <trkpt lat="45.28818" lon="5.83489">
        <ele>1130</ele>
        <time>2011-06-26T16:38:49Z</time>
      </trkpt>
      <trkpt lat="45.2882" lon="5.83488">
        <ele>1131</ele>
        <time>2011-06-26T16:38:52Z</time>
      </trkpt>
      <trkpt lat="45.28822" lon="5.83489">
        <ele>1132</ele>
        <time>2011-06-26T16:38:56Z</time>
      </trkpt>
      <trkpt lat="45.28823" lon="5.83487">
        <ele>1132</ele>
        <time>2011-06-26T16:39:00Z</time>
      </trkpt>
      <trkpt lat="45.28827" lon="5.83484">
        <ele>1131</ele>
        <time>2011-06-26T16:39:04Z</time>
      </trkpt>
      <trkpt lat="45.28833" lon="5.83483">
        <ele>1132</ele>
        <time>2011-06-26T16:39:08Z</time>
      </trkpt>
      <trkpt lat="45.28838" lon="5.8348">
        <ele>1150</ele>
        <time>2011-06-26T16:39:12Z</time>
      </trkpt>
      <trkpt lat="45.28845" lon="5.83478">
        <ele>1150</ele>
        <time>2011-06-26T16:39:16Z</time>
      </trkpt>
      <trkpt lat="45.28849" lon="5.83474">
        <ele>1150</ele>
        <time>2011-06-26T16:39:20Z</time>
      </trkpt>
      <trkpt lat="45.28851" lon="5.83471">
        <ele>1149</ele>
        <time>2011-06-26T16:39:24Z</time>
      </trkpt>
      <trkpt lat="45.28854" lon="5.83468">
        <ele>1149</ele>
        <time>2011-06-26T16:39:28Z</time>
      </trkpt>
      <trkpt lat="45.28858" lon="5.83465">
        <ele>1148</ele>
        <time>2011-06-26T16:39:32Z</time>
      </trkpt>
      <trkpt lat="45.28863" lon="5.83461">
        <ele>1148</ele>
        <time>2011-06-26T16:39:36Z</time>
      </trkpt>
      <trkpt lat="45.28867" lon="5.83459">
        <ele>1149</ele>
        <time>2011-06-26T16:39:40Z</time>
      </trkpt>
      <trkpt lat="45.28871" lon="5.83458">
        <ele>1149</ele>
        <time>2011-06-26T16:39:44Z</time>
      </trkpt>
      <trkpt lat="45.28876" lon="5.83457">
        <ele>1150</ele>
        <time>2011-06-26T16:39:48Z</time>
      </trkpt>
      <trkpt lat="45.2888" lon="5.83456">
        <ele>1151</ele>
        <time>2011-06-26T16:39:52Z</time>
      </trkpt>
      <trkpt lat="45.28886" lon="5.83455">
        <ele>1152</ele>
        <time>2011-06-26T16:39:56Z</time>
      </trkpt>
      <trkpt lat="45.28891" lon="5.83455">
        <ele>1153</ele>
        <time>2011-06-26T16:40:00Z</time>
      </trkpt>
      <trkpt lat="45.28895" lon="5.83453">
        <ele>1153</ele>
        <time>2011-06-26T16:40:04Z</time>
      </trkpt>
      <trkpt lat="45.28897" lon="5.83454">
        <ele>1153</ele>
        <time>2011-06-26T16:40:08Z</time>
      </trkpt>
      <trkpt lat="45.28897" lon="5.83455">
        <ele>1154</ele>
        <time>2011-06-26T16:40:12Z</time>
      </trkpt>
      <trkpt lat="45.28896" lon="5.83454">
        <ele>1153</ele>
        <time>2011-06-26T16:40:16Z</time>
      </trkpt>
      <trkpt lat="45.28895" lon="5.83454">
        <ele>1153</ele>
        <time>2011-06-26T16:40:20Z</time>
      </trkpt>
      <trkpt lat="45.28893" lon="5.83455">
        <ele>1153</ele>
        <time>2011-06-26T16:40:24Z</time>
      </trkpt>
      <trkpt lat="45.28892" lon="5.83455">
        <ele>1153</ele>
        <time>2011-06-26T16:40:28Z</time>
      </trkpt>
      <trkpt lat="45.28891" lon="5.83458">
        <ele>1153</ele>
        <time>2011-06-26T16:40:32Z</time>
      </trkpt>
      <trkpt lat="45.28889" lon="5.83461">
        <ele>1154</ele>
        <time>2011-06-26T16:40:36Z</time>
      </trkpt>
      <trkpt lat="45.28886" lon="5.83463">
        <ele>1154</ele>
        <time>2011-06-26T16:40:40Z</time>
      </trkpt>
      <trkpt lat="45.28883" lon="5.83466">
        <ele>1154</ele>
        <time>2011-06-26T16:40:44Z</time>
      </trkpt>
      <trkpt lat="45.2888" lon="5.83469">
        <ele>1154</ele>
        <time>2011-06-26T16:40:48Z</time>
      </trkpt>
      <trkpt lat="45.28878" lon="5.83474">
        <ele>1155</ele>
        <time>2011-06-26T16:40:52Z</time>
      </trkpt>
      <trkpt lat="45.28878" lon="5.83481">
        <ele>1157</ele>
        <time>2011-06-26T16:40:56Z</time>
      </trkpt>
      <trkpt lat="45.28875" lon="5.83486">
        <ele>1157</ele>
        <time>2011-06-26T16:41:00Z</time>
      </trkpt>
      <trkpt lat="45.28871" lon="5.8349">
        <ele>1156</ele>
        <time>2011-06-26T16:41:04Z</time>
      </trkpt>
      <trkpt lat="45.28869" lon="5.83494">
        <ele>1156</ele>
        <time>2011-06-26T16:41:08Z</time>
      </trkpt>
      <trkpt lat="45.28866" lon="5.83499">
        <ele>1156</ele>
        <time>2011-06-26T16:41:12Z</time>
      </trkpt>
      <trkpt lat="45.28863" lon="5.83503">
        <ele>1181</ele>
        <time>2011-06-26T16:41:16Z</time>
      </trkpt>
      <trkpt lat="45.28861" lon="5.83508">
        <ele>1180</ele>
        <time>2011-06-26T16:41:20Z</time>
      </trkpt>
      <trkpt lat="45.28857" lon="5.83513">
        <ele>1179</ele>
        <time>2011-06-26T16:41:24Z</time>
      </trkpt>
      <trkpt lat="45.28852" lon="5.83516">
        <ele>1178</ele>
        <time>2011-06-26T16:41:28Z</time>
      </trkpt>
      <trkpt lat="45.28849" lon="5.83524">
        <ele>1181</ele>
        <time>2011-06-26T16:41:32Z</time>
      </trkpt>
      <trkpt lat="45.28846" lon="5.83531">
        <ele>1183</ele>
        <time>2011-06-26T16:41:36Z</time>
      </trkpt>
      <trkpt lat="45.28842" lon="5.83538">
        <ele>1185</ele>
        <time>2011-06-26T16:41:40Z</time>
      </trkpt>
      <trkpt lat="45.2884" lon="5.83546">
        <ele>1188</ele>
        <time>2011-06-26T16:41:44Z</time>
      </trkpt>
      <trkpt lat="45.28838" lon="5.83554">
        <ele>1190</ele>
        <time>2011-06-26T16:41:48Z</time>
      </trkpt>
      <trkpt lat="45.28835" lon="5.83561">
        <ele>1191</ele>
        <time>2011-06-26T16:41:52Z</time>
      </trkpt>
      <trkpt lat="45.28832" lon="5.83568">
        <ele>1176</ele>
        <time>2011-06-26T16:41:56Z</time>
      </trkpt>
      <trkpt lat="45.28829" lon="5.83576">
        <ele>1182</ele>
        <time>2011-06-26T16:42:00Z</time>
      </trkpt>
      <trkpt lat="45.28826" lon="5.83581">
        <ele>1183</ele>
        <time>2011-06-26T16:42:04Z</time>
      </trkpt>
      <trkpt lat="45.28822" lon="5.83586">
        <ele>1191</ele>
        <time>2011-06-26T16:42:08Z</time>
      </trkpt>
      <trkpt lat="45.28817" lon="5.8359">
        <ele>1190</ele>
        <time>2011-06-26T16:42:12Z</time>
      </trkpt>
      <trkpt lat="45.28814" lon="5.83592">
        <ele>1190</ele>
        <time>2011-06-26T16:42:16Z</time>
      </trkpt>
      <trkpt lat="45.28811" lon="5.83595">
        <ele>1189</ele>
        <time>2011-06-26T16:42:20Z</time>
      </trkpt>
      <trkpt lat="45.28809" lon="5.83599">
        <ele>1189</ele>
        <time>2011-06-26T16:42:24Z</time>
      </trkpt>
      <trkpt lat="45.28806" lon="5.83606">
        <ele>1189</ele>
        <time>2011-06-26T16:42:28Z</time>
      </trkpt>
      <trkpt lat="45.28804" lon="5.83612">
        <ele>1189</ele>
        <time>2011-06-26T16:42:32Z</time>
      </trkpt>
      <trkpt lat="45.28801" lon="5.83617">
        <ele>1189</ele>
        <time>2011-06-26T16:42:36Z</time>
      </trkpt>
      <trkpt lat="45.28798" lon="5.83621">
        <ele>1189</ele>
        <time>2011-06-26T16:42:40Z</time>
      </trkpt>
      <trkpt lat="45.28794" lon="5.83626">
        <ele>1189</ele>
        <time>2011-06-26T16:42:44Z</time>
      </trkpt>
      <trkpt lat="45.28791" lon="5.83633">
        <ele>1190</ele>
        <time>2011-06-26T16:42:48Z</time>
      </trkpt>
      <trkpt lat="45.28787" lon="5.83639">
        <ele>1190</ele>
        <time>2011-06-26T16:42:52Z</time>
      </trkpt>
      <trkpt lat="45.28783" lon="5.83646">
        <ele>1191</ele>
        <time>2011-06-26T16:42:56Z</time>
      </trkpt>
      <trkpt lat="45.28779" lon="5.83654">
        <ele>1191</ele>
        <time>2011-06-26T16:43:00Z</time>
      </trkpt>
      <trkpt lat="45.28775" lon="5.83662">
        <ele>1191</ele>
        <time>2011-06-26T16:43:04Z</time>
      </trkpt>
      <trkpt lat="45.28771" lon="5.83669">
        <ele>1201</ele>
        <time>2011-06-26T16:43:08Z</time>
      </trkpt>
      <trkpt lat="45.2877" lon="5.8368">
        <ele>1202</ele>
        <time>2011-06-26T16:43:12Z</time>
      </trkpt>
      <trkpt lat="45.28768" lon="5.8369">
        <ele>1203</ele>
        <time>2011-06-26T16:43:16Z</time>
      </trkpt>
      <trkpt lat="45.28766" lon="5.83699">
        <ele>1204</ele>
        <time>2011-06-26T16:43:20Z</time>
      </trkpt>
      <trkpt lat="45.28763" lon="5.83708">
        <ele>1205</ele>
        <time>2011-06-26T16:43:24Z</time>
      </trkpt>
      <trkpt lat="45.28759" lon="5.83717">
        <ele>1206</ele>
        <time>2011-06-26T16:43:28Z</time>
      </trkpt>
      <trkpt lat="45.28759" lon="5.83722">
        <ele>1206</ele>
        <time>2011-06-26T16:43:32Z</time>
      </trkpt>
      <trkpt lat="45.28761" lon="5.83725">
        <ele>1207</ele>
        <time>2011-06-26T16:43:36Z</time>
      </trkpt>
      <trkpt lat="45.28766" lon="5.83732">
        <ele>1207</ele>
        <time>2011-06-26T16:43:40Z</time>
      </trkpt>
      <trkpt lat="45.28772" lon="5.8374">
        <ele>1208</ele>
        <time>2011-06-26T16:43:44Z</time>
      </trkpt>
      <trkpt lat="45.28777" lon="5.83745">
        <ele>1208</ele>
        <time>2011-06-26T16:43:48Z</time>
      </trkpt>
      <trkpt lat="45.28782" lon="5.83749">
        <ele>1208</ele>
        <time>2011-06-26T16:43:52Z</time>
      </trkpt>
      <trkpt lat="45.28787" lon="5.83755">
        <ele>1207</ele>
        <time>2011-06-26T16:43:56Z</time>
      </trkpt>
      <trkpt lat="45.28792" lon="5.83762">
        <ele>1207</ele>
        <time>2011-06-26T16:44:00Z</time>
      </trkpt>
      <trkpt lat="45.28794" lon="5.83767">
        <ele>1207</ele>
        <time>2011-06-26T16:44:04Z</time>
      </trkpt>
      <trkpt lat="45.288" lon="5.83771">
        <ele>1207</ele>
        <time>2011-06-26T16:44:08Z</time>
      </trkpt>
      <trkpt lat="45.28807" lon="5.83774">
        <ele>1207</ele>
        <time>2011-06-26T16:44:12Z</time>
      </trkpt>
      <trkpt lat="45.28812" lon="5.83779">
        <ele>1207</ele>
        <time>2011-06-26T16:44:16Z</time>
      </trkpt>
      <trkpt lat="45.28817" lon="5.83783">
        <ele>1207</ele>
        <time>2011-06-26T16:44:20Z</time>
      </trkpt>
      <trkpt lat="45.28821" lon="5.83785">
        <ele>1207</ele>
        <time>2011-06-26T16:44:24Z</time>
      </trkpt>
      <trkpt lat="45.28826" lon="5.83788">
        <ele>1206</ele>
        <time>2011-06-26T16:44:28Z</time>
      </trkpt>
      <trkpt lat="45.28833" lon="5.83794">
        <ele>1205</ele>
        <time>2011-06-26T16:44:32Z</time>
      </trkpt>
      <trkpt lat="45.2884" lon="5.83801">
        <ele>1205</ele>
        <time>2011-06-26T16:44:36Z</time>
      </trkpt>
      <trkpt lat="45.28847" lon="5.83807">
        <ele>1204</ele>
        <time>2011-06-26T16:44:40Z</time>
      </trkpt>
      <trkpt lat="45.28852" lon="5.83811">
        <ele>1203</ele>
        <time>2011-06-26T16:44:44Z</time>
      </trkpt>
      <trkpt lat="45.28858" lon="5.83813">
        <ele>1203</ele>
        <time>2011-06-26T16:44:48Z</time>
      </trkpt>
      <trkpt lat="45.28864" lon="5.83817">
        <ele>1203</ele>
        <time>2011-06-26T16:44:52Z</time>
      </trkpt>
      <trkpt lat="45.28872" lon="5.8382">
        <ele>1203</ele>
        <time>2011-06-26T16:44:56Z</time>
      </trkpt>
      <trkpt lat="45.28882" lon="5.83829">
        <ele>1201</ele>
        <time>2011-06-26T16:45:00Z</time>
      </trkpt>
      <trkpt lat="45.28889" lon="5.83841">
        <ele>1185</ele>
        <time>2011-06-26T16:45:04Z</time>
      </trkpt>
      <trkpt lat="45.28895" lon="5.83848">
        <ele>1184</ele>
        <time>2011-06-26T16:45:08Z</time>
      </trkpt>
      <trkpt lat="45.28899" lon="5.83854">
        <ele>1183</ele>
        <time>2011-06-26T16:45:12Z</time>
      </trkpt>
      <trkpt lat="45.28904" lon="5.8386">
        <ele>1182</ele>
        <time>2011-06-26T16:45:16Z</time>
      </trkpt>
      <trkpt lat="45.28908" lon="5.83864">
        <ele>1182</ele>
        <time>2011-06-26T16:45:20Z</time>
      </trkpt>
      <trkpt lat="45.28916" lon="5.83865">
        <ele>1181</ele>
        <time>2011-06-26T16:45:24Z</time>
      </trkpt>
      <trkpt lat="45.28923" lon="5.83864">
        <ele>1179</ele>
        <time>2011-06-26T16:45:28Z</time>
      </trkpt>
      <trkpt lat="45.28929" lon="5.83866">
        <ele>1178</ele>
        <time>2011-06-26T16:45:32Z</time>
      </trkpt>
      <trkpt lat="45.28933" lon="5.83871">
        <ele>1177</ele>
        <time>2011-06-26T16:45:36Z</time>
      </trkpt>
      <trkpt lat="45.28935" lon="5.83876">
        <ele>1176</ele>
        <time>2011-06-26T16:45:40Z</time>
      </trkpt>
      <trkpt lat="45.28937" lon="5.8388">
        <ele>1175</ele>
        <time>2011-06-26T16:45:44Z</time>
      </trkpt>
      <trkpt lat="45.28939" lon="5.83885">
        <ele>1174</ele>
        <time>2011-06-26T16:45:48Z</time>
      </trkpt>
      <trkpt lat="45.28941" lon="5.8389">
        <ele>1173</ele>
        <time>2011-06-26T16:45:52Z</time>
      </trkpt>
      <trkpt lat="45.28946" lon="5.83899">
        <ele>1172</ele>
        <time>2011-06-26T16:45:56Z</time>
      </trkpt>
      <trkpt lat="45.28951" lon="5.83911">
        <ele>1171</ele>
        <time>2011-06-26T16:46:00Z</time>
      </trkpt>
      <trkpt lat="45.28953" lon="5.83921">
        <ele>1154</ele>
        <time>2011-06-26T16:46:04Z</time>
      </trkpt>
      <trkpt lat="45.28955" lon="5.8393">
        <ele>1153</ele>
        <time>2011-06-26T16:46:08Z</time>
      </trkpt>
      <trkpt lat="45.2896" lon="5.83943">
        <ele>1151</ele>
        <time>2011-06-26T16:46:12Z</time>
      </trkpt>
      <trkpt lat="45.28966" lon="5.83955">
        <ele>1150</ele>
        <time>2011-06-26T16:46:16Z</time>
      </trkpt>
      <trkpt lat="45.28971" lon="5.83964">
        <ele>1149</ele>
        <time>2011-06-26T16:46:20Z</time>
      </trkpt>
      <trkpt lat="45.28974" lon="5.83974">
        <ele>1147</ele>
        <time>2011-06-26T16:46:24Z</time>
      </trkpt>
      <trkpt lat="45.28977" lon="5.83987">
        <ele>1145</ele>
        <time>2011-06-26T16:46:28Z</time>
      </trkpt>
      <trkpt lat="45.28979" lon="5.84">
        <ele>1135</ele>
        <time>2011-06-26T16:46:32Z</time>
      </trkpt>
      <trkpt lat="45.28979" lon="5.84013">
        <ele>1134</ele>
        <time>2011-06-26T16:46:36Z</time>
      </trkpt>
      <trkpt lat="45.28981" lon="5.84022">
        <ele>1133</ele>
        <time>2011-06-26T16:46:40Z</time>
      </trkpt>
      <trkpt lat="45.28983" lon="5.84029">
        <ele>1132</ele>
        <time>2011-06-26T16:46:44Z</time>
      </trkpt>
      <trkpt lat="45.28984" lon="5.84039">
        <ele>1131</ele>
        <time>2011-06-26T16:46:48Z</time>
      </trkpt>
      <trkpt lat="45.28985" lon="5.84049">
        <ele>1129</ele>
        <time>2011-06-26T16:46:52Z</time>
      </trkpt>
      <trkpt lat="45.28981" lon="5.8406">
        <ele>1128</ele>
        <time>2011-06-26T16:46:56Z</time>
      </trkpt>
      <trkpt lat="45.28978" lon="5.84071">
        <ele>1127</ele>
        <time>2011-06-26T16:47:00Z</time>
      </trkpt>
      <trkpt lat="45.28978" lon="5.84081">
        <ele>1126</ele>
        <time>2011-06-26T16:47:04Z</time>
      </trkpt>
      <trkpt lat="45.28976" lon="5.84092">
        <ele>1118</ele>
        <time>2011-06-26T16:47:08Z</time>
      </trkpt>
      <trkpt lat="45.28974" lon="5.84106">
        <ele>1117</ele>
        <time>2011-06-26T16:47:12Z</time>
      </trkpt>
      <trkpt lat="45.28975" lon="5.8412">
        <ele>1115</ele>
        <time>2011-06-26T16:47:16Z</time>
      </trkpt>
      <trkpt lat="45.28975" lon="5.84132">
        <ele>1114</ele>
        <time>2011-06-26T16:47:20Z</time>
      </trkpt>
      <trkpt lat="45.28971" lon="5.84142">
        <ele>1113</ele>
        <time>2011-06-26T16:47:24Z</time>
      </trkpt>
      <trkpt lat="45.28964" lon="5.8415">
        <ele>1112</ele>
        <time>2011-06-26T16:47:28Z</time>
      </trkpt>
      <trkpt lat="45.28955" lon="5.84157">
        <ele>1112</ele>
        <time>2011-06-26T16:47:32Z</time>
      </trkpt>
      <trkpt lat="45.28945" lon="5.84162">
        <ele>1111</ele>
        <time>2011-06-26T16:47:36Z</time>
      </trkpt>
      <trkpt lat="45.28931" lon="5.84166">
        <ele>1109</ele>
        <time>2011-06-26T16:47:40Z</time>
      </trkpt>
      <trkpt lat="45.28921" lon="5.84171">
        <ele>1102</ele>
        <time>2011-06-26T16:47:44Z</time>
      </trkpt>
      <trkpt lat="45.28911" lon="5.8417">
        <ele>1102</ele>
        <time>2011-06-26T16:47:48Z</time>
      </trkpt>
      <trkpt lat="45.28901" lon="5.8417">
        <ele>1100</ele>
        <time>2011-06-26T16:47:52Z</time>
      </trkpt>
      <trkpt lat="45.28891" lon="5.84169">
        <ele>1100</ele>
        <time>2011-06-26T16:47:56Z</time>
      </trkpt>
      <trkpt lat="45.2888" lon="5.84174">
        <ele>1099</ele>
        <time>2011-06-26T16:48:00Z</time>
      </trkpt>
      <trkpt lat="45.28873" lon="5.84176">
        <ele>1099</ele>
        <time>2011-06-26T16:48:04Z</time>
      </trkpt>
      <trkpt lat="45.28865" lon="5.84179">
        <ele>1099</ele>
        <time>2011-06-26T16:48:08Z</time>
      </trkpt>
      <trkpt lat="45.28856" lon="5.84182">
        <ele>1099</ele>
        <time>2011-06-26T16:48:12Z</time>
      </trkpt>
      <trkpt lat="45.28847" lon="5.84185">
        <ele>1100</ele>
        <time>2011-06-26T16:48:16Z</time>
      </trkpt>
      <trkpt lat="45.28837" lon="5.84188">
        <ele>1100</ele>
        <time>2011-06-26T16:48:20Z</time>
      </trkpt>
      <trkpt lat="45.28828" lon="5.84191">
        <ele>1102</ele>
        <time>2011-06-26T16:48:24Z</time>
      </trkpt>
      <trkpt lat="45.28817" lon="5.84193">
        <ele>1102</ele>
        <time>2011-06-26T16:48:28Z</time>
      </trkpt>
      <trkpt lat="45.28807" lon="5.84196">
        <ele>1102</ele>
        <time>2011-06-26T16:48:32Z</time>
      </trkpt>
      <trkpt lat="45.28798" lon="5.84201">
        <ele>1101</ele>
        <time>2011-06-26T16:48:36Z</time>
      </trkpt>
      <trkpt lat="45.28792" lon="5.84209">
        <ele>1101</ele>
        <time>2011-06-26T16:48:40Z</time>
      </trkpt>
      <trkpt lat="45.28788" lon="5.84217">
        <ele>1100</ele>
        <time>2011-06-26T16:48:44Z</time>
      </trkpt>
      <trkpt lat="45.2878" lon="5.84217">
        <ele>1101</ele>
        <time>2011-06-26T16:48:48Z</time>
      </trkpt>
      <trkpt lat="45.28773" lon="5.84216">
        <ele>1101</ele>
        <time>2011-06-26T16:48:52Z</time>
      </trkpt>
      <trkpt lat="45.28772" lon="5.84216">
        <ele>1101</ele>
        <time>2011-06-26T16:48:56Z</time>
      </trkpt>
      <trkpt lat="45.28772" lon="5.84216">
        <ele>1101</ele>
        <time>2011-06-26T16:49:00Z</time>
      </trkpt>
      <trkpt lat="45.28767" lon="5.84219">
        <ele>1101</ele>
        <time>2011-06-26T16:49:04Z</time>
      </trkpt>
      <trkpt lat="45.28762" lon="5.8422">
        <ele>1101</ele>
        <time>2011-06-26T16:49:08Z</time>
      </trkpt>
      <trkpt lat="45.28756" lon="5.8422">
        <ele>1101</ele>
        <time>2011-06-26T16:49:12Z</time>
      </trkpt>
      <trkpt lat="45.28749" lon="5.84223">
        <ele>1105</ele>
        <time>2011-06-26T16:49:16Z</time>
      </trkpt>
      <trkpt lat="45.28744" lon="5.84227">
        <ele>1104</ele>
        <time>2011-06-26T16:49:20Z</time>
      </trkpt>
      <trkpt lat="45.28742" lon="5.84234">
        <ele>1103</ele>
        <time>2011-06-26T16:49:24Z</time>
      </trkpt>
      <trkpt lat="45.28738" lon="5.84241">
        <ele>1102</ele>
        <time>2011-06-26T16:49:28Z</time>
      </trkpt>
      <trkpt lat="45.2873" lon="5.84248">
        <ele>1103</ele>
        <time>2011-06-26T16:49:32Z</time>
      </trkpt>
      <trkpt lat="45.28726" lon="5.84257">
        <ele>1095</ele>
        <time>2011-06-26T16:49:36Z</time>
      </trkpt>
      <trkpt lat="45.28723" lon="5.84269">
        <ele>1095</ele>
        <time>2011-06-26T16:49:40Z</time>
      </trkpt>
      <trkpt lat="45.2872" lon="5.84277">
        <ele>1094</ele>
        <time>2011-06-26T16:49:44Z</time>
      </trkpt>
      <trkpt lat="45.28715" lon="5.84281">
        <ele>1094</ele>
        <time>2011-06-26T16:49:48Z</time>
      </trkpt>
      <trkpt lat="45.28714" lon="5.84285">
        <ele>1094</ele>
        <time>2011-06-26T16:49:52Z</time>
      </trkpt>
      <trkpt lat="45.2871" lon="5.84286">
        <ele>1094</ele>
        <time>2011-06-26T16:49:56Z</time>
      </trkpt>
      <trkpt lat="45.28705" lon="5.84291">
        <ele>1094</ele>
        <time>2011-06-26T16:50:00Z</time>
      </trkpt>
      <trkpt lat="45.28699" lon="5.84297">
        <ele>1094</ele>
        <time>2011-06-26T16:50:04Z</time>
      </trkpt>
      <trkpt lat="45.28694" lon="5.84298">
        <ele>1094</ele>
        <time>2011-06-26T16:50:08Z</time>
      </trkpt>
      <trkpt lat="45.2869" lon="5.84299">
        <ele>1094</ele>
        <time>2011-06-26T16:50:12Z</time>
      </trkpt>
      <trkpt lat="45.28686" lon="5.84299">
        <ele>1094</ele>
        <time>2011-06-26T16:50:16Z</time>
      </trkpt>
      <trkpt lat="45.28683" lon="5.84299">
        <ele>1094</ele>
        <time>2011-06-26T16:50:20Z</time>
      </trkpt>
      <trkpt lat="45.2868" lon="5.84299">
        <ele>1095</ele>
        <time>2011-06-26T16:50:24Z</time>
      </trkpt>
      <trkpt lat="45.28677" lon="5.84299">
        <ele>1095</ele>
        <time>2011-06-26T16:50:28Z</time>
      </trkpt>
      <trkpt lat="45.28673" lon="5.84298">
        <ele>1095</ele>
        <time>2011-06-26T16:50:32Z</time>
      </trkpt>
      <trkpt lat="45.2867" lon="5.84297">
        <ele>1095</ele>
        <time>2011-06-26T16:50:36Z</time>
      </trkpt>
      <trkpt lat="45.28668" lon="5.84296">
        <ele>1095</ele>
        <time>2011-06-26T16:50:40Z</time>
      </trkpt>
      <trkpt lat="45.28665" lon="5.84295">
        <ele>1102</ele>
        <time>2011-06-26T16:50:44Z</time>
      </trkpt>
      <trkpt lat="45.28662" lon="5.84296">
        <ele>1102</ele>
        <time>2011-06-26T16:50:48Z</time>
      </trkpt>
      <trkpt lat="45.28656" lon="5.84296">
        <ele>1103</ele>
        <time>2011-06-26T16:50:52Z</time>
      </trkpt>
      <trkpt lat="45.28653" lon="5.84298">
        <ele>1103</ele>
        <time>2011-06-26T16:50:56Z</time>
      </trkpt>
      <trkpt lat="45.28649" lon="5.843">
        <ele>1103</ele>
        <time>2011-06-26T16:51:00Z</time>
      </trkpt>
      <trkpt lat="45.28642" lon="5.84302">
        <ele>1103</ele>
        <time>2011-06-26T16:51:04Z</time>
      </trkpt>
      <trkpt lat="45.28635" lon="5.84305">
        <ele>1103</ele>
        <time>2011-06-26T16:51:08Z</time>
      </trkpt>
      <trkpt lat="45.28626" lon="5.84309">
        <ele>1104</ele>
        <time>2011-06-26T16:51:12Z</time>
      </trkpt>
      <trkpt lat="45.28618" lon="5.84314">
        <ele>1104</ele>
        <time>2011-06-26T16:51:16Z</time>
      </trkpt>
      <trkpt lat="45.28609" lon="5.8432">
        <ele>1104</ele>
        <time>2011-06-26T16:51:20Z</time>
      </trkpt>
      <trkpt lat="45.28598" lon="5.84326">
        <ele>1105</ele>
        <time>2011-06-26T16:51:24Z</time>
      </trkpt>
      <trkpt lat="45.28585" lon="5.84333">
        <ele>1105</ele>
        <time>2011-06-26T16:51:28Z</time>
      </trkpt>
      <trkpt lat="45.28574" lon="5.8434">
        <ele>1100</ele>
        <time>2011-06-26T16:51:32Z</time>
      </trkpt>
      <trkpt lat="45.28564" lon="5.84345">
        <ele>1097</ele>
        <time>2011-06-26T16:51:36Z</time>
      </trkpt>
      <trkpt lat="45.28556" lon="5.84353">
        <ele>1095</ele>
        <time>2011-06-26T16:51:40Z</time>
      </trkpt>
      <trkpt lat="45.28549" lon="5.84359">
        <ele>1094</ele>
        <time>2011-06-26T16:51:44Z</time>
      </trkpt>
      <trkpt lat="45.28539" lon="5.8436">
        <ele>1093</ele>
        <time>2011-06-26T16:51:48Z</time>
      </trkpt>
      <trkpt lat="45.28531" lon="5.84364">
        <ele>1093</ele>
        <time>2011-06-26T16:51:52Z</time>
      </trkpt>
      <trkpt lat="45.28523" lon="5.84367">
        <ele>1092</ele>
        <time>2011-06-26T16:51:56Z</time>
      </trkpt>
      <trkpt lat="45.28517" lon="5.84369">
        <ele>1092</ele>
        <time>2011-06-26T16:52:00Z</time>
      </trkpt>
      <trkpt lat="45.28511" lon="5.8437">
        <ele>1091</ele>
        <time>2011-06-26T16:52:04Z</time>
      </trkpt>
      <trkpt lat="45.28504" lon="5.84374">
        <ele>1091</ele>
        <time>2011-06-26T16:52:08Z</time>
      </trkpt>
      <trkpt lat="45.28496" lon="5.84376">
        <ele>1088</ele>
        <time>2011-06-26T16:52:12Z</time>
      </trkpt>
      <trkpt lat="45.28488" lon="5.84379">
        <ele>1087</ele>
        <time>2011-06-26T16:52:16Z</time>
      </trkpt>
      <trkpt lat="45.28479" lon="5.84383">
        <ele>1087</ele>
        <time>2011-06-26T16:52:20Z</time>
      </trkpt>
      <trkpt lat="45.2847" lon="5.84389">
        <ele>1087</ele>
        <time>2011-06-26T16:52:24Z</time>
      </trkpt>
      <trkpt lat="45.28461" lon="5.84393">
        <ele>1086</ele>
        <time>2011-06-26T16:52:28Z</time>
      </trkpt>
      <trkpt lat="45.2845" lon="5.84397">
        <ele>1086</ele>
        <time>2011-06-26T16:52:32Z</time>
      </trkpt>
      <trkpt lat="45.28443" lon="5.844">
        <ele>1085</ele>
        <time>2011-06-26T16:52:36Z</time>
      </trkpt>
      <trkpt lat="45.28433" lon="5.84404">
        <ele>1084</ele>
        <time>2011-06-26T16:52:40Z</time>
      </trkpt>
      <trkpt lat="45.28423" lon="5.84408">
        <ele>1083</ele>
        <time>2011-06-26T16:52:44Z</time>
      </trkpt>
      <trkpt lat="45.28416" lon="5.84412">
        <ele>1081</ele>
        <time>2011-06-26T16:52:48Z</time>
      </trkpt>
      <trkpt lat="45.2841" lon="5.84414">
        <ele>1082</ele>
        <time>2011-06-26T16:52:52Z</time>
      </trkpt>
      <trkpt lat="45.28402" lon="5.84416">
        <ele>1083</ele>
        <time>2011-06-26T16:52:56Z</time>
      </trkpt>
      <trkpt lat="45.28391" lon="5.84416">
        <ele>1084</ele>
        <time>2011-06-26T16:53:00Z</time>
      </trkpt>
      <trkpt lat="45.28382" lon="5.84418">
        <ele>1073</ele>
        <time>2011-06-26T16:53:04Z</time>
      </trkpt>
      <trkpt lat="45.28372" lon="5.84417">
        <ele>1072</ele>
        <time>2011-06-26T16:53:08Z</time>
      </trkpt>
      <trkpt lat="45.28366" lon="5.84417">
        <ele>1072</ele>
        <time>2011-06-26T16:53:12Z</time>
      </trkpt>
      <trkpt lat="45.28359" lon="5.84416">
        <ele>1083</ele>
        <time>2011-06-26T16:53:16Z</time>
      </trkpt>
      <trkpt lat="45.28353" lon="5.84415">
        <ele>1082</ele>
        <time>2011-06-26T16:53:20Z</time>
      </trkpt>
      <trkpt lat="45.28344" lon="5.84416">
        <ele>1081</ele>
        <time>2011-06-26T16:53:24Z</time>
      </trkpt>
      <trkpt lat="45.28337" lon="5.84416">
        <ele>1079</ele>
        <time>2011-06-26T16:53:28Z</time>
      </trkpt>
      <trkpt lat="45.28332" lon="5.84415">
        <ele>1079</ele>
        <time>2011-06-26T16:53:32Z</time>
      </trkpt>
      <trkpt lat="45.28323" lon="5.84416">
        <ele>1081</ele>
        <time>2011-06-26T16:53:36Z</time>
      </trkpt>
      <trkpt lat="45.28314" lon="5.84415">
        <ele>1082</ele>
        <time>2011-06-26T16:53:40Z</time>
      </trkpt>
      <trkpt lat="45.28306" lon="5.84415">
        <ele>1083</ele>
        <time>2011-06-26T16:53:44Z</time>
      </trkpt>
      <trkpt lat="45.28298" lon="5.84414">
        <ele>1084</ele>
        <time>2011-06-26T16:53:48Z</time>
      </trkpt>
      <trkpt lat="45.28289" lon="5.84414">
        <ele>1084</ele>
        <time>2011-06-26T16:53:52Z</time>
      </trkpt>
      <trkpt lat="45.28281" lon="5.84416">
        <ele>1083</ele>
        <time>2011-06-26T16:53:56Z</time>
      </trkpt>
      <trkpt lat="45.28274" lon="5.84416">
        <ele>1083</ele>
        <time>2011-06-26T16:54:00Z</time>
      </trkpt>
      <trkpt lat="45.28267" lon="5.84417">
        <ele>1072</ele>
        <time>2011-06-26T16:54:04Z</time>
      </trkpt>
      <trkpt lat="45.28256" lon="5.84419">
        <ele>1075</ele>
        <time>2011-06-26T16:54:08Z</time>
      </trkpt>
      <trkpt lat="45.28246" lon="5.84418">
        <ele>1076</ele>
        <time>2011-06-26T16:54:12Z</time>
      </trkpt>
      <trkpt lat="45.28237" lon="5.84419">
        <ele>1071</ele>
        <time>2011-06-26T16:54:16Z</time>
      </trkpt>
      <trkpt lat="45.28229" lon="5.84419">
        <ele>1069</ele>
        <time>2011-06-26T16:54:20Z</time>
      </trkpt>
      <trkpt lat="45.28221" lon="5.84421">
        <ele>1067</ele>
        <time>2011-06-26T16:54:24Z</time>
      </trkpt>
      <trkpt lat="45.28216" lon="5.84424">
        <ele>1066</ele>
        <time>2011-06-26T16:54:28Z</time>
      </trkpt>
      <trkpt lat="45.28209" lon="5.84423">
        <ele>1066</ele>
        <time>2011-06-26T16:54:32Z</time>
      </trkpt>
      <trkpt lat="45.28202" lon="5.84424">
        <ele>1066</ele>
        <time>2011-06-26T16:54:36Z</time>
      </trkpt>
      <trkpt lat="45.28195" lon="5.84421">
        <ele>1066</ele>
        <time>2011-06-26T16:54:40Z</time>
      </trkpt>
      <trkpt lat="45.28187" lon="5.84419">
        <ele>1067</ele>
        <time>2011-06-26T16:54:44Z</time>
      </trkpt>
      <trkpt lat="45.28176" lon="5.84419">
        <ele>1069</ele>
        <time>2011-06-26T16:54:48Z</time>
      </trkpt>
      <trkpt lat="45.28168" lon="5.84417">
        <ele>1072</ele>
        <time>2011-06-26T16:54:52Z</time>
      </trkpt>
      <trkpt lat="45.2816" lon="5.84415">
        <ele>1075</ele>
        <time>2011-06-26T16:54:56Z</time>
      </trkpt>
      <trkpt lat="45.28151" lon="5.84414">
        <ele>1077</ele>
        <time>2011-06-26T16:55:00Z</time>
      </trkpt>
      <trkpt lat="45.28141" lon="5.84412">
        <ele>1078</ele>
        <time>2011-06-26T16:55:04Z</time>
      </trkpt>
      <trkpt lat="45.2813" lon="5.84411">
        <ele>1079</ele>
        <time>2011-06-26T16:55:08Z</time>
      </trkpt>
      <trkpt lat="45.28121" lon="5.84411">
        <ele>1079</ele>
        <time>2011-06-26T16:55:12Z</time>
      </trkpt>
      <trkpt lat="45.28111" lon="5.84411">
        <ele>1078</ele>
        <time>2011-06-26T16:55:16Z</time>
      </trkpt>
      <trkpt lat="45.28103" lon="5.84405">
        <ele>1077</ele>
        <time>2011-06-26T16:55:20Z</time>
      </trkpt>
      <trkpt lat="45.28096" lon="5.84394">
        <ele>1079</ele>
        <time>2011-06-26T16:55:24Z</time>
      </trkpt>
      <trkpt lat="45.2809" lon="5.84383">
        <ele>1081</ele>
        <time>2011-06-26T16:55:28Z</time>
      </trkpt>
      <trkpt lat="45.28086" lon="5.8437">
        <ele>1084</ele>
        <time>2011-06-26T16:55:32Z</time>
      </trkpt>
      <trkpt lat="45.28081" lon="5.8436">
        <ele>1043</ele>
        <time>2011-06-26T16:55:36Z</time>
      </trkpt>
      <trkpt lat="45.28077" lon="5.84352">
        <ele>1049</ele>
        <time>2011-06-26T16:55:40Z</time>
      </trkpt>
      <trkpt lat="45.28073" lon="5.84345">
        <ele>1054</ele>
        <time>2011-06-26T16:55:44Z</time>
      </trkpt>
      <trkpt lat="45.28072" lon="5.8434">
        <ele>1059</ele>
        <time>2011-06-26T16:55:48Z</time>
      </trkpt>
      <trkpt lat="45.2807" lon="5.84334">
        <ele>1057</ele>
        <time>2011-06-26T16:55:52Z</time>
      </trkpt>
      <trkpt lat="45.28064" lon="5.84326">
        <ele>1056</ele>
        <time>2011-06-26T16:55:56Z</time>
      </trkpt>
      <trkpt lat="45.28058" lon="5.84319">
        <ele>1047</ele>
        <time>2011-06-26T16:56:00Z</time>
      </trkpt>
      <trkpt lat="45.28052" lon="5.84313">
        <ele>1038</ele>
        <time>2011-06-26T16:56:04Z</time>
      </trkpt>
      <trkpt lat="45.28047" lon="5.84308">
        <ele>1034</ele>
        <time>2011-06-26T16:56:08Z</time>
      </trkpt>
      <trkpt lat="45.28042" lon="5.84301">
        <ele>1029</ele>
        <time>2011-06-26T16:56:12Z</time>
      </trkpt>
      <trkpt lat="45.28038" lon="5.84296">
        <ele>1026</ele>
        <time>2011-06-26T16:56:16Z</time>
      </trkpt>
      <trkpt lat="45.28035" lon="5.84298">
        <ele>1022</ele>
        <time>2011-06-26T16:56:20Z</time>
      </trkpt>
      <trkpt lat="45.28029" lon="5.84303">
        <ele>1016</ele>
        <time>2011-06-26T16:56:24Z</time>
      </trkpt>
      <trkpt lat="45.28025" lon="5.84307">
        <ele>1010</ele>
        <time>2011-06-26T16:56:28Z</time>
      </trkpt>
      <trkpt lat="45.28022" lon="5.84311">
        <ele>1005</ele>
        <time>2011-06-26T16:56:32Z</time>
      </trkpt>
      <trkpt lat="45.28019" lon="5.8432">
        <ele>994</ele>
        <time>2011-06-26T16:56:36Z</time>
      </trkpt>
      <trkpt lat="45.28019" lon="5.84329">
        <ele>990</ele>
        <time>2011-06-26T16:56:40Z</time>
      </trkpt>
      <trkpt lat="45.28019" lon="5.84337">
        <ele>977</ele>
        <time>2011-06-26T16:56:44Z</time>
      </trkpt>
      <trkpt lat="45.28017" lon="5.84346">
        <ele>978</ele>
        <time>2011-06-26T16:56:48Z</time>
      </trkpt>
      <trkpt lat="45.28014" lon="5.84356">
        <ele>980</ele>
        <time>2011-06-26T16:56:52Z</time>
      </trkpt>
      <trkpt lat="45.28015" lon="5.84367">
        <ele>983</ele>
        <time>2011-06-26T16:56:56Z</time>
      </trkpt>
      <trkpt lat="45.28013" lon="5.84377">
        <ele>981</ele>
        <time>2011-06-26T16:57:00Z</time>
      </trkpt>
      <trkpt lat="45.2801" lon="5.84388">
        <ele>974</ele>
        <time>2011-06-26T16:57:04Z</time>
      </trkpt>
      <trkpt lat="45.28009" lon="5.84399">
        <ele>963</ele>
        <time>2011-06-26T16:57:08Z</time>
      </trkpt>
      <trkpt lat="45.28012" lon="5.84407">
        <ele>956</ele>
        <time>2011-06-26T16:57:12Z</time>
      </trkpt>
      <trkpt lat="45.28014" lon="5.84417">
        <ele>944</ele>
        <time>2011-06-26T16:57:16Z</time>
      </trkpt>
      <trkpt lat="45.28015" lon="5.84428">
        <ele>951</ele>
        <time>2011-06-26T16:57:20Z</time>
      </trkpt>
      <trkpt lat="45.28018" lon="5.84438">
        <ele>959</ele>
        <time>2011-06-26T16:57:24Z</time>
      </trkpt>
      <trkpt lat="45.28022" lon="5.84447">
        <ele>963</ele>
        <time>2011-06-26T16:57:28Z</time>
      </trkpt>
      <trkpt lat="45.28025" lon="5.84456">
        <ele>966</ele>
        <time>2011-06-26T16:57:32Z</time>
      </trkpt>
      <trkpt lat="45.28027" lon="5.84467">
        <ele>965</ele>
        <time>2011-06-26T16:57:36Z</time>
      </trkpt>
      <trkpt lat="45.28031" lon="5.84476">
        <ele>966</ele>
        <time>2011-06-26T16:57:40Z</time>
      </trkpt>
      <trkpt lat="45.28034" lon="5.84483">
        <ele>967</ele>
        <time>2011-06-26T16:57:44Z</time>
      </trkpt>
      <trkpt lat="45.28039" lon="5.84494">
        <ele>971</ele>
        <time>2011-06-26T16:57:48Z</time>
      </trkpt>
      <trkpt lat="45.28045" lon="5.84502">
        <ele>960</ele>
        <time>2011-06-26T16:57:52Z</time>
      </trkpt>
      <trkpt lat="45.28049" lon="5.84512">
        <ele>964</ele>
        <time>2011-06-26T16:57:56Z</time>
      </trkpt>
      <trkpt lat="45.28052" lon="5.84523">
        <ele>965</ele>
        <time>2011-06-26T16:58:00Z</time>
      </trkpt>
      <trkpt lat="45.28059" lon="5.8453">
        <ele>969</ele>
        <time>2011-06-26T16:58:04Z</time>
      </trkpt>
      <trkpt lat="45.28064" lon="5.84535">
        <ele>971</ele>
        <time>2011-06-26T16:58:08Z</time>
      </trkpt>
      <trkpt lat="45.28068" lon="5.84538">
        <ele>973</ele>
        <time>2011-06-26T16:58:12Z</time>
      </trkpt>
      <trkpt lat="45.28069" lon="5.84544">
        <ele>972</ele>
        <time>2011-06-26T16:58:16Z</time>
      </trkpt>
      <trkpt lat="45.28072" lon="5.8455">
        <ele>973</ele>
        <time>2011-06-26T16:58:20Z</time>
      </trkpt>
      <trkpt lat="45.28077" lon="5.84553">
        <ele>976</ele>
        <time>2011-06-26T16:58:24Z</time>
      </trkpt>
      <trkpt lat="45.28082" lon="5.84558">
        <ele>980</ele>
        <time>2011-06-26T16:58:28Z</time>
      </trkpt>
      <trkpt lat="45.28087" lon="5.8456">
        <ele>1023</ele>
        <time>2011-06-26T16:58:32Z</time>
      </trkpt>
      <trkpt lat="45.28092" lon="5.84562">
        <ele>1022</ele>
        <time>2011-06-26T16:58:36Z</time>
      </trkpt>
      <trkpt lat="45.28096" lon="5.84564">
        <ele>1022</ele>
        <time>2011-06-26T16:58:40Z</time>
      </trkpt>
      <trkpt lat="45.281" lon="5.84563">
        <ele>1023</ele>
        <time>2011-06-26T16:58:44Z</time>
      </trkpt>
      <trkpt lat="45.28105" lon="5.84562">
        <ele>1024</ele>
        <time>2011-06-26T16:58:48Z</time>
      </trkpt>
      <trkpt lat="45.28112" lon="5.84557">
        <ele>1025</ele>
        <time>2011-06-26T16:58:52Z</time>
      </trkpt>
      <trkpt lat="45.28118" lon="5.84553">
        <ele>1026</ele>
        <time>2011-06-26T16:58:56Z</time>
      </trkpt>
      <trkpt lat="45.2812" lon="5.84554">
        <ele>1026</ele>
        <time>2011-06-26T16:59:00Z</time>
      </trkpt>
      <trkpt lat="45.28123" lon="5.84555">
        <ele>1026</ele>
        <time>2011-06-26T16:59:04Z</time>
      </trkpt>
      <trkpt lat="45.28127" lon="5.84557">
        <ele>1025</ele>
        <time>2011-06-26T16:59:08Z</time>
      </trkpt>
      <trkpt lat="45.28132" lon="5.84559">
        <ele>1025</ele>
        <time>2011-06-26T16:59:12Z</time>
      </trkpt>
      <trkpt lat="45.28139" lon="5.84562">
        <ele>1025</ele>
        <time>2011-06-26T16:59:16Z</time>
      </trkpt>
      <trkpt lat="45.28144" lon="5.84565">
        <ele>1024</ele>
        <time>2011-06-26T16:59:20Z</time>
      </trkpt>
      <trkpt lat="45.28152" lon="5.84566">
        <ele>1023</ele>
        <time>2011-06-26T16:59:24Z</time>
      </trkpt>
      <trkpt lat="45.28161" lon="5.84569">
        <ele>1022</ele>
        <time>2011-06-26T16:59:28Z</time>
      </trkpt>
      <trkpt lat="45.28169" lon="5.84573">
        <ele>1022</ele>
        <time>2011-06-26T16:59:32Z</time>
      </trkpt>
      <trkpt lat="45.28176" lon="5.84576">
        <ele>1023</ele>
        <time>2011-06-26T16:59:36Z</time>
      </trkpt>
      <trkpt lat="45.28183" lon="5.84578">
        <ele>1025</ele>
        <time>2011-06-26T16:59:40Z</time>
      </trkpt>
      <trkpt lat="45.2819" lon="5.8458">
        <ele>1027</ele>
        <time>2011-06-26T16:59:44Z</time>
      </trkpt>
      <trkpt lat="45.28198" lon="5.84581">
        <ele>1028</ele>
        <time>2011-06-26T16:59:48Z</time>
      </trkpt>
      <trkpt lat="45.28204" lon="5.84583">
        <ele>1029</ele>
        <time>2011-06-26T16:59:52Z</time>
      </trkpt>
      <trkpt lat="45.28208" lon="5.84585">
        <ele>1013</ele>
        <time>2011-06-26T16:59:56Z</time>
      </trkpt>
      <trkpt lat="45.28215" lon="5.84585">
        <ele>1014</ele>
        <time>2011-06-26T17:00:00Z</time>
      </trkpt>
      <trkpt lat="45.28219" lon="5.84588">
        <ele>1014</ele>
        <time>2011-06-26T17:00:04Z</time>
      </trkpt>
      <trkpt lat="45.28222" lon="5.84589">
        <ele>1015</ele>
        <time>2011-06-26T17:00:08Z</time>
      </trkpt>
      <trkpt lat="45.28226" lon="5.84591">
        <ele>1015</ele>
        <time>2011-06-26T17:00:12Z</time>
      </trkpt>
      <trkpt lat="45.2823" lon="5.84593">
        <ele>1017</ele>
        <time>2011-06-26T17:00:16Z</time>
      </trkpt>
      <trkpt lat="45.28235" lon="5.84595">
        <ele>1018</ele>
        <time>2011-06-26T17:00:20Z</time>
      </trkpt>
      <trkpt lat="45.28241" lon="5.84597">
        <ele>1019</ele>
        <time>2011-06-26T17:00:24Z</time>
      </trkpt>
      <trkpt lat="45.28246" lon="5.84599">
        <ele>1019</ele>
        <time>2011-06-26T17:00:28Z</time>
      </trkpt>
      <trkpt lat="45.28253" lon="5.84597">
        <ele>1022</ele>
        <time>2011-06-26T17:00:32Z</time>
      </trkpt>
      <trkpt lat="45.28261" lon="5.84594">
        <ele>1022</ele>
        <time>2011-06-26T17:00:36Z</time>
      </trkpt>
      <trkpt lat="45.28267" lon="5.84589">
        <ele>1022</ele>
        <time>2011-06-26T17:00:40Z</time>
      </trkpt>
      <trkpt lat="45.28276" lon="5.84585">
        <ele>1020</ele>
        <time>2011-06-26T17:00:44Z</time>
      </trkpt>
      <trkpt lat="45.28286" lon="5.8458">
        <ele>1037</ele>
        <time>2011-06-26T17:00:48Z</time>
      </trkpt>
      <trkpt lat="45.28293" lon="5.84578">
        <ele>1037</ele>
        <time>2011-06-26T17:00:52Z</time>
      </trkpt>
      <trkpt lat="45.28297" lon="5.84579">
        <ele>1037</ele>
        <time>2011-06-26T17:00:56Z</time>
      </trkpt>
      <trkpt lat="45.28301" lon="5.84579">
        <ele>1037</ele>
        <time>2011-06-26T17:01:00Z</time>
      </trkpt>
      <trkpt lat="45.28306" lon="5.8458">
        <ele>1037</ele>
        <time>2011-06-26T17:01:04Z</time>
      </trkpt>
      <trkpt lat="45.28312" lon="5.84579">
        <ele>1036</ele>
        <time>2011-06-26T17:01:08Z</time>
      </trkpt>
      <trkpt lat="45.28318" lon="5.84577">
        <ele>1035</ele>
        <time>2011-06-26T17:01:12Z</time>
      </trkpt>
      <trkpt lat="45.28325" lon="5.84574">
        <ele>1034</ele>
        <time>2011-06-26T17:01:16Z</time>
      </trkpt>
      <trkpt lat="45.28331" lon="5.84576">
        <ele>1033</ele>
        <time>2011-06-26T17:01:20Z</time>
      </trkpt>
      <trkpt lat="45.28335" lon="5.84576">
        <ele>1034</ele>
        <time>2011-06-26T17:01:24Z</time>
      </trkpt>
      <trkpt lat="45.2834" lon="5.84576">
        <ele>1034</ele>
        <time>2011-06-26T17:01:28Z</time>
      </trkpt>
      <trkpt lat="45.28348" lon="5.84578">
        <ele>1036</ele>
        <time>2011-06-26T17:01:32Z</time>
      </trkpt>
      <trkpt lat="45.28354" lon="5.84578">
        <ele>1037</ele>
        <time>2011-06-26T17:01:36Z</time>
      </trkpt>
      <trkpt lat="45.28362" lon="5.84578">
        <ele>1038</ele>
        <time>2011-06-26T17:01:40Z</time>
      </trkpt>
      <trkpt lat="45.28368" lon="5.8458">
        <ele>1039</ele>
        <time>2011-06-26T17:01:44Z</time>
      </trkpt>
      <trkpt lat="45.28376" lon="5.84581">
        <ele>1039</ele>
        <time>2011-06-26T17:01:48Z</time>
      </trkpt>
      <trkpt lat="45.28383" lon="5.84583">
        <ele>1038</ele>
        <time>2011-06-26T17:01:52Z</time>
      </trkpt>
      <trkpt lat="45.28391" lon="5.84584">
        <ele>1021</ele>
        <time>2011-06-26T17:01:56Z</time>
      </trkpt>
      <trkpt lat="45.28397" lon="5.84583">
        <ele>1037</ele>
        <time>2011-06-26T17:02:00Z</time>
      </trkpt>
      <trkpt lat="45.28404" lon="5.84582">
        <ele>1035</ele>
        <time>2011-06-26T17:02:04Z</time>
      </trkpt>
      <trkpt lat="45.28412" lon="5.84581">
        <ele>1033</ele>
        <time>2011-06-26T17:02:08Z</time>
      </trkpt>
      <trkpt lat="45.2842" lon="5.84581">
        <ele>1032</ele>
        <time>2011-06-26T17:02:12Z</time>
      </trkpt>
      <trkpt lat="45.28425" lon="5.8458">
        <ele>1035</ele>
        <time>2011-06-26T17:02:16Z</time>
      </trkpt>
      <trkpt lat="45.28431" lon="5.84578">
        <ele>1037</ele>
        <time>2011-06-26T17:02:20Z</time>
      </trkpt>
      <trkpt lat="45.28441" lon="5.84573">
        <ele>1039</ele>
        <time>2011-06-26T17:02:29Z</time>
      </trkpt>
      <trkpt lat="45.28445" lon="5.84569">
        <ele>1040</ele>
        <time>2011-06-26T17:02:35Z</time>
      </trkpt>
      <trkpt lat="45.28445" lon="5.84569">
        <ele>1040</ele>
        <time>2011-06-26T17:02:36Z</time>
      </trkpt>
      <trkpt lat="45.28448" lon="5.84565">
        <ele>1041</ele>
        <time>2011-06-26T17:02:40Z</time>
      </trkpt>
      <trkpt lat="45.28449" lon="5.84565">
        <ele>1041</ele>
        <time>2011-06-26T17:02:44Z</time>
      </trkpt>
      <trkpt lat="45.28451" lon="5.84566">
        <ele>1041</ele>
        <time>2011-06-26T17:02:48Z</time>
      </trkpt>
      <trkpt lat="45.28453" lon="5.8457">
        <ele>1041</ele>
        <time>2011-06-26T17:02:52Z</time>
      </trkpt>
      <trkpt lat="45.28454" lon="5.84572">
        <ele>1040</ele>
        <time>2011-06-26T17:02:56Z</time>
      </trkpt>
      <trkpt lat="45.28457" lon="5.84574">
        <ele>1040</ele>
        <time>2011-06-26T17:03:00Z</time>
      </trkpt>
      <trkpt lat="45.2846" lon="5.84575">
        <ele>1040</ele>
        <time>2011-06-26T17:03:04Z</time>
      </trkpt>
      <trkpt lat="45.28466" lon="5.84574">
        <ele>1040</ele>
        <time>2011-06-26T17:03:08Z</time>
      </trkpt>
      <trkpt lat="45.28473" lon="5.84572">
        <ele>1040</ele>
        <time>2011-06-26T17:03:12Z</time>
      </trkpt>
      <trkpt lat="45.28479" lon="5.8457">
        <ele>1040</ele>
        <time>2011-06-26T17:03:16Z</time>
      </trkpt>
      <trkpt lat="45.28484" lon="5.84571">
        <ele>1039</ele>
        <time>2011-06-26T17:03:20Z</time>
      </trkpt>
      <trkpt lat="45.2849" lon="5.84571">
        <ele>1038</ele>
        <time>2011-06-26T17:03:24Z</time>
      </trkpt>
      <trkpt lat="45.28494" lon="5.84572">
        <ele>1037</ele>
        <time>2011-06-26T17:03:28Z</time>
      </trkpt>
      <trkpt lat="45.285" lon="5.84573">
        <ele>1036</ele>
        <time>2011-06-26T17:03:32Z</time>
      </trkpt>
      <trkpt lat="45.28505" lon="5.84574">
        <ele>1037</ele>
        <time>2011-06-26T17:03:36Z</time>
      </trkpt>
      <trkpt lat="45.28509" lon="5.84576">
        <ele>1038</ele>
        <time>2011-06-26T17:03:40Z</time>
      </trkpt>
      <trkpt lat="45.28516" lon="5.84578">
        <ele>1040</ele>
        <time>2011-06-26T17:03:44Z</time>
      </trkpt>
      <trkpt lat="45.28522" lon="5.84582">
        <ele>1041</ele>
        <time>2011-06-26T17:03:48Z</time>
      </trkpt>
      <trkpt lat="45.28528" lon="5.84584">
        <ele>1027</ele>
        <time>2011-06-26T17:03:52Z</time>
      </trkpt>
      <trkpt lat="45.28534" lon="5.84586">
        <ele>1027</ele>
        <time>2011-06-26T17:03:56Z</time>
      </trkpt>
      <trkpt lat="45.28538" lon="5.84587">
        <ele>1027</ele>
        <time>2011-06-26T17:04:00Z</time>
      </trkpt>
      <trkpt lat="45.28543" lon="5.84589">
        <ele>1027</ele>
        <time>2011-06-26T17:04:04Z</time>
      </trkpt>
      <trkpt lat="45.28548" lon="5.84589">
        <ele>1028</ele>
        <time>2011-06-26T17:04:08Z</time>
      </trkpt>
      <trkpt lat="45.28555" lon="5.84593">
        <ele>1029</ele>
        <time>2011-06-26T17:04:12Z</time>
      </trkpt>
      <trkpt lat="45.28561" lon="5.84597">
        <ele>1030</ele>
        <time>2011-06-26T17:04:16Z</time>
      </trkpt>
      <trkpt lat="45.28568" lon="5.846">
        <ele>1030</ele>
        <time>2011-06-26T17:04:20Z</time>
      </trkpt>
      <trkpt lat="45.28576" lon="5.84605">
        <ele>1030</ele>
        <time>2011-06-26T17:04:24Z</time>
      </trkpt>
      <trkpt lat="45.28584" lon="5.84607">
        <ele>1035</ele>
        <time>2011-06-26T17:04:28Z</time>
      </trkpt>
      <trkpt lat="45.28593" lon="5.84611">
        <ele>1033</ele>
        <time>2011-06-26T17:04:32Z</time>
      </trkpt>
      <trkpt lat="45.28601" lon="5.84612">
        <ele>1033</ele>
        <time>2011-06-26T17:04:36Z</time>
      </trkpt>
      <trkpt lat="45.28608" lon="5.84615">
        <ele>1032</ele>
        <time>2011-06-26T17:04:40Z</time>
      </trkpt>
      <trkpt lat="45.28617" lon="5.84619">
        <ele>1032</ele>
        <time>2011-06-26T17:04:44Z</time>
      </trkpt>
      <trkpt lat="45.28626" lon="5.8462">
        <ele>1032</ele>
        <time>2011-06-26T17:04:48Z</time>
      </trkpt>
      <trkpt lat="45.28636" lon="5.84621">
        <ele>1032</ele>
        <time>2011-06-26T17:04:52Z</time>
      </trkpt>
      <trkpt lat="45.28647" lon="5.84624">
        <ele>1031</ele>
        <time>2011-06-26T17:04:56Z</time>
      </trkpt>
      <trkpt lat="45.28652" lon="5.84624">
        <ele>1032</ele>
        <time>2011-06-26T17:05:00Z</time>
      </trkpt>
      <trkpt lat="45.28659" lon="5.84623">
        <ele>1032</ele>
        <time>2011-06-26T17:05:04Z</time>
      </trkpt>
      <trkpt lat="45.28666" lon="5.84623">
        <ele>1032</ele>
        <time>2011-06-26T17:05:08Z</time>
      </trkpt>
      <trkpt lat="45.28674" lon="5.84623">
        <ele>1028</ele>
        <time>2011-06-26T17:05:12Z</time>
      </trkpt>
      <trkpt lat="45.2868" lon="5.84622">
        <ele>1028</ele>
        <time>2011-06-26T17:05:16Z</time>
      </trkpt>
      <trkpt lat="45.28687" lon="5.84619">
        <ele>1028</ele>
        <time>2011-06-26T17:05:20Z</time>
      </trkpt>
      <trkpt lat="45.28695" lon="5.84616">
        <ele>1028</ele>
        <time>2011-06-26T17:05:24Z</time>
      </trkpt>
      <trkpt lat="45.28703" lon="5.84613">
        <ele>1028</ele>
        <time>2011-06-26T17:05:28Z</time>
      </trkpt>
      <trkpt lat="45.28715" lon="5.84613">
        <ele>1027</ele>
        <time>2011-06-26T17:05:32Z</time>
      </trkpt>
      <trkpt lat="45.2873" lon="5.84613">
        <ele>1026</ele>
        <time>2011-06-26T17:05:36Z</time>
      </trkpt>
      <trkpt lat="45.28737" lon="5.84611">
        <ele>1026</ele>
        <time>2011-06-26T17:05:40Z</time>
      </trkpt>
      <trkpt lat="45.28743" lon="5.84612">
        <ele>1026</ele>
        <time>2011-06-26T17:05:44Z</time>
      </trkpt>
      <trkpt lat="45.28747" lon="5.84615">
        <ele>1025</ele>
        <time>2011-06-26T17:05:48Z</time>
      </trkpt>
      <trkpt lat="45.28752" lon="5.84617">
        <ele>1019</ele>
        <time>2011-06-26T17:05:52Z</time>
      </trkpt>
      <trkpt lat="45.28757" lon="5.84622">
        <ele>1018</ele>
        <time>2011-06-26T17:05:56Z</time>
      </trkpt>
      <trkpt lat="45.28767" lon="5.84624">
        <ele>1017</ele>
        <time>2011-06-26T17:06:00Z</time>
      </trkpt>
      <trkpt lat="45.28778" lon="5.84627">
        <ele>1017</ele>
        <time>2011-06-26T17:06:04Z</time>
      </trkpt>
      <trkpt lat="45.28789" lon="5.84628">
        <ele>1016</ele>
        <time>2011-06-26T17:06:08Z</time>
      </trkpt>
      <trkpt lat="45.28802" lon="5.84629">
        <ele>1016</ele>
        <time>2011-06-26T17:06:12Z</time>
      </trkpt>
      <trkpt lat="45.28814" lon="5.84629">
        <ele>1015</ele>
        <time>2011-06-26T17:06:16Z</time>
      </trkpt>
      <trkpt lat="45.28823" lon="5.84631">
        <ele>1015</ele>
        <time>2011-06-26T17:06:20Z</time>
      </trkpt>
      <trkpt lat="45.2883" lon="5.84631">
        <ele>1015</ele>
        <time>2011-06-26T17:06:24Z</time>
      </trkpt>
      <trkpt lat="45.28833" lon="5.8463">
        <ele>1015</ele>
        <time>2011-06-26T17:06:28Z</time>
      </trkpt>
      <trkpt lat="45.28838" lon="5.8463">
        <ele>1010</ele>
        <time>2011-06-26T17:06:32Z</time>
      </trkpt>
      <trkpt lat="45.28846" lon="5.84631">
        <ele>1010</ele>
        <time>2011-06-26T17:06:36Z</time>
      </trkpt>
      <trkpt lat="45.28855" lon="5.84631">
        <ele>1010</ele>
        <time>2011-06-26T17:06:40Z</time>
      </trkpt>
      <trkpt lat="45.28863" lon="5.84633">
        <ele>1009</ele>
        <time>2011-06-26T17:06:44Z</time>
      </trkpt>
      <trkpt lat="45.28871" lon="5.84637">
        <ele>1008</ele>
        <time>2011-06-26T17:06:48Z</time>
      </trkpt>
      <trkpt lat="45.28881" lon="5.84641">
        <ele>1007</ele>
        <time>2011-06-26T17:06:52Z</time>
      </trkpt>
      <trkpt lat="45.28892" lon="5.84646">
        <ele>1006</ele>
        <time>2011-06-26T17:06:56Z</time>
      </trkpt>
      <trkpt lat="45.28903" lon="5.8465">
        <ele>1003</ele>
        <time>2011-06-26T17:07:00Z</time>
      </trkpt>
      <trkpt lat="45.28915" lon="5.84653">
        <ele>1001</ele>
        <time>2011-06-26T17:07:04Z</time>
      </trkpt>
      <trkpt lat="45.28918" lon="5.8466">
        <ele>998</ele>
        <time>2011-06-26T17:07:08Z</time>
      </trkpt>
      <trkpt lat="45.28916" lon="5.84667">
        <ele>995</ele>
        <time>2011-06-26T17:07:12Z</time>
      </trkpt>
      <trkpt lat="45.28912" lon="5.84672">
        <ele>995</ele>
        <time>2011-06-26T17:07:16Z</time>
      </trkpt>
      <trkpt lat="45.28907" lon="5.84678">
        <ele>994</ele>
        <time>2011-06-26T17:07:20Z</time>
      </trkpt>
      <trkpt lat="45.28901" lon="5.84685">
        <ele>994</ele>
        <time>2011-06-26T17:07:24Z</time>
      </trkpt>
      <trkpt lat="45.28896" lon="5.84694">
        <ele>993</ele>
        <time>2011-06-26T17:07:28Z</time>
      </trkpt>
      <trkpt lat="45.28894" lon="5.84704">
        <ele>992</ele>
        <time>2011-06-26T17:07:32Z</time>
      </trkpt>
      <trkpt lat="45.2889" lon="5.84714">
        <ele>991</ele>
        <time>2011-06-26T17:07:36Z</time>
      </trkpt>
      <trkpt lat="45.28886" lon="5.84723">
        <ele>991</ele>
        <time>2011-06-26T17:07:40Z</time>
      </trkpt>
      <trkpt lat="45.28881" lon="5.84731">
        <ele>990</ele>
        <time>2011-06-26T17:07:44Z</time>
      </trkpt>
      <trkpt lat="45.28874" lon="5.84736">
        <ele>991</ele>
        <time>2011-06-26T17:07:48Z</time>
      </trkpt>
      <trkpt lat="45.28866" lon="5.84744">
        <ele>990</ele>
        <time>2011-06-26T17:07:52Z</time>
      </trkpt>
      <trkpt lat="45.28857" lon="5.84751">
        <ele>983</ele>
        <time>2011-06-26T17:07:56Z</time>
      </trkpt>
      <trkpt lat="45.28861" lon="5.84753">
        <ele>982</ele>
        <time>2011-06-26T17:08:00Z</time>
      </trkpt>
      <trkpt lat="45.28868" lon="5.84754">
        <ele>981</ele>
        <time>2011-06-26T17:08:04Z</time>
      </trkpt>
      <trkpt lat="45.28875" lon="5.84756">
        <ele>981</ele>
        <time>2011-06-26T17:08:08Z</time>
      </trkpt>
      <trkpt lat="45.28882" lon="5.84759">
        <ele>981</ele>
        <time>2011-06-26T17:08:12Z</time>
      </trkpt>
      <trkpt lat="45.2889" lon="5.84761">
        <ele>980</ele>
        <time>2011-06-26T17:08:16Z</time>
      </trkpt>
      <trkpt lat="45.28898" lon="5.84768">
        <ele>980</ele>
        <time>2011-06-26T17:08:20Z</time>
      </trkpt>
      <trkpt lat="45.28905" lon="5.84775">
        <ele>980</ele>
        <time>2011-06-26T17:08:24Z</time>
      </trkpt>
      <trkpt lat="45.28909" lon="5.84782">
        <ele>979</ele>
        <time>2011-06-26T17:08:28Z</time>
      </trkpt>
      <trkpt lat="45.28917" lon="5.84785">
        <ele>980</ele>
        <time>2011-06-26T17:08:32Z</time>
      </trkpt>
      <trkpt lat="45.28926" lon="5.84785">
        <ele>980</ele>
        <time>2011-06-26T17:08:36Z</time>
      </trkpt>
      <trkpt lat="45.28936" lon="5.84781">
        <ele>980</ele>
        <time>2011-06-26T17:08:40Z</time>
      </trkpt>
      <trkpt lat="45.28943" lon="5.84777">
        <ele>981</ele>
        <time>2011-06-26T17:08:44Z</time>
      </trkpt>
      <trkpt lat="45.28951" lon="5.84774">
        <ele>981</ele>
        <time>2011-06-26T17:08:48Z</time>
      </trkpt>
      <trkpt lat="45.2896" lon="5.84773">
        <ele>981</ele>
        <time>2011-06-26T17:08:52Z</time>
      </trkpt>
      <trkpt lat="45.28968" lon="5.84774">
        <ele>982</ele>
        <time>2011-06-26T17:08:56Z</time>
      </trkpt>
      <trkpt lat="45.28977" lon="5.84776">
        <ele>982</ele>
        <time>2011-06-26T17:09:00Z</time>
      </trkpt>
      <trkpt lat="45.28983" lon="5.84775">
        <ele>982</ele>
        <time>2011-06-26T17:09:04Z</time>
      </trkpt>
      <trkpt lat="45.28988" lon="5.84776">
        <ele>983</ele>
        <time>2011-06-26T17:09:08Z</time>
      </trkpt>
      <trkpt lat="45.28994" lon="5.84779">
        <ele>982</ele>
        <time>2011-06-26T17:09:12Z</time>
      </trkpt>
      <trkpt lat="45.28999" lon="5.84779">
        <ele>983</ele>
        <time>2011-06-26T17:09:16Z</time>
      </trkpt>
      <trkpt lat="45.29005" lon="5.84779">
        <ele>988</ele>
        <time>2011-06-26T17:09:20Z</time>
      </trkpt>
      <trkpt lat="45.29011" lon="5.8478">
        <ele>988</ele>
        <time>2011-06-26T17:09:24Z</time>
      </trkpt>
      <trkpt lat="45.29016" lon="5.8478">
        <ele>988</ele>
        <time>2011-06-26T17:09:28Z</time>
      </trkpt>
      <trkpt lat="45.29021" lon="5.8478">
        <ele>989</ele>
        <time>2011-06-26T17:09:32Z</time>
      </trkpt>
      <trkpt lat="45.29025" lon="5.8478">
        <ele>989</ele>
        <time>2011-06-26T17:09:36Z</time>
      </trkpt>
      <trkpt lat="45.29027" lon="5.84783">
        <ele>989</ele>
        <time>2011-06-26T17:09:40Z</time>
      </trkpt>
      <trkpt lat="45.29029" lon="5.84787">
        <ele>989</ele>
        <time>2011-06-26T17:09:44Z</time>
      </trkpt>
      <trkpt lat="45.2903" lon="5.84794">
        <ele>988</ele>
        <time>2011-06-26T17:09:48Z</time>
      </trkpt>
      <trkpt lat="45.29029" lon="5.848">
        <ele>988</ele>
        <time>2011-06-26T17:09:52Z</time>
      </trkpt>
      <trkpt lat="45.2903" lon="5.84805">
        <ele>988</ele>
        <time>2011-06-26T17:09:56Z</time>
      </trkpt>
      <trkpt lat="45.29031" lon="5.84814">
        <ele>987</ele>
        <time>2011-06-26T17:10:00Z</time>
      </trkpt>
      <trkpt lat="45.29033" lon="5.84823">
        <ele>987</ele>
        <time>2011-06-26T17:10:04Z</time>
      </trkpt>
      <trkpt lat="45.29036" lon="5.8483">
        <ele>987</ele>
        <time>2011-06-26T17:10:08Z</time>
      </trkpt>
      <trkpt lat="45.29037" lon="5.84836">
        <ele>984</ele>
        <time>2011-06-26T17:10:12Z</time>
      </trkpt>
      <trkpt lat="45.29037" lon="5.84844">
        <ele>983</ele>
        <time>2011-06-26T17:10:16Z</time>
      </trkpt>
      <trkpt lat="45.29035" lon="5.84856">
        <ele>983</ele>
        <time>2011-06-26T17:10:20Z</time>
      </trkpt>
      <trkpt lat="45.29031" lon="5.84868">
        <ele>982</ele>
        <time>2011-06-26T17:10:24Z</time>
      </trkpt>
      <trkpt lat="45.29027" lon="5.8488">
        <ele>981</ele>
        <time>2011-06-26T17:10:28Z</time>
      </trkpt>
      <trkpt lat="45.29026" lon="5.84893">
        <ele>980</ele>
        <time>2011-06-26T17:10:32Z</time>
      </trkpt>
      <trkpt lat="45.29026" lon="5.84906">
        <ele>979</ele>
        <time>2011-06-26T17:10:36Z</time>
      </trkpt>
      <trkpt lat="45.29026" lon="5.8492">
        <ele>975</ele>
        <time>2011-06-26T17:10:40Z</time>
      </trkpt>
      <trkpt lat="45.29025" lon="5.84934">
        <ele>975</ele>
        <time>2011-06-26T17:10:44Z</time>
      </trkpt>
      <trkpt lat="45.29022" lon="5.84947">
        <ele>975</ele>
        <time>2011-06-26T17:10:48Z</time>
      </trkpt>
      <trkpt lat="45.29022" lon="5.8496">
        <ele>974</ele>
        <time>2011-06-26T17:10:52Z</time>
      </trkpt>
      <trkpt lat="45.29023" lon="5.84974">
        <ele>974</ele>
        <time>2011-06-26T17:10:56Z</time>
      </trkpt>
      <trkpt lat="45.29024" lon="5.84989">
        <ele>973</ele>
        <time>2011-06-26T17:11:00Z</time>
      </trkpt>
      <trkpt lat="45.29024" lon="5.85002">
        <ele>969</ele>
        <time>2011-06-26T17:11:04Z</time>
      </trkpt>
      <trkpt lat="45.29023" lon="5.85015">
        <ele>969</ele>
        <time>2011-06-26T17:11:08Z</time>
      </trkpt>
      <trkpt lat="45.2902" lon="5.85027">
        <ele>968</ele>
        <time>2011-06-26T17:11:12Z</time>
      </trkpt>
      <trkpt lat="45.2902" lon="5.85039">
        <ele>968</ele>
        <time>2011-06-26T17:11:16Z</time>
      </trkpt>
      <trkpt lat="45.2902" lon="5.85051">
        <ele>967</ele>
        <time>2011-06-26T17:11:20Z</time>
      </trkpt>
      <trkpt lat="45.29016" lon="5.85061">
        <ele>966</ele>
        <time>2011-06-26T17:11:24Z</time>
      </trkpt>
      <trkpt lat="45.29011" lon="5.85071">
        <ele>964</ele>
        <time>2011-06-26T17:11:28Z</time>
      </trkpt>
      <trkpt lat="45.29007" lon="5.85083">
        <ele>961</ele>
        <time>2011-06-26T17:11:32Z</time>
      </trkpt>
      <trkpt lat="45.29006" lon="5.85096">
        <ele>959</ele>
        <time>2011-06-26T17:11:36Z</time>
      </trkpt>
      <trkpt lat="45.29007" lon="5.8511">
        <ele>958</ele>
        <time>2011-06-26T17:11:40Z</time>
      </trkpt>
      <trkpt lat="45.29009" lon="5.85122">
        <ele>957</ele>
        <time>2011-06-26T17:11:44Z</time>
      </trkpt>
      <trkpt lat="45.29008" lon="5.85128">
        <ele>957</ele>
        <time>2011-06-26T17:11:48Z</time>
      </trkpt>
      <trkpt lat="45.2901" lon="5.85134">
        <ele>956</ele>
        <time>2011-06-26T17:11:52Z</time>
      </trkpt>
      <trkpt lat="45.29016" lon="5.8514">
        <ele>956</ele>
        <time>2011-06-26T17:11:56Z</time>
      </trkpt>
      <trkpt lat="45.29021" lon="5.85145">
        <ele>956</ele>
        <time>2011-06-26T17:12:00Z</time>
      </trkpt>
      <trkpt lat="45.29025" lon="5.8515">
        <ele>956</ele>
        <time>2011-06-26T17:12:04Z</time>
      </trkpt>
      <trkpt lat="45.29027" lon="5.85158">
        <ele>955</ele>
        <time>2011-06-26T17:12:08Z</time>
      </trkpt>
      <trkpt lat="45.29026" lon="5.85165">
        <ele>955</ele>
        <time>2011-06-26T17:12:12Z</time>
      </trkpt>
      <trkpt lat="45.29031" lon="5.85168">
        <ele>950</ele>
        <time>2011-06-26T17:12:16Z</time>
      </trkpt>
      <trkpt lat="45.29036" lon="5.85174">
        <ele>951</ele>
        <time>2011-06-26T17:12:20Z</time>
      </trkpt>
      <trkpt lat="45.29042" lon="5.85178">
        <ele>951</ele>
        <time>2011-06-26T17:12:24Z</time>
      </trkpt>
      <trkpt lat="45.29048" lon="5.85184">
        <ele>952</ele>
        <time>2011-06-26T17:12:28Z</time>
      </trkpt>
      <trkpt lat="45.29051" lon="5.85191">
        <ele>952</ele>
        <time>2011-06-26T17:12:32Z</time>
      </trkpt>
      <trkpt lat="45.29055" lon="5.85197">
        <ele>952</ele>
        <time>2011-06-26T17:12:36Z</time>
      </trkpt>
      <trkpt lat="45.29056" lon="5.85201">
        <ele>952</ele>
        <time>2011-06-26T17:12:40Z</time>
      </trkpt>
      <trkpt lat="45.29056" lon="5.85204">
        <ele>952</ele>
        <time>2011-06-26T17:12:44Z</time>
      </trkpt>
      <trkpt lat="45.29054" lon="5.85206">
        <ele>951</ele>
        <time>2011-06-26T17:12:48Z</time>
      </trkpt>
      <trkpt lat="45.29053" lon="5.85209">
        <ele>951</ele>
        <time>2011-06-26T17:12:52Z</time>
      </trkpt>
      <trkpt lat="45.29053" lon="5.85212">
        <ele>951</ele>
        <time>2011-06-26T17:12:56Z</time>
      </trkpt>
      <trkpt lat="45.29053" lon="5.85213">
        <ele>951</ele>
        <time>2011-06-26T17:13:00Z</time>
      </trkpt>
      <trkpt lat="45.29052" lon="5.85215">
        <ele>951</ele>
        <time>2011-06-26T17:13:04Z</time>
      </trkpt>
      <trkpt lat="45.29052" lon="5.85219">
        <ele>951</ele>
        <time>2011-06-26T17:13:08Z</time>
      </trkpt>
      <trkpt lat="45.29053" lon="5.85221">
        <ele>951</ele>
        <time>2011-06-26T17:13:12Z</time>
      </trkpt>
      <trkpt lat="45.29054" lon="5.85224">
        <ele>951</ele>
        <time>2011-06-26T17:13:16Z</time>
      </trkpt>
      <trkpt lat="45.29055" lon="5.85227">
        <ele>951</ele>
        <time>2011-06-26T17:13:20Z</time>
      </trkpt>
      <trkpt lat="45.29057" lon="5.85231">
        <ele>951</ele>
        <time>2011-06-26T17:13:24Z</time>
      </trkpt>
      <trkpt lat="45.29057" lon="5.85237">
        <ele>951</ele>
        <time>2011-06-26T17:13:28Z</time>
      </trkpt>
      <trkpt lat="45.29055" lon="5.85243">
        <ele>951</ele>
        <time>2011-06-26T17:13:32Z</time>
      </trkpt>
      <trkpt lat="45.29054" lon="5.85249">
        <ele>950</ele>
        <time>2011-06-26T17:13:36Z</time>
      </trkpt>
      <trkpt lat="45.29055" lon="5.85254">
        <ele>953</ele>
        <time>2011-06-26T17:13:40Z</time>
      </trkpt>
      <trkpt lat="45.2905" lon="5.8526">
        <ele>953</ele>
        <time>2011-06-26T17:13:44Z</time>
      </trkpt>
      <trkpt lat="45.29045" lon="5.85262">
        <ele>953</ele>
        <time>2011-06-26T17:13:48Z</time>
      </trkpt>
      <trkpt lat="45.29042" lon="5.85265">
        <ele>952</ele>
        <time>2011-06-26T17:13:52Z</time>
      </trkpt>
      <trkpt lat="45.29039" lon="5.85269">
        <ele>952</ele>
        <time>2011-06-26T17:13:56Z</time>
      </trkpt>
      <trkpt lat="45.29035" lon="5.85271">
        <ele>952</ele>
        <time>2011-06-26T17:14:00Z</time>
      </trkpt>
      <trkpt lat="45.29032" lon="5.85275">
        <ele>952</ele>
        <time>2011-06-26T17:14:04Z</time>
      </trkpt>
      <trkpt lat="45.29029" lon="5.85276">
        <ele>952</ele>
        <time>2011-06-26T17:14:08Z</time>
      </trkpt>
      <trkpt lat="45.29027" lon="5.85277">
        <ele>952</ele>
        <time>2011-06-26T17:14:12Z</time>
      </trkpt>
      <trkpt lat="45.29025" lon="5.8528">
        <ele>952</ele>
        <time>2011-06-26T17:14:16Z</time>
      </trkpt>
      <trkpt lat="45.29022" lon="5.85282">
        <ele>952</ele>
        <time>2011-06-26T17:14:20Z</time>
      </trkpt>
      <trkpt lat="45.29018" lon="5.85285">
        <ele>952</ele>
        <time>2011-06-26T17:14:24Z</time>
      </trkpt>
      <trkpt lat="45.29014" lon="5.85286">
        <ele>952</ele>
        <time>2011-06-26T17:14:28Z</time>
      </trkpt>
      <trkpt lat="45.29009" lon="5.85288">
        <ele>952</ele>
        <time>2011-06-26T17:14:32Z</time>
      </trkpt>
      <trkpt lat="45.29002" lon="5.85291">
        <ele>952</ele>
        <time>2011-06-26T17:14:36Z</time>
      </trkpt>
      <trkpt lat="45.28994" lon="5.85293">
        <ele>945</ele>
        <time>2011-06-26T17:14:40Z</time>
      </trkpt>
      <trkpt lat="45.28987" lon="5.85295">
        <ele>945</ele>
        <time>2011-06-26T17:14:44Z</time>
      </trkpt>
      <trkpt lat="45.28975" lon="5.85299">
        <ele>945</ele>
        <time>2011-06-26T17:14:48Z</time>
      </trkpt>
      <trkpt lat="45.28965" lon="5.85306">
        <ele>945</ele>
        <time>2011-06-26T17:14:52Z</time>
      </trkpt>
      <trkpt lat="45.28955" lon="5.85311">
        <ele>944</ele>
        <time>2011-06-26T17:14:56Z</time>
      </trkpt>
      <trkpt lat="45.28949" lon="5.85317">
        <ele>944</ele>
        <time>2011-06-26T17:15:00Z</time>
      </trkpt>
      <trkpt lat="45.28946" lon="5.85324">
        <ele>944</ele>
        <time>2011-06-26T17:15:04Z</time>
      </trkpt>
      <trkpt lat="45.28944" lon="5.85331">
        <ele>944</ele>
        <time>2011-06-26T17:15:08Z</time>
      </trkpt>
      <trkpt lat="45.28943" lon="5.85338">
        <ele>947</ele>
        <time>2011-06-26T17:15:12Z</time>
      </trkpt>
      <trkpt lat="45.28935" lon="5.85344">
        <ele>946</ele>
        <time>2011-06-26T17:15:16Z</time>
      </trkpt>
      <trkpt lat="45.28928" lon="5.85348">
        <ele>946</ele>
        <time>2011-06-26T17:15:20Z</time>
      </trkpt>
      <trkpt lat="45.2892" lon="5.8535">
        <ele>945</ele>
        <time>2011-06-26T17:15:24Z</time>
      </trkpt>
      <trkpt lat="45.28911" lon="5.8535">
        <ele>938</ele>
        <time>2011-06-26T17:15:28Z</time>
      </trkpt>
      <trkpt lat="45.28901" lon="5.8535">
        <ele>938</ele>
        <time>2011-06-26T17:15:32Z</time>
      </trkpt>
      <trkpt lat="45.28892" lon="5.85349">
        <ele>937</ele>
        <time>2011-06-26T17:15:36Z</time>
      </trkpt>
      <trkpt lat="45.28882" lon="5.85348">
        <ele>935</ele>
        <time>2011-06-26T17:15:40Z</time>
      </trkpt>
      <trkpt lat="45.28873" lon="5.85344">
        <ele>934</ele>
        <time>2011-06-26T17:15:44Z</time>
      </trkpt>
      <trkpt lat="45.28864" lon="5.85345">
        <ele>933</ele>
        <time>2011-06-26T17:15:48Z</time>
      </trkpt>
      <trkpt lat="45.2886" lon="5.85351">
        <ele>932</ele>
        <time>2011-06-26T17:15:52Z</time>
      </trkpt>
      <trkpt lat="45.28858" lon="5.85357">
        <ele>933</ele>
        <time>2011-06-26T17:15:56Z</time>
      </trkpt>
      <trkpt lat="45.28857" lon="5.8536">
        <ele>933</ele>
        <time>2011-06-26T17:16:00Z</time>
      </trkpt>
      <trkpt lat="45.28856" lon="5.85362">
        <ele>933</ele>
        <time>2011-06-26T17:16:04Z</time>
      </trkpt>
      <trkpt lat="45.28858" lon="5.85366">
        <ele>933</ele>
        <time>2011-06-26T17:16:08Z</time>
      </trkpt>
      <trkpt lat="45.28859" lon="5.85371">
        <ele>933</ele>
        <time>2011-06-26T17:16:12Z</time>
      </trkpt>
      <trkpt lat="45.28858" lon="5.85376">
        <ele>933</ele>
        <time>2011-06-26T17:16:16Z</time>
      </trkpt>
      <trkpt lat="45.2886" lon="5.85383">
        <ele>934</ele>
        <time>2011-06-26T17:16:20Z</time>
      </trkpt>
      <trkpt lat="45.28864" lon="5.85387">
        <ele>934</ele>
        <time>2011-06-26T17:16:24Z</time>
      </trkpt>
      <trkpt lat="45.28864" lon="5.8539">
        <ele>934</ele>
        <time>2011-06-26T17:16:28Z</time>
      </trkpt>
      <trkpt lat="45.28862" lon="5.85393">
        <ele>934</ele>
        <time>2011-06-26T17:16:32Z</time>
      </trkpt>
      <trkpt lat="45.2886" lon="5.85396">
        <ele>934</ele>
        <time>2011-06-26T17:16:36Z</time>
      </trkpt>
      <trkpt lat="45.2886" lon="5.85398">
        <ele>934</ele>
        <time>2011-06-26T17:16:40Z</time>
      </trkpt>
      <trkpt lat="45.28856" lon="5.85402">
        <ele>934</ele>
        <time>2011-06-26T17:16:44Z</time>
      </trkpt>
      <trkpt lat="45.28853" lon="5.85406">
        <ele>933</ele>
        <time>2011-06-26T17:16:48Z</time>
      </trkpt>
      <trkpt lat="45.28849" lon="5.85407">
        <ele>933</ele>
        <time>2011-06-26T17:16:52Z</time>
      </trkpt>
      <trkpt lat="45.28844" lon="5.85407">
        <ele>933</ele>
        <time>2011-06-26T17:16:56Z</time>
      </trkpt>
      <trkpt lat="45.28839" lon="5.85405">
        <ele>932</ele>
        <time>2011-06-26T17:17:00Z</time>
      </trkpt>
      <trkpt lat="45.28834" lon="5.85405">
        <ele>932</ele>
        <time>2011-06-26T17:17:04Z</time>
      </trkpt>
      <trkpt lat="45.2883" lon="5.85403">
        <ele>927</ele>
        <time>2011-06-26T17:17:08Z</time>
      </trkpt>
      <trkpt lat="45.28826" lon="5.85402">
        <ele>927</ele>
        <time>2011-06-26T17:17:12Z</time>
      </trkpt>
      <trkpt lat="45.28824" lon="5.85403">
        <ele>927</ele>
        <time>2011-06-26T17:17:16Z</time>
      </trkpt>
      <trkpt lat="45.28822" lon="5.85403">
        <ele>927</ele>
        <time>2011-06-26T17:17:20Z</time>
      </trkpt>
      <trkpt lat="45.28833" lon="5.85406">
        <ele>928</ele>
        <time>2011-06-26T17:18:10Z</time>
      </trkpt>
      <trkpt lat="45.28831" lon="5.85406">
        <ele>928</ele>
        <time>2011-06-26T17:18:12Z</time>
      </trkpt>
      <trkpt lat="45.28823" lon="5.85405">
        <ele>927</ele>
        <time>2011-06-26T17:18:16Z</time>
      </trkpt>
      <trkpt lat="45.28811" lon="5.85406">
        <ele>926</ele>
        <time>2011-06-26T17:18:20Z</time>
      </trkpt>
      <trkpt lat="45.28798" lon="5.85406">
        <ele>925</ele>
        <time>2011-06-26T17:18:24Z</time>
      </trkpt>
      <trkpt lat="45.28787" lon="5.85408">
        <ele>924</ele>
        <time>2011-06-26T17:18:28Z</time>
      </trkpt>
      <trkpt lat="45.28775" lon="5.85412">
        <ele>924</ele>
        <time>2011-06-26T17:18:32Z</time>
      </trkpt>
      <trkpt lat="45.28763" lon="5.85416">
        <ele>925</ele>
        <time>2011-06-26T17:18:36Z</time>
      </trkpt>
      <trkpt lat="45.28752" lon="5.8542">
        <ele>929</ele>
        <time>2011-06-26T17:18:40Z</time>
      </trkpt>
      <trkpt lat="45.28741" lon="5.85423">
        <ele>932</ele>
        <time>2011-06-26T17:18:44Z</time>
      </trkpt>
      <trkpt lat="45.2873" lon="5.8543">
        <ele>935</ele>
        <time>2011-06-26T17:18:48Z</time>
      </trkpt>
      <trkpt lat="45.28719" lon="5.85438">
        <ele>937</ele>
        <time>2011-06-26T17:18:52Z</time>
      </trkpt>
      <trkpt lat="45.28713" lon="5.85451">
        <ele>939</ele>
        <time>2011-06-26T17:18:56Z</time>
      </trkpt>
      <trkpt lat="45.28708" lon="5.85462">
        <ele>941</ele>
        <time>2011-06-26T17:19:00Z</time>
      </trkpt>
      <trkpt lat="45.28699" lon="5.85471">
        <ele>943</ele>
        <time>2011-06-26T17:19:04Z</time>
      </trkpt>
      <trkpt lat="45.28692" lon="5.85483">
        <ele>945</ele>
        <time>2011-06-26T17:19:08Z</time>
      </trkpt>
      <trkpt lat="45.28684" lon="5.85492">
        <ele>947</ele>
        <time>2011-06-26T17:19:12Z</time>
      </trkpt>
      <trkpt lat="45.28671" lon="5.855">
        <ele>952</ele>
        <time>2011-06-26T17:19:17Z</time>
      </trkpt>
      <trkpt lat="45.28664" lon="5.85504">
        <ele>953</ele>
        <time>2011-06-26T17:19:20Z</time>
      </trkpt>
      <trkpt lat="45.28653" lon="5.85513">
        <ele>950</ele>
        <time>2011-06-26T17:19:24Z</time>
      </trkpt>
      <trkpt lat="45.28641" lon="5.85521">
        <ele>949</ele>
        <time>2011-06-26T17:19:28Z</time>
      </trkpt>
      <trkpt lat="45.28631" lon="5.85528">
        <ele>948</ele>
        <time>2011-06-26T17:19:32Z</time>
      </trkpt>
      <trkpt lat="45.28621" lon="5.85536">
        <ele>947</ele>
        <time>2011-06-26T17:19:36Z</time>
      </trkpt>
      <trkpt lat="45.28613" lon="5.85547">
        <ele>947</ele>
        <time>2011-06-26T17:19:40Z</time>
      </trkpt>
      <trkpt lat="45.28605" lon="5.85557">
        <ele>947</ele>
        <time>2011-06-26T17:19:45Z</time>
      </trkpt>
      <trkpt lat="45.286" lon="5.85563">
        <ele>946</ele>
        <time>2011-06-26T17:19:48Z</time>
      </trkpt>
      <trkpt lat="45.28597" lon="5.85572">
        <ele>946</ele>
        <time>2011-06-26T17:19:52Z</time>
      </trkpt>
      <trkpt lat="45.2859" lon="5.8558">
        <ele>946</ele>
        <time>2011-06-26T17:19:56Z</time>
      </trkpt>
      <trkpt lat="45.28584" lon="5.85588">
        <ele>947</ele>
        <time>2011-06-26T17:20:00Z</time>
      </trkpt>
      <trkpt lat="45.28581" lon="5.85597">
        <ele>938</ele>
        <time>2011-06-26T17:20:04Z</time>
      </trkpt>
      <trkpt lat="45.28578" lon="5.85605">
        <ele>936</ele>
        <time>2011-06-26T17:20:08Z</time>
      </trkpt>
      <trkpt lat="45.28575" lon="5.85613">
        <ele>935</ele>
        <time>2011-06-26T17:20:12Z</time>
      </trkpt>
      <trkpt lat="45.28571" lon="5.85622">
        <ele>934</ele>
        <time>2011-06-26T17:20:16Z</time>
      </trkpt>
      <trkpt lat="45.28568" lon="5.8563">
        <ele>935</ele>
        <time>2011-06-26T17:20:20Z</time>
      </trkpt>
      <trkpt lat="45.28566" lon="5.85638">
        <ele>935</ele>
        <time>2011-06-26T17:20:24Z</time>
      </trkpt>
      <trkpt lat="45.28565" lon="5.85647">
        <ele>937</ele>
        <time>2011-06-26T17:20:28Z</time>
      </trkpt>
      <trkpt lat="45.28555" lon="5.85652">
        <ele>935</ele>
        <time>2011-06-26T17:20:32Z</time>
      </trkpt>
      <trkpt lat="45.28539" lon="5.85655">
        <ele>931</ele>
        <time>2011-06-26T17:20:36Z</time>
      </trkpt>
      <trkpt lat="45.28522" lon="5.85658">
        <ele>929</ele>
        <time>2011-06-26T17:20:40Z</time>
      </trkpt>
      <trkpt lat="45.28508" lon="5.85661">
        <ele>927</ele>
        <time>2011-06-26T17:20:44Z</time>
      </trkpt>
      <trkpt lat="45.28496" lon="5.85663">
        <ele>919</ele>
        <time>2011-06-26T17:20:48Z</time>
      </trkpt>
      <trkpt lat="45.28485" lon="5.85666">
        <ele>906</ele>
        <time>2011-06-26T17:20:52Z</time>
      </trkpt>
      <trkpt lat="45.28474" lon="5.85672">
        <ele>920</ele>
        <time>2011-06-26T17:20:56Z</time>
      </trkpt>
      <trkpt lat="45.28467" lon="5.85678">
        <ele>918</ele>
        <time>2011-06-26T17:21:00Z</time>
      </trkpt>
      <trkpt lat="45.2846" lon="5.85684">
        <ele>917</ele>
        <time>2011-06-26T17:21:04Z</time>
      </trkpt>
      <trkpt lat="45.28457" lon="5.85689">
        <ele>916</ele>
        <time>2011-06-26T17:21:08Z</time>
      </trkpt>
      <trkpt lat="45.28455" lon="5.85697">
        <ele>917</ele>
        <time>2011-06-26T17:21:12Z</time>
      </trkpt>
      <trkpt lat="45.28455" lon="5.85705">
        <ele>919</ele>
        <time>2011-06-26T17:21:16Z</time>
      </trkpt>
      <trkpt lat="45.28456" lon="5.85712">
        <ele>921</ele>
        <time>2011-06-26T17:21:20Z</time>
      </trkpt>
      <trkpt lat="45.28455" lon="5.85718">
        <ele>922</ele>
        <time>2011-06-26T17:21:24Z</time>
      </trkpt>
      <trkpt lat="45.28456" lon="5.85721">
        <ele>923</ele>
        <time>2011-06-26T17:21:28Z</time>
      </trkpt>
      <trkpt lat="45.28458" lon="5.85725">
        <ele>924</ele>
        <time>2011-06-26T17:21:32Z</time>
      </trkpt>
      <trkpt lat="45.28459" lon="5.8573">
        <ele>925</ele>
        <time>2011-06-26T17:21:36Z</time>
      </trkpt>
      <trkpt lat="45.28459" lon="5.85734">
        <ele>926</ele>
        <time>2011-06-26T17:21:40Z</time>
      </trkpt>
      <trkpt lat="45.28459" lon="5.85738">
        <ele>926</ele>
        <time>2011-06-26T17:21:44Z</time>
      </trkpt>
      <trkpt lat="45.28461" lon="5.85743">
        <ele>927</ele>
        <time>2011-06-26T17:21:48Z</time>
      </trkpt>
      <trkpt lat="45.28461" lon="5.85748">
        <ele>928</ele>
        <time>2011-06-26T17:21:52Z</time>
      </trkpt>
      <trkpt lat="45.2846" lon="5.85752">
        <ele>942</ele>
        <time>2011-06-26T17:21:56Z</time>
      </trkpt>
      <trkpt lat="45.2846" lon="5.85756">
        <ele>942</ele>
        <time>2011-06-26T17:22:00Z</time>
      </trkpt>
      <trkpt lat="45.2846" lon="5.85761">
        <ele>942</ele>
        <time>2011-06-26T17:22:04Z</time>
      </trkpt>
      <trkpt lat="45.28461" lon="5.85765">
        <ele>942</ele>
        <time>2011-06-26T17:22:08Z</time>
      </trkpt>
      <trkpt lat="45.28461" lon="5.85769">
        <ele>942</ele>
        <time>2011-06-26T17:22:12Z</time>
      </trkpt>
      <trkpt lat="45.28461" lon="5.85773">
        <ele>942</ele>
        <time>2011-06-26T17:22:16Z</time>
      </trkpt>
      <trkpt lat="45.2846" lon="5.85778">
        <ele>943</ele>
        <time>2011-06-26T17:22:20Z</time>
      </trkpt>
      <trkpt lat="45.2846" lon="5.85783">
        <ele>943</ele>
        <time>2011-06-26T17:22:24Z</time>
      </trkpt>
      <trkpt lat="45.28461" lon="5.85786">
        <ele>943</ele>
        <time>2011-06-26T17:22:28Z</time>
      </trkpt>
      <trkpt lat="45.28463" lon="5.85792">
        <ele>944</ele>
        <time>2011-06-26T17:22:32Z</time>
      </trkpt>
      <trkpt lat="45.28466" lon="5.85797">
        <ele>944</ele>
        <time>2011-06-26T17:22:36Z</time>
      </trkpt>
      <trkpt lat="45.28468" lon="5.85799">
        <ele>945</ele>
        <time>2011-06-26T17:22:40Z</time>
      </trkpt>
      <trkpt lat="45.2847" lon="5.85802">
        <ele>945</ele>
        <time>2011-06-26T17:22:44Z</time>
      </trkpt>
      <trkpt lat="45.28471" lon="5.85805">
        <ele>945</ele>
        <time>2011-06-26T17:22:48Z</time>
      </trkpt>
      <trkpt lat="45.28474" lon="5.85807">
        <ele>946</ele>
        <time>2011-06-26T17:22:52Z</time>
      </trkpt>
      <trkpt lat="45.28476" lon="5.85811">
        <ele>946</ele>
        <time>2011-06-26T17:22:56Z</time>
      </trkpt>
      <trkpt lat="45.28478" lon="5.85813">
        <ele>947</ele>
        <time>2011-06-26T17:23:00Z</time>
      </trkpt>
      <trkpt lat="45.2848" lon="5.85816">
        <ele>948</ele>
        <time>2011-06-26T17:23:04Z</time>
      </trkpt>
      <trkpt lat="45.28481" lon="5.8582">
        <ele>948</ele>
        <time>2011-06-26T17:23:08Z</time>
      </trkpt>
      <trkpt lat="45.28482" lon="5.85822">
        <ele>949</ele>
        <time>2011-06-26T17:23:12Z</time>
      </trkpt>
      <trkpt lat="45.28485" lon="5.85825">
        <ele>950</ele>
        <time>2011-06-26T17:23:16Z</time>
      </trkpt>
      <trkpt lat="45.28488" lon="5.85828">
        <ele>951</ele>
        <time>2011-06-26T17:23:20Z</time>
      </trkpt>
      <trkpt lat="45.2849" lon="5.85831">
        <ele>952</ele>
        <time>2011-06-26T17:23:24Z</time>
      </trkpt>
      <trkpt lat="45.28492" lon="5.85834">
        <ele>952</ele>
        <time>2011-06-26T17:23:28Z</time>
      </trkpt>
      <trkpt lat="45.28495" lon="5.85837">
        <ele>953</ele>
        <time>2011-06-26T17:23:32Z</time>
      </trkpt>
      <trkpt lat="45.28497" lon="5.8584">
        <ele>953</ele>
        <time>2011-06-26T17:23:36Z</time>
      </trkpt>
      <trkpt lat="45.285" lon="5.85844">
        <ele>956</ele>
        <time>2011-06-26T17:23:40Z</time>
      </trkpt>
      <trkpt lat="45.28504" lon="5.85847">
        <ele>955</ele>
        <time>2011-06-26T17:23:44Z</time>
      </trkpt>
      <trkpt lat="45.28507" lon="5.85851">
        <ele>955</ele>
        <time>2011-06-26T17:23:48Z</time>
      </trkpt>
      <trkpt lat="45.28511" lon="5.85854">
        <ele>955</ele>
        <time>2011-06-26T17:23:52Z</time>
      </trkpt>
      <trkpt lat="45.28515" lon="5.85857">
        <ele>955</ele>
        <time>2011-06-26T17:23:56Z</time>
      </trkpt>
      <trkpt lat="45.28519" lon="5.8586">
        <ele>955</ele>
        <time>2011-06-26T17:24:00Z</time>
      </trkpt>
      <trkpt lat="45.28523" lon="5.85864">
        <ele>955</ele>
        <time>2011-06-26T17:24:04Z</time>
      </trkpt>
      <trkpt lat="45.28526" lon="5.85867">
        <ele>955</ele>
        <time>2011-06-26T17:24:08Z</time>
      </trkpt>
      <trkpt lat="45.28528" lon="5.8587">
        <ele>955</ele>
        <time>2011-06-26T17:24:12Z</time>
      </trkpt>
      <trkpt lat="45.28529" lon="5.85874">
        <ele>955</ele>
        <time>2011-06-26T17:24:16Z</time>
      </trkpt>
      <trkpt lat="45.28531" lon="5.85878">
        <ele>954</ele>
        <time>2011-06-26T17:24:20Z</time>
      </trkpt>
      <trkpt lat="45.28531" lon="5.85881">
        <ele>954</ele>
        <time>2011-06-26T17:24:24Z</time>
      </trkpt>
      <trkpt lat="45.28532" lon="5.85885">
        <ele>954</ele>
        <time>2011-06-26T17:24:28Z</time>
      </trkpt>
      <trkpt lat="45.28532" lon="5.85889">
        <ele>954</ele>
        <time>2011-06-26T17:24:32Z</time>
      </trkpt>
      <trkpt lat="45.28533" lon="5.85892">
        <ele>953</ele>
        <time>2011-06-26T17:24:36Z</time>
      </trkpt>
      <trkpt lat="45.28534" lon="5.85896">
        <ele>953</ele>
        <time>2011-06-26T17:24:41Z</time>
      </trkpt>
      <trkpt lat="45.28535" lon="5.85897">
        <ele>953</ele>
        <time>2011-06-26T17:24:44Z</time>
      </trkpt>
      <trkpt lat="45.28537" lon="5.859">
        <ele>954</ele>
        <time>2011-06-26T17:24:48Z</time>
      </trkpt>
      <trkpt lat="45.28539" lon="5.85902">
        <ele>954</ele>
        <time>2011-06-26T17:24:52Z</time>
      </trkpt>
      <trkpt lat="45.28541" lon="5.85904">
        <ele>954</ele>
        <time>2011-06-26T17:24:56Z</time>
      </trkpt>
      <trkpt lat="45.28543" lon="5.85906">
        <ele>954</ele>
        <time>2011-06-26T17:25:00Z</time>
      </trkpt>
      <trkpt lat="45.28546" lon="5.85908">
        <ele>955</ele>
        <time>2011-06-26T17:25:04Z</time>
      </trkpt>
      <trkpt lat="45.28548" lon="5.85911">
        <ele>955</ele>
        <time>2011-06-26T17:25:08Z</time>
      </trkpt>
      <trkpt lat="45.28551" lon="5.85914">
        <ele>956</ele>
        <time>2011-06-26T17:25:12Z</time>
      </trkpt>
      <trkpt lat="45.28554" lon="5.85917">
        <ele>956</ele>
        <time>2011-06-26T17:25:16Z</time>
      </trkpt>
      <trkpt lat="45.28556" lon="5.8592">
        <ele>954</ele>
        <time>2011-06-26T17:25:20Z</time>
      </trkpt>
      <trkpt lat="45.28558" lon="5.85924">
        <ele>954</ele>
        <time>2011-06-26T17:25:24Z</time>
      </trkpt>
      <trkpt lat="45.28559" lon="5.85925">
        <ele>955</ele>
        <time>2011-06-26T17:25:28Z</time>
      </trkpt>
      <trkpt lat="45.28562" lon="5.85926">
        <ele>955</ele>
        <time>2011-06-26T17:25:32Z</time>
      </trkpt>
      <trkpt lat="45.28564" lon="5.85927">
        <ele>956</ele>
        <time>2011-06-26T17:25:36Z</time>
      </trkpt>
      <trkpt lat="45.28567" lon="5.85929">
        <ele>956</ele>
        <time>2011-06-26T17:25:40Z</time>
      </trkpt>
      <trkpt lat="45.2857" lon="5.8593">
        <ele>956</ele>
        <time>2011-06-26T17:25:44Z</time>
      </trkpt>
      <trkpt lat="45.28572" lon="5.85931">
        <ele>957</ele>
        <time>2011-06-26T17:25:48Z</time>
      </trkpt>
      <trkpt lat="45.28574" lon="5.85933">
        <ele>957</ele>
        <time>2011-06-26T17:25:52Z</time>
      </trkpt>
      <trkpt lat="45.28577" lon="5.85934">
        <ele>957</ele>
        <time>2011-06-26T17:25:56Z</time>
      </trkpt>
      <trkpt lat="45.2858" lon="5.85934">
        <ele>957</ele>
        <time>2011-06-26T17:26:00Z</time>
      </trkpt>
      <trkpt lat="45.28582" lon="5.85933">
        <ele>958</ele>
        <time>2011-06-26T17:26:04Z</time>
      </trkpt>
      <trkpt lat="45.28585" lon="5.85932">
        <ele>966</ele>
        <time>2011-06-26T17:26:08Z</time>
      </trkpt>
      <trkpt lat="45.28587" lon="5.85931">
        <ele>966</ele>
        <time>2011-06-26T17:26:12Z</time>
      </trkpt>
      <trkpt lat="45.28589" lon="5.85931">
        <ele>966</ele>
        <time>2011-06-26T17:26:16Z</time>
      </trkpt>
      <trkpt lat="45.28591" lon="5.85929">
        <ele>967</ele>
        <time>2011-06-26T17:26:20Z</time>
      </trkpt>
      <trkpt lat="45.28593" lon="5.85924">
        <ele>966</ele>
        <time>2011-06-26T17:26:24Z</time>
      </trkpt>
      <trkpt lat="45.28595" lon="5.85923">
        <ele>966</ele>
        <time>2011-06-26T17:26:28Z</time>
      </trkpt>
      <trkpt lat="45.28597" lon="5.85921">
        <ele>967</ele>
        <time>2011-06-26T17:26:32Z</time>
      </trkpt>
      <trkpt lat="45.28599" lon="5.85919">
        <ele>967</ele>
        <time>2011-06-26T17:26:36Z</time>
      </trkpt>
      <trkpt lat="45.28602" lon="5.85918">
        <ele>967</ele>
        <time>2011-06-26T17:26:40Z</time>
      </trkpt>
      <trkpt lat="45.28604" lon="5.85917">
        <ele>967</ele>
        <time>2011-06-26T17:26:44Z</time>
      </trkpt>
      <trkpt lat="45.28607" lon="5.85915">
        <ele>967</ele>
        <time>2011-06-26T17:26:48Z</time>
      </trkpt>
      <trkpt lat="45.28609" lon="5.85915">
        <ele>967</ele>
        <time>2011-06-26T17:26:52Z</time>
      </trkpt>
      <trkpt lat="45.28611" lon="5.85914">
        <ele>968</ele>
        <time>2011-06-26T17:26:56Z</time>
      </trkpt>
      <trkpt lat="45.28612" lon="5.85913">
        <ele>968</ele>
        <time>2011-06-26T17:27:00Z</time>
      </trkpt>
      <trkpt lat="45.28615" lon="5.85913">
        <ele>968</ele>
        <time>2011-06-26T17:27:04Z</time>
      </trkpt>
      <trkpt lat="45.28617" lon="5.85914">
        <ele>968</ele>
        <time>2011-06-26T17:27:08Z</time>
      </trkpt>
      <trkpt lat="45.2862" lon="5.85916">
        <ele>969</ele>
        <time>2011-06-26T17:27:12Z</time>
      </trkpt>
      <trkpt lat="45.28622" lon="5.85917">
        <ele>971</ele>
        <time>2011-06-26T17:27:16Z</time>
      </trkpt>
      <trkpt lat="45.28625" lon="5.85918">
        <ele>971</ele>
        <time>2011-06-26T17:27:20Z</time>
      </trkpt>
      <trkpt lat="45.28628" lon="5.85919">
        <ele>972</ele>
        <time>2011-06-26T17:27:24Z</time>
      </trkpt>
      <trkpt lat="45.28632" lon="5.8592">
        <ele>972</ele>
        <time>2011-06-26T17:27:28Z</time>
      </trkpt>
      <trkpt lat="45.28636" lon="5.8592">
        <ele>973</ele>
        <time>2011-06-26T17:27:32Z</time>
      </trkpt>
      <trkpt lat="45.28639" lon="5.85919">
        <ele>973</ele>
        <time>2011-06-26T17:27:36Z</time>
      </trkpt>
      <trkpt lat="45.28644" lon="5.8592">
        <ele>974</ele>
        <time>2011-06-26T17:27:40Z</time>
      </trkpt>
      <trkpt lat="45.28649" lon="5.8592">
        <ele>975</ele>
        <time>2011-06-26T17:27:44Z</time>
      </trkpt>
      <trkpt lat="45.28654" lon="5.8592">
        <ele>976</ele>
        <time>2011-06-26T17:27:48Z</time>
      </trkpt>
      <trkpt lat="45.28659" lon="5.8592">
        <ele>977</ele>
        <time>2011-06-26T17:27:52Z</time>
      </trkpt>
      <trkpt lat="45.28666" lon="5.85919">
        <ele>978</ele>
        <time>2011-06-26T17:27:56Z</time>
      </trkpt>
      <trkpt lat="45.28673" lon="5.85916">
        <ele>979</ele>
        <time>2011-06-26T17:28:00Z</time>
      </trkpt>
      <trkpt lat="45.28678" lon="5.85916">
        <ele>980</ele>
        <time>2011-06-26T17:28:04Z</time>
      </trkpt>
      <trkpt lat="45.28684" lon="5.85916">
        <ele>980</ele>
        <time>2011-06-26T17:28:08Z</time>
      </trkpt>
      <trkpt lat="45.28689" lon="5.85915">
        <ele>981</ele>
        <time>2011-06-26T17:28:12Z</time>
      </trkpt>
      <trkpt lat="45.28695" lon="5.85915">
        <ele>981</ele>
        <time>2011-06-26T17:28:16Z</time>
      </trkpt>
      <trkpt lat="45.287" lon="5.85915">
        <ele>982</ele>
        <time>2011-06-26T17:28:20Z</time>
      </trkpt>
      <trkpt lat="45.28706" lon="5.85915">
        <ele>982</ele>
        <time>2011-06-26T17:28:24Z</time>
      </trkpt>
      <trkpt lat="45.28714" lon="5.85913">
        <ele>983</ele>
        <time>2011-06-26T17:28:28Z</time>
      </trkpt>
      <trkpt lat="45.28722" lon="5.85912">
        <ele>984</ele>
        <time>2011-06-26T17:28:32Z</time>
      </trkpt>
      <trkpt lat="45.2873" lon="5.85911">
        <ele>986</ele>
        <time>2011-06-26T17:28:36Z</time>
      </trkpt>
      <trkpt lat="45.28739" lon="5.85911">
        <ele>988</ele>
        <time>2011-06-26T17:28:40Z</time>
      </trkpt>
      <trkpt lat="45.28747" lon="5.85914">
        <ele>991</ele>
        <time>2011-06-26T17:28:44Z</time>
      </trkpt>
      <trkpt lat="45.28754" lon="5.85915">
        <ele>991</ele>
        <time>2011-06-26T17:28:48Z</time>
      </trkpt>
      <trkpt lat="45.28761" lon="5.85917">
        <ele>991</ele>
        <time>2011-06-26T17:28:52Z</time>
      </trkpt>
      <trkpt lat="45.28769" lon="5.85917">
        <ele>990</ele>
        <time>2011-06-26T17:28:56Z</time>
      </trkpt>
      <trkpt lat="45.28778" lon="5.85921">
        <ele>989</ele>
        <time>2011-06-26T17:29:00Z</time>
      </trkpt>
      <trkpt lat="45.28785" lon="5.85926">
        <ele>988</ele>
        <time>2011-06-26T17:29:04Z</time>
      </trkpt>
      <trkpt lat="45.28793" lon="5.85929">
        <ele>988</ele>
        <time>2011-06-26T17:29:08Z</time>
      </trkpt>
      <trkpt lat="45.28802" lon="5.85933">
        <ele>987</ele>
        <time>2011-06-26T17:29:12Z</time>
      </trkpt>
      <trkpt lat="45.28811" lon="5.85937">
        <ele>987</ele>
        <time>2011-06-26T17:29:16Z</time>
      </trkpt>
      <trkpt lat="45.28819" lon="5.85941">
        <ele>986</ele>
        <time>2011-06-26T17:29:20Z</time>
      </trkpt>
      <trkpt lat="45.28826" lon="5.85943">
        <ele>986</ele>
        <time>2011-06-26T17:29:24Z</time>
      </trkpt>
      <trkpt lat="45.28833" lon="5.85946">
        <ele>986</ele>
        <time>2011-06-26T17:29:28Z</time>
      </trkpt>
      <trkpt lat="45.28841" lon="5.8595">
        <ele>980</ele>
        <time>2011-06-26T17:29:32Z</time>
      </trkpt>
      <trkpt lat="45.28849" lon="5.85953">
        <ele>980</ele>
        <time>2011-06-26T17:29:36Z</time>
      </trkpt>
      <trkpt lat="45.28857" lon="5.85957">
        <ele>980</ele>
        <time>2011-06-26T17:29:40Z</time>
      </trkpt>
      <trkpt lat="45.28864" lon="5.85959">
        <ele>979</ele>
        <time>2011-06-26T17:29:44Z</time>
      </trkpt>
      <trkpt lat="45.28872" lon="5.85961">
        <ele>979</ele>
        <time>2011-06-26T17:29:48Z</time>
      </trkpt>
      <trkpt lat="45.2888" lon="5.85963">
        <ele>979</ele>
        <time>2011-06-26T17:29:52Z</time>
      </trkpt>
      <trkpt lat="45.28887" lon="5.85967">
        <ele>979</ele>
        <time>2011-06-26T17:29:56Z</time>
      </trkpt>
      <trkpt lat="45.28895" lon="5.8597">
        <ele>978</ele>
        <time>2011-06-26T17:30:00Z</time>
      </trkpt>
      <trkpt lat="45.28906" lon="5.85974">
        <ele>978</ele>
        <time>2011-06-26T17:30:04Z</time>
      </trkpt>
      <trkpt lat="45.28916" lon="5.85976">
        <ele>978</ele>
        <time>2011-06-26T17:30:08Z</time>
      </trkpt>
      <trkpt lat="45.28925" lon="5.85977">
        <ele>977</ele>
        <time>2011-06-26T17:30:12Z</time>
      </trkpt>
      <trkpt lat="45.28931" lon="5.85978">
        <ele>977</ele>
        <time>2011-06-26T17:30:16Z</time>
      </trkpt>
      <trkpt lat="45.28939" lon="5.8598">
        <ele>978</ele>
        <time>2011-06-26T17:30:20Z</time>
      </trkpt>
      <trkpt lat="45.28948" lon="5.85984">
        <ele>978</ele>
        <time>2011-06-26T17:30:24Z</time>
      </trkpt>
      <trkpt lat="45.28956" lon="5.85987">
        <ele>978</ele>
        <time>2011-06-26T17:30:28Z</time>
      </trkpt>
      <trkpt lat="45.28961" lon="5.8599">
        <ele>978</ele>
        <time>2011-06-26T17:30:32Z</time>
      </trkpt>
      <trkpt lat="45.28967" lon="5.85993">
        <ele>978</ele>
        <time>2011-06-26T17:30:36Z</time>
      </trkpt>
      <trkpt lat="45.28972" lon="5.85993">
        <ele>978</ele>
        <time>2011-06-26T17:30:40Z</time>
      </trkpt>
      <trkpt lat="45.28977" lon="5.85994">
        <ele>978</ele>
        <time>2011-06-26T17:30:44Z</time>
      </trkpt>
      <trkpt lat="45.28983" lon="5.85994">
        <ele>979</ele>
        <time>2011-06-26T17:30:48Z</time>
      </trkpt>
      <trkpt lat="45.2899" lon="5.85993">
        <ele>979</ele>
        <time>2011-06-26T17:30:52Z</time>
      </trkpt>
      <trkpt lat="45.28995" lon="5.85993">
        <ele>979</ele>
        <time>2011-06-26T17:30:56Z</time>
      </trkpt>
      <trkpt lat="45.29001" lon="5.85994">
        <ele>980</ele>
        <time>2011-06-26T17:31:00Z</time>
      </trkpt>
      <trkpt lat="45.29006" lon="5.85993">
        <ele>981</ele>
        <time>2011-06-26T17:31:04Z</time>
      </trkpt>
      <trkpt lat="45.2901" lon="5.85992">
        <ele>981</ele>
        <time>2011-06-26T17:31:08Z</time>
      </trkpt>
      <trkpt lat="45.29016" lon="5.85992">
        <ele>982</ele>
        <time>2011-06-26T17:31:12Z</time>
      </trkpt>
      <trkpt lat="45.29023" lon="5.85995">
        <ele>983</ele>
        <time>2011-06-26T17:31:16Z</time>
      </trkpt>
      <trkpt lat="45.29029" lon="5.85997">
        <ele>984</ele>
        <time>2011-06-26T17:31:20Z</time>
      </trkpt>
      <trkpt lat="45.29034" lon="5.86">
        <ele>984</ele>
        <time>2011-06-26T17:31:24Z</time>
      </trkpt>
      <trkpt lat="45.29039" lon="5.86001">
        <ele>984</ele>
        <time>2011-06-26T17:31:28Z</time>
      </trkpt>
      <trkpt lat="45.29044" lon="5.86003">
        <ele>984</ele>
        <time>2011-06-26T17:31:32Z</time>
      </trkpt>
      <trkpt lat="45.2905" lon="5.86003">
        <ele>985</ele>
        <time>2011-06-26T17:31:36Z</time>
      </trkpt>
      <trkpt lat="45.29056" lon="5.86004">
        <ele>985</ele>
        <time>2011-06-26T17:31:40Z</time>
      </trkpt>
      <trkpt lat="45.29061" lon="5.86005">
        <ele>986</ele>
        <time>2011-06-26T17:31:44Z</time>
      </trkpt>
      <trkpt lat="45.29066" lon="5.86008">
        <ele>987</ele>
        <time>2011-06-26T17:31:48Z</time>
      </trkpt>
      <trkpt lat="45.2907" lon="5.8601">
        <ele>987</ele>
        <time>2011-06-26T17:31:52Z</time>
      </trkpt>
      <trkpt lat="45.29073" lon="5.86013">
        <ele>987</ele>
        <time>2011-06-26T17:31:56Z</time>
      </trkpt>
      <trkpt lat="45.29076" lon="5.86014">
        <ele>987</ele>
        <time>2011-06-26T17:32:00Z</time>
      </trkpt>
      <trkpt lat="45.29081" lon="5.86018">
        <ele>987</ele>
        <time>2011-06-26T17:32:04Z</time>
      </trkpt>
      <trkpt lat="45.29085" lon="5.86021">
        <ele>992</ele>
        <time>2011-06-26T17:32:08Z</time>
      </trkpt>
      <trkpt lat="45.29089" lon="5.86026">
        <ele>992</ele>
        <time>2011-06-26T17:32:12Z</time>
      </trkpt>
      <trkpt lat="45.29093" lon="5.86029">
        <ele>992</ele>
        <time>2011-06-26T17:32:16Z</time>
      </trkpt>
      <trkpt lat="45.29098" lon="5.8603">
        <ele>992</ele>
        <time>2011-06-26T17:32:20Z</time>
      </trkpt>
      <trkpt lat="45.29105" lon="5.86029">
        <ele>993</ele>
        <time>2011-06-26T17:32:24Z</time>
      </trkpt>
      <trkpt lat="45.29113" lon="5.86027">
        <ele>993</ele>
        <time>2011-06-26T17:32:28Z</time>
      </trkpt>
      <trkpt lat="45.29121" lon="5.86025">
        <ele>993</ele>
        <time>2011-06-26T17:32:32Z</time>
      </trkpt>
      <trkpt lat="45.29129" lon="5.86023">
        <ele>994</ele>
        <time>2011-06-26T17:32:36Z</time>
      </trkpt>
      <trkpt lat="45.29136" lon="5.86022">
        <ele>994</ele>
        <time>2011-06-26T17:32:40Z</time>
      </trkpt>
      <trkpt lat="45.29143" lon="5.86022">
        <ele>995</ele>
        <time>2011-06-26T17:32:44Z</time>
      </trkpt>
      <trkpt lat="45.29149" lon="5.86021">
        <ele>995</ele>
        <time>2011-06-26T17:32:48Z</time>
      </trkpt>
      <trkpt lat="45.29155" lon="5.86021">
        <ele>996</ele>
        <time>2011-06-26T17:32:52Z</time>
      </trkpt>
      <trkpt lat="45.29161" lon="5.86024">
        <ele>996</ele>
        <time>2011-06-26T17:32:56Z</time>
      </trkpt>
      <trkpt lat="45.29166" lon="5.86023">
        <ele>996</ele>
        <time>2011-06-26T17:33:00Z</time>
      </trkpt>
      <trkpt lat="45.29171" lon="5.86021">
        <ele>1001</ele>
        <time>2011-06-26T17:33:04Z</time>
      </trkpt>
      <trkpt lat="45.29175" lon="5.86026">
        <ele>1001</ele>
        <time>2011-06-26T17:33:08Z</time>
      </trkpt>
      <trkpt lat="45.29178" lon="5.8603">
        <ele>1001</ele>
        <time>2011-06-26T17:33:12Z</time>
      </trkpt>
      <trkpt lat="45.29182" lon="5.86034">
        <ele>1001</ele>
        <time>2011-06-26T17:33:16Z</time>
      </trkpt>
      <trkpt lat="45.29185" lon="5.86039">
        <ele>1001</ele>
        <time>2011-06-26T17:33:20Z</time>
      </trkpt>
      <trkpt lat="45.29188" lon="5.86042">
        <ele>1001</ele>
        <time>2011-06-26T17:33:24Z</time>
      </trkpt>
      <trkpt lat="45.29191" lon="5.86046">
        <ele>1001</ele>
        <time>2011-06-26T17:33:28Z</time>
      </trkpt>
      <trkpt lat="45.29194" lon="5.8605">
        <ele>1001</ele>
        <time>2011-06-26T17:33:32Z</time>
      </trkpt>
      <trkpt lat="45.29198" lon="5.86055">
        <ele>1001</ele>
        <time>2011-06-26T17:33:36Z</time>
      </trkpt>
      <trkpt lat="45.29203" lon="5.86059">
        <ele>1001</ele>
        <time>2011-06-26T17:33:40Z</time>
      </trkpt>
      <trkpt lat="45.29208" lon="5.86063">
        <ele>1002</ele>
        <time>2011-06-26T17:33:44Z</time>
      </trkpt>
      <trkpt lat="45.29212" lon="5.86068">
        <ele>1002</ele>
        <time>2011-06-26T17:33:48Z</time>
      </trkpt>
      <trkpt lat="45.29216" lon="5.86072">
        <ele>1002</ele>
        <time>2011-06-26T17:33:52Z</time>
      </trkpt>
      <trkpt lat="45.2922" lon="5.86076">
        <ele>1002</ele>
        <time>2011-06-26T17:33:56Z</time>
      </trkpt>
      <trkpt lat="45.29226" lon="5.8608">
        <ele>1002</ele>
        <time>2011-06-26T17:34:00Z</time>
      </trkpt>
      <trkpt lat="45.29231" lon="5.86084">
        <ele>1001</ele>
        <time>2011-06-26T17:34:04Z</time>
      </trkpt>
      <trkpt lat="45.29236" lon="5.86089">
        <ele>1002</ele>
        <time>2011-06-26T17:34:08Z</time>
      </trkpt>
      <trkpt lat="45.29242" lon="5.86093">
        <ele>1002</ele>
        <time>2011-06-26T17:34:12Z</time>
      </trkpt>
      <trkpt lat="45.29248" lon="5.86097">
        <ele>1002</ele>
        <time>2011-06-26T17:34:16Z</time>
      </trkpt>
      <trkpt lat="45.29252" lon="5.86102">
        <ele>1007</ele>
        <time>2011-06-26T17:34:20Z</time>
      </trkpt>
      <trkpt lat="45.29258" lon="5.86106">
        <ele>1007</ele>
        <time>2011-06-26T17:34:24Z</time>
      </trkpt>
      <trkpt lat="45.29264" lon="5.8611">
        <ele>1008</ele>
        <time>2011-06-26T17:34:28Z</time>
      </trkpt>
      <trkpt lat="45.2927" lon="5.86114">
        <ele>1008</ele>
        <time>2011-06-26T17:34:32Z</time>
      </trkpt>
      <trkpt lat="45.29275" lon="5.86118">
        <ele>1008</ele>
        <time>2011-06-26T17:34:36Z</time>
      </trkpt>
      <trkpt lat="45.2928" lon="5.86122">
        <ele>1009</ele>
        <time>2011-06-26T17:34:40Z</time>
      </trkpt>
      <trkpt lat="45.29284" lon="5.86126">
        <ele>1009</ele>
        <time>2011-06-26T17:34:44Z</time>
      </trkpt>
      <trkpt lat="45.29288" lon="5.8613">
        <ele>1009</ele>
        <time>2011-06-26T17:34:48Z</time>
      </trkpt>
      <trkpt lat="45.29293" lon="5.86135">
        <ele>1009</ele>
        <time>2011-06-26T17:34:52Z</time>
      </trkpt>
      <trkpt lat="45.29298" lon="5.86139">
        <ele>1010</ele>
        <time>2011-06-26T17:34:56Z</time>
      </trkpt>
      <trkpt lat="45.29303" lon="5.86144">
        <ele>1010</ele>
        <time>2011-06-26T17:35:00Z</time>
      </trkpt>
      <trkpt lat="45.29309" lon="5.86148">
        <ele>1011</ele>
        <time>2011-06-26T17:35:04Z</time>
      </trkpt>
      <trkpt lat="45.29314" lon="5.86152">
        <ele>1011</ele>
        <time>2011-06-26T17:35:08Z</time>
      </trkpt>
      <trkpt lat="45.29318" lon="5.86157">
        <ele>1012</ele>
        <time>2011-06-26T17:35:12Z</time>
      </trkpt>
      <trkpt lat="45.29323" lon="5.86163">
        <ele>1012</ele>
        <time>2011-06-26T17:35:16Z</time>
      </trkpt>
      <trkpt lat="45.29327" lon="5.8617">
        <ele>1012</ele>
        <time>2011-06-26T17:35:20Z</time>
      </trkpt>
      <trkpt lat="45.29329" lon="5.86175">
        <ele>1011</ele>
        <time>2011-06-26T17:35:24Z</time>
      </trkpt>
      <trkpt lat="45.29332" lon="5.86179">
        <ele>1011</ele>
        <time>2011-06-26T17:35:31Z</time>
      </trkpt>
      <trkpt lat="45.29333" lon="5.8618">
        <ele>1010</ele>
        <time>2011-06-26T17:35:32Z</time>
      </trkpt>
      <trkpt lat="45.29336" lon="5.86187">
        <ele>1015</ele>
        <time>2011-06-26T17:35:36Z</time>
      </trkpt>
      <trkpt lat="45.29337" lon="5.86195">
        <ele>1015</ele>
        <time>2011-06-26T17:35:40Z</time>
      </trkpt>
      <trkpt lat="45.29338" lon="5.86204">
        <ele>1014</ele>
        <time>2011-06-26T17:35:44Z</time>
      </trkpt>
      <trkpt lat="45.2934" lon="5.86213">
        <ele>1014</ele>
        <time>2011-06-26T17:35:48Z</time>
      </trkpt>
      <trkpt lat="45.29345" lon="5.86218">
        <ele>1014</ele>
        <time>2011-06-26T17:35:52Z</time>
      </trkpt>
      <trkpt lat="45.2935" lon="5.86222">
        <ele>1014</ele>
        <time>2011-06-26T17:35:56Z</time>
      </trkpt>
      <trkpt lat="45.29355" lon="5.86227">
        <ele>1014</ele>
        <time>2011-06-26T17:36:00Z</time>
      </trkpt>
      <trkpt lat="45.29361" lon="5.86231">
        <ele>1014</ele>
        <time>2011-06-26T17:36:04Z</time>
      </trkpt>
      <trkpt lat="45.29365" lon="5.86236">
        <ele>1014</ele>
        <time>2011-06-26T17:36:08Z</time>
      </trkpt>
      <trkpt lat="45.29369" lon="5.86244">
        <ele>1014</ele>
        <time>2011-06-26T17:36:12Z</time>
      </trkpt>
      <trkpt lat="45.29369" lon="5.86255">
        <ele>1010</ele>
        <time>2011-06-26T17:36:16Z</time>
      </trkpt>
      <trkpt lat="45.29369" lon="5.86263">
        <ele>1010</ele>
        <time>2011-06-26T17:36:20Z</time>
      </trkpt>
      <trkpt lat="45.29369" lon="5.86274">
        <ele>1010</ele>
        <time>2011-06-26T17:36:24Z</time>
      </trkpt>
      <trkpt lat="45.29369" lon="5.86285">
        <ele>1009</ele>
        <time>2011-06-26T17:36:28Z</time>
      </trkpt>
      <trkpt lat="45.29372" lon="5.86295">
        <ele>1009</ele>
        <time>2011-06-26T17:36:32Z</time>
      </trkpt>
      <trkpt lat="45.29376" lon="5.86306">
        <ele>1009</ele>
        <time>2011-06-26T17:36:36Z</time>
      </trkpt>
      <trkpt lat="45.29381" lon="5.86316">
        <ele>1009</ele>
        <time>2011-06-26T17:36:40Z</time>
      </trkpt>
      <trkpt lat="45.29385" lon="5.86326">
        <ele>1009</ele>
        <time>2011-06-26T17:36:44Z</time>
      </trkpt>
      <trkpt lat="45.29391" lon="5.86337">
        <ele>1006</ele>
        <time>2011-06-26T17:36:48Z</time>
      </trkpt>
      <trkpt lat="45.29397" lon="5.86348">
        <ele>1006</ele>
        <time>2011-06-26T17:36:52Z</time>
      </trkpt>
      <trkpt lat="45.29405" lon="5.8636">
        <ele>1005</ele>
        <time>2011-06-26T17:36:56Z</time>
      </trkpt>
      <trkpt lat="45.29412" lon="5.86369">
        <ele>1005</ele>
        <time>2011-06-26T17:37:00Z</time>
      </trkpt>
      <trkpt lat="45.29418" lon="5.86377">
        <ele>1011</ele>
        <time>2011-06-26T17:37:04Z</time>
      </trkpt>
      <trkpt lat="45.29425" lon="5.86383">
        <ele>1011</ele>
        <time>2011-06-26T17:37:08Z</time>
      </trkpt>
      <trkpt lat="45.29433" lon="5.86389">
        <ele>1011</ele>
        <time>2011-06-26T17:37:12Z</time>
      </trkpt>
      <trkpt lat="45.29442" lon="5.86394">
        <ele>1012</ele>
        <time>2011-06-26T17:37:16Z</time>
      </trkpt>
      <trkpt lat="45.29451" lon="5.86398">
        <ele>1012</ele>
        <time>2011-06-26T17:37:20Z</time>
      </trkpt>
      <trkpt lat="45.2946" lon="5.86402">
        <ele>1013</ele>
        <time>2011-06-26T17:37:24Z</time>
      </trkpt>
      <trkpt lat="45.29469" lon="5.86407">
        <ele>1013</ele>
        <time>2011-06-26T17:37:28Z</time>
      </trkpt>
      <trkpt lat="45.29478" lon="5.8641">
        <ele>1014</ele>
        <time>2011-06-26T17:37:32Z</time>
      </trkpt>
      <trkpt lat="45.29485" lon="5.86413">
        <ele>1014</ele>
        <time>2011-06-26T17:37:36Z</time>
      </trkpt>
      <trkpt lat="45.29493" lon="5.86417">
        <ele>1012</ele>
        <time>2011-06-26T17:37:40Z</time>
      </trkpt>
      <trkpt lat="45.29501" lon="5.86422">
        <ele>1015</ele>
        <time>2011-06-26T17:37:44Z</time>
      </trkpt>
      <trkpt lat="45.29507" lon="5.86429">
        <ele>1015</ele>
        <time>2011-06-26T17:37:48Z</time>
      </trkpt>
      <trkpt lat="45.29513" lon="5.86435">
        <ele>1015</ele>
        <time>2011-06-26T17:37:52Z</time>
      </trkpt>
      <trkpt lat="45.29511" lon="5.86438">
        <ele>1015</ele>
        <time>2011-06-26T17:37:56Z</time>
      </trkpt>
      <trkpt lat="45.29508" lon="5.86445">
        <ele>1014</ele>
        <time>2011-06-26T17:38:00Z</time>
      </trkpt>
      <trkpt lat="45.29505" lon="5.8645">
        <ele>1013</ele>
        <time>2011-06-26T17:38:04Z</time>
      </trkpt>
      <trkpt lat="45.29503" lon="5.86458">
        <ele>1012</ele>
        <time>2011-06-26T17:38:08Z</time>
      </trkpt>
      <trkpt lat="45.29501" lon="5.86467">
        <ele>1011</ele>
        <time>2011-06-26T17:38:12Z</time>
      </trkpt>
      <trkpt lat="45.29499" lon="5.86475">
        <ele>1004</ele>
        <time>2011-06-26T17:38:16Z</time>
      </trkpt>
      <trkpt lat="45.29496" lon="5.86483">
        <ele>1004</ele>
        <time>2011-06-26T17:38:20Z</time>
      </trkpt>
      <trkpt lat="45.29495" lon="5.8649">
        <ele>1003</ele>
        <time>2011-06-26T17:38:24Z</time>
      </trkpt>
      <trkpt lat="45.29496" lon="5.86495">
        <ele>1003</ele>
        <time>2011-06-26T17:38:28Z</time>
      </trkpt>
      <trkpt lat="45.29496" lon="5.86499">
        <ele>1003</ele>
        <time>2011-06-26T17:38:32Z</time>
      </trkpt>
      <trkpt lat="45.29496" lon="5.86506">
        <ele>1000</ele>
        <time>2011-06-26T17:38:36Z</time>
      </trkpt>
      <trkpt lat="45.29494" lon="5.86514">
        <ele>997</ele>
        <time>2011-06-26T17:38:40Z</time>
      </trkpt>
      <trkpt lat="45.29494" lon="5.86522">
        <ele>995</ele>
        <time>2011-06-26T17:38:44Z</time>
      </trkpt>
      <trkpt lat="45.29496" lon="5.86526">
        <ele>994</ele>
        <time>2011-06-26T17:38:48Z</time>
      </trkpt>
      <trkpt lat="45.29499" lon="5.8653">
        <ele>993</ele>
        <time>2011-06-26T17:38:52Z</time>
      </trkpt>
      <trkpt lat="45.29502" lon="5.86535">
        <ele>997</ele>
        <time>2011-06-26T17:38:56Z</time>
      </trkpt>
      <trkpt lat="45.29505" lon="5.86539">
        <ele>997</ele>
        <time>2011-06-26T17:39:00Z</time>
      </trkpt>
      <trkpt lat="45.29506" lon="5.86541">
        <ele>997</ele>
        <time>2011-06-26T17:39:04Z</time>
      </trkpt>
      <trkpt lat="45.29509" lon="5.86543">
        <ele>996</ele>
        <time>2011-06-26T17:39:08Z</time>
      </trkpt>
      <trkpt lat="45.29512" lon="5.86541">
        <ele>997</ele>
        <time>2011-06-26T17:39:12Z</time>
      </trkpt>
      <trkpt lat="45.29516" lon="5.8654">
        <ele>997</ele>
        <time>2011-06-26T17:39:16Z</time>
      </trkpt>
      <trkpt lat="45.29518" lon="5.86541">
        <ele>997</ele>
        <time>2011-06-26T17:39:20Z</time>
      </trkpt>
      <trkpt lat="45.29522" lon="5.86543">
        <ele>997</ele>
        <time>2011-06-26T17:39:24Z</time>
      </trkpt>
      <trkpt lat="45.29525" lon="5.86544">
        <ele>997</ele>
        <time>2011-06-26T17:39:28Z</time>
      </trkpt>
      <trkpt lat="45.29528" lon="5.86546">
        <ele>997</ele>
        <time>2011-06-26T17:39:32Z</time>
      </trkpt>
      <trkpt lat="45.2953" lon="5.86546">
        <ele>997</ele>
        <time>2011-06-26T17:39:36Z</time>
      </trkpt>
      <trkpt lat="45.29532" lon="5.86549">
        <ele>996</ele>
        <time>2011-06-26T17:39:40Z</time>
      </trkpt>
      <trkpt lat="45.29534" lon="5.86552">
        <ele>996</ele>
        <time>2011-06-26T17:39:44Z</time>
      </trkpt>
      <trkpt lat="45.29535" lon="5.86556">
        <ele>996</ele>
        <time>2011-06-26T17:39:48Z</time>
      </trkpt>
      <trkpt lat="45.29536" lon="5.8656">
        <ele>996</ele>
        <time>2011-06-26T17:39:52Z</time>
      </trkpt>
      <trkpt lat="45.29539" lon="5.8657">
        <ele>995</ele>
        <time>2011-06-26T17:39:56Z</time>
      </trkpt>
      <trkpt lat="45.29541" lon="5.86575">
        <ele>995</ele>
        <time>2011-06-26T17:40:00Z</time>
      </trkpt>
      <trkpt lat="45.2954" lon="5.86582">
        <ele>994</ele>
        <time>2011-06-26T17:40:04Z</time>
      </trkpt>
      <trkpt lat="45.29536" lon="5.86586">
        <ele>983</ele>
        <time>2011-06-26T17:40:08Z</time>
      </trkpt>
      <trkpt lat="45.29534" lon="5.86592">
        <ele>983</ele>
        <time>2011-06-26T17:40:12Z</time>
      </trkpt>
      <trkpt lat="45.29534" lon="5.86594">
        <ele>983</ele>
        <time>2011-06-26T17:40:16Z</time>
      </trkpt>
      <trkpt lat="45.29533" lon="5.86599">
        <ele>982</ele>
        <time>2011-06-26T17:40:20Z</time>
      </trkpt>
      <trkpt lat="45.29532" lon="5.86602">
        <ele>982</ele>
        <time>2011-06-26T17:40:24Z</time>
      </trkpt>
      <trkpt lat="45.29531" lon="5.86604">
        <ele>982</ele>
        <time>2011-06-26T17:40:28Z</time>
      </trkpt>
      <trkpt lat="45.29524" lon="5.86603">
        <ele>982</ele>
        <time>2011-06-26T17:40:32Z</time>
      </trkpt>
      <trkpt lat="45.29524" lon="5.86603">
        <ele>982</ele>
        <time>2011-06-26T17:40:36Z</time>
      </trkpt>
      <trkpt lat="45.29524" lon="5.86607">
        <ele>982</ele>
        <time>2011-06-26T17:40:40Z</time>
      </trkpt>
      <trkpt lat="45.29525" lon="5.86612">
        <ele>981</ele>
        <time>2011-06-26T17:40:44Z</time>
      </trkpt>
      <trkpt lat="45.29526" lon="5.86617">
        <ele>980</ele>
        <time>2011-06-26T17:40:48Z</time>
      </trkpt>
      <trkpt lat="45.29526" lon="5.86623">
        <ele>980</ele>
        <time>2011-06-26T17:40:52Z</time>
      </trkpt>
      <trkpt lat="45.29525" lon="5.86632">
        <ele>978</ele>
        <time>2011-06-26T17:40:56Z</time>
      </trkpt>
      <trkpt lat="45.29529" lon="5.86638">
        <ele>978</ele>
        <time>2011-06-26T17:41:00Z</time>
      </trkpt>
      <trkpt lat="45.29528" lon="5.86647">
        <ele>977</ele>
        <time>2011-06-26T17:41:04Z</time>
      </trkpt>
      <trkpt lat="45.29526" lon="5.86652">
        <ele>976</ele>
        <time>2011-06-26T17:41:08Z</time>
      </trkpt>
      <trkpt lat="45.29527" lon="5.86658">
        <ele>975</ele>
        <time>2011-06-26T17:41:12Z</time>
      </trkpt>
      <trkpt lat="45.29529" lon="5.86664">
        <ele>975</ele>
        <time>2011-06-26T17:41:16Z</time>
      </trkpt>
      <trkpt lat="45.29533" lon="5.8667">
        <ele>964</ele>
        <time>2011-06-26T17:41:20Z</time>
      </trkpt>
      <trkpt lat="45.29534" lon="5.86674">
        <ele>964</ele>
        <time>2011-06-26T17:41:24Z</time>
      </trkpt>
      <trkpt lat="45.29537" lon="5.86681">
        <ele>963</ele>
        <time>2011-06-26T17:41:28Z</time>
      </trkpt>
      <trkpt lat="45.29542" lon="5.86688">
        <ele>963</ele>
        <time>2011-06-26T17:41:32Z</time>
      </trkpt>
      <trkpt lat="45.29548" lon="5.86693">
        <ele>963</ele>
        <time>2011-06-26T17:41:36Z</time>
      </trkpt>
      <trkpt lat="45.29555" lon="5.867">
        <ele>962</ele>
        <time>2011-06-26T17:41:40Z</time>
      </trkpt>
      <trkpt lat="45.29561" lon="5.86708">
        <ele>962</ele>
        <time>2011-06-26T17:41:44Z</time>
      </trkpt>
      <trkpt lat="45.29566" lon="5.86713">
        <ele>962</ele>
        <time>2011-06-26T17:41:48Z</time>
      </trkpt>
      <trkpt lat="45.29573" lon="5.86718">
        <ele>961</ele>
        <time>2011-06-26T17:41:52Z</time>
      </trkpt>
      <trkpt lat="45.29579" lon="5.86723">
        <ele>961</ele>
        <time>2011-06-26T17:41:56Z</time>
      </trkpt>
      <trkpt lat="45.29584" lon="5.86728">
        <ele>967</ele>
        <time>2011-06-26T17:42:00Z</time>
      </trkpt>
      <trkpt lat="45.2959" lon="5.86729">
        <ele>967</ele>
        <time>2011-06-26T17:42:04Z</time>
      </trkpt>
      <trkpt lat="45.29595" lon="5.8673">
        <ele>968</ele>
        <time>2011-06-26T17:42:08Z</time>
      </trkpt>
      <trkpt lat="45.29601" lon="5.86735">
        <ele>968</ele>
        <time>2011-06-26T17:42:12Z</time>
      </trkpt>
      <trkpt lat="45.29606" lon="5.86739">
        <ele>968</ele>
        <time>2011-06-26T17:42:16Z</time>
      </trkpt>
      <trkpt lat="45.29609" lon="5.86739">
        <ele>968</ele>
        <time>2011-06-26T17:42:20Z</time>
      </trkpt>
      <trkpt lat="45.29614" lon="5.86742">
        <ele>969</ele>
        <time>2011-06-26T17:42:24Z</time>
      </trkpt>
      <trkpt lat="45.29618" lon="5.86745">
        <ele>970</ele>
        <time>2011-06-26T17:42:28Z</time>
      </trkpt>
      <trkpt lat="45.29622" lon="5.86749">
        <ele>970</ele>
        <time>2011-06-26T17:42:32Z</time>
      </trkpt>
      <trkpt lat="45.29627" lon="5.86752">
        <ele>957</ele>
        <time>2011-06-26T17:42:36Z</time>
      </trkpt>
      <trkpt lat="45.29632" lon="5.86754">
        <ele>958</ele>
        <time>2011-06-26T17:42:40Z</time>
      </trkpt>
      <trkpt lat="45.29639" lon="5.86758">
        <ele>959</ele>
        <time>2011-06-26T17:42:44Z</time>
      </trkpt>
      <trkpt lat="45.29647" lon="5.86761">
        <ele>960</ele>
        <time>2011-06-26T17:42:48Z</time>
      </trkpt>
      <trkpt lat="45.29652" lon="5.86769">
        <ele>960</ele>
        <time>2011-06-26T17:42:52Z</time>
      </trkpt>
      <trkpt lat="45.29659" lon="5.86775">
        <ele>959</ele>
        <time>2011-06-26T17:42:56Z</time>
      </trkpt>
      <trkpt lat="45.29667" lon="5.86779">
        <ele>964</ele>
        <time>2011-06-26T17:43:00Z</time>
      </trkpt>
      <trkpt lat="45.29676" lon="5.8678">
        <ele>964</ele>
        <time>2011-06-26T17:43:04Z</time>
      </trkpt>
      <trkpt lat="45.29684" lon="5.8678">
        <ele>964</ele>
        <time>2011-06-26T17:43:08Z</time>
      </trkpt>
      <trkpt lat="45.2969" lon="5.86782">
        <ele>964</ele>
        <time>2011-06-26T17:43:12Z</time>
      </trkpt>
      <trkpt lat="45.29695" lon="5.86787">
        <ele>963</ele>
        <time>2011-06-26T17:43:16Z</time>
      </trkpt>
      <trkpt lat="45.29697" lon="5.86792">
        <ele>962</ele>
        <time>2011-06-26T17:43:20Z</time>
      </trkpt>
      <trkpt lat="45.29697" lon="5.86796">
        <ele>962</ele>
        <time>2011-06-26T17:43:24Z</time>
      </trkpt>
      <trkpt lat="45.297" lon="5.868">
        <ele>961</ele>
        <time>2011-06-26T17:43:28Z</time>
      </trkpt>
      <trkpt lat="45.29703" lon="5.86805">
        <ele>960</ele>
        <time>2011-06-26T17:43:32Z</time>
      </trkpt>
      <trkpt lat="45.29706" lon="5.86808">
        <ele>960</ele>
        <time>2011-06-26T17:43:36Z</time>
      </trkpt>
      <trkpt lat="45.29711" lon="5.86811">
        <ele>960</ele>
        <time>2011-06-26T17:43:40Z</time>
      </trkpt>
      <trkpt lat="45.29715" lon="5.86813">
        <ele>960</ele>
        <time>2011-06-26T17:43:44Z</time>
      </trkpt>
      <trkpt lat="45.29722" lon="5.86816">
        <ele>960</ele>
        <time>2011-06-26T17:43:48Z</time>
      </trkpt>
      <trkpt lat="45.2973" lon="5.86818">
        <ele>959</ele>
        <time>2011-06-26T17:43:52Z</time>
      </trkpt>
      <trkpt lat="45.29737" lon="5.8682">
        <ele>958</ele>
        <time>2011-06-26T17:43:56Z</time>
      </trkpt>
      <trkpt lat="45.29743" lon="5.86823">
        <ele>957</ele>
        <time>2011-06-26T17:44:00Z</time>
      </trkpt>
      <trkpt lat="45.29748" lon="5.86824">
        <ele>956</ele>
        <time>2011-06-26T17:44:04Z</time>
      </trkpt>
      <trkpt lat="45.29753" lon="5.86824">
        <ele>959</ele>
        <time>2011-06-26T17:44:08Z</time>
      </trkpt>
      <trkpt lat="45.29759" lon="5.86826">
        <ele>960</ele>
        <time>2011-06-26T17:44:12Z</time>
      </trkpt>
      <trkpt lat="45.29766" lon="5.86823">
        <ele>962</ele>
        <time>2011-06-26T17:44:16Z</time>
      </trkpt>
      <trkpt lat="45.29771" lon="5.86822">
        <ele>964</ele>
        <time>2011-06-26T17:44:20Z</time>
      </trkpt>
      <trkpt lat="45.29777" lon="5.86823">
        <ele>965</ele>
        <time>2011-06-26T17:44:24Z</time>
      </trkpt>
      <trkpt lat="45.29781" lon="5.86822">
        <ele>965</ele>
        <time>2011-06-26T17:44:28Z</time>
      </trkpt>
      <trkpt lat="45.29785" lon="5.86823">
        <ele>966</ele>
        <time>2011-06-26T17:44:32Z</time>
      </trkpt>
      <trkpt lat="45.29787" lon="5.86823">
        <ele>966</ele>
        <time>2011-06-26T17:44:36Z</time>
      </trkpt>
      <trkpt lat="45.2979" lon="5.86823">
        <ele>967</ele>
        <time>2011-06-26T17:44:40Z</time>
      </trkpt>
      <trkpt lat="45.29793" lon="5.86822">
        <ele>967</ele>
        <time>2011-06-26T17:44:44Z</time>
      </trkpt>
      <trkpt lat="45.29797" lon="5.86823">
        <ele>967</ele>
        <time>2011-06-26T17:44:48Z</time>
      </trkpt>
      <trkpt lat="45.29799" lon="5.86824">
        <ele>967</ele>
        <time>2011-06-26T17:44:52Z</time>
      </trkpt>
      <trkpt lat="45.29802" lon="5.86823">
        <ele>968</ele>
        <time>2011-06-26T17:44:56Z</time>
      </trkpt>
      <trkpt lat="45.29805" lon="5.86822">
        <ele>968</ele>
        <time>2011-06-26T17:45:00Z</time>
      </trkpt>
      <trkpt lat="45.29809" lon="5.86818">
        <ele>968</ele>
        <time>2011-06-26T17:45:04Z</time>
      </trkpt>
      <trkpt lat="45.29812" lon="5.86816">
        <ele>968</ele>
        <time>2011-06-26T17:45:08Z</time>
      </trkpt>
      <trkpt lat="45.29815" lon="5.86815">
        <ele>969</ele>
        <time>2011-06-26T17:45:12Z</time>
      </trkpt>
      <trkpt lat="45.29818" lon="5.86815">
        <ele>969</ele>
        <time>2011-06-26T17:45:16Z</time>
      </trkpt>
      <trkpt lat="45.2982" lon="5.86816">
        <ele>969</ele>
        <time>2011-06-26T17:45:20Z</time>
      </trkpt>
      <trkpt lat="45.29822" lon="5.86817">
        <ele>969</ele>
        <time>2011-06-26T17:45:24Z</time>
      </trkpt>
      <trkpt lat="45.29824" lon="5.86818">
        <ele>968</ele>
        <time>2011-06-26T17:45:28Z</time>
      </trkpt>
      <trkpt lat="45.29827" lon="5.86818">
        <ele>968</ele>
        <time>2011-06-26T17:45:32Z</time>
      </trkpt>
      <trkpt lat="45.29828" lon="5.86817">
        <ele>968</ele>
        <time>2011-06-26T17:45:36Z</time>
      </trkpt>
      <trkpt lat="45.29831" lon="5.86819">
        <ele>968</ele>
        <time>2011-06-26T17:45:40Z</time>
      </trkpt>
      <trkpt lat="45.29833" lon="5.8682">
        <ele>968</ele>
        <time>2011-06-26T17:45:44Z</time>
      </trkpt>
      <trkpt lat="45.29836" lon="5.86822">
        <ele>973</ele>
        <time>2011-06-26T17:45:48Z</time>
      </trkpt>
      <trkpt lat="45.2984" lon="5.86821">
        <ele>974</ele>
        <time>2011-06-26T17:45:52Z</time>
      </trkpt>
      <trkpt lat="45.29843" lon="5.86819">
        <ele>976</ele>
        <time>2011-06-26T17:45:56Z</time>
      </trkpt>
      <trkpt lat="45.29849" lon="5.86817">
        <ele>977</ele>
        <time>2011-06-26T17:46:00Z</time>
      </trkpt>
      <trkpt lat="45.29853" lon="5.86816">
        <ele>978</ele>
        <time>2011-06-26T17:46:04Z</time>
      </trkpt>
      <trkpt lat="45.29858" lon="5.86816">
        <ele>979</ele>
        <time>2011-06-26T17:46:08Z</time>
      </trkpt>
      <trkpt lat="45.29863" lon="5.86817">
        <ele>980</ele>
        <time>2011-06-26T17:46:12Z</time>
      </trkpt>
      <trkpt lat="45.29867" lon="5.86819">
        <ele>981</ele>
        <time>2011-06-26T17:46:16Z</time>
      </trkpt>
      <trkpt lat="45.29868" lon="5.86819">
        <ele>981</ele>
        <time>2011-06-26T17:46:20Z</time>
      </trkpt>
      <trkpt lat="45.29869" lon="5.86818">
        <ele>982</ele>
        <time>2011-06-26T17:46:24Z</time>
      </trkpt>
      <trkpt lat="45.29872" lon="5.86819">
        <ele>982</ele>
        <time>2011-06-26T17:46:28Z</time>
      </trkpt>
      <trkpt lat="45.29872" lon="5.86821">
        <ele>982</ele>
        <time>2011-06-26T17:46:32Z</time>
      </trkpt>
      <trkpt lat="45.29873" lon="5.86823">
        <ele>982</ele>
        <time>2011-06-26T17:46:36Z</time>
      </trkpt>
      <trkpt lat="45.29871" lon="5.86826">
        <ele>982</ele>
        <time>2011-06-26T17:46:40Z</time>
      </trkpt>
      <trkpt lat="45.29869" lon="5.86828">
        <ele>981</ele>
        <time>2011-06-26T17:46:44Z</time>
      </trkpt>
      <trkpt lat="45.29865" lon="5.86832">
        <ele>980</ele>
        <time>2011-06-26T17:46:48Z</time>
      </trkpt>
      <trkpt lat="45.29863" lon="5.86835">
        <ele>976</ele>
        <time>2011-06-26T17:46:52Z</time>
      </trkpt>
      <trkpt lat="45.2986" lon="5.8684">
        <ele>976</ele>
        <time>2011-06-26T17:46:56Z</time>
      </trkpt>
      <trkpt lat="45.29857" lon="5.86844">
        <ele>975</ele>
        <time>2011-06-26T17:47:00Z</time>
      </trkpt>
      <trkpt lat="45.29858" lon="5.86846">
        <ele>975</ele>
        <time>2011-06-26T17:47:04Z</time>
      </trkpt>
      <trkpt lat="45.2986" lon="5.86848">
        <ele>976</ele>
        <time>2011-06-26T17:47:08Z</time>
      </trkpt>
      <trkpt lat="45.2986" lon="5.8685">
        <ele>976</ele>
        <time>2011-06-26T17:47:12Z</time>
      </trkpt>
      <trkpt lat="45.29861" lon="5.86853">
        <ele>976</ele>
        <time>2011-06-26T17:47:16Z</time>
      </trkpt>
      <trkpt lat="45.29863" lon="5.86855">
        <ele>977</ele>
        <time>2011-06-26T17:47:20Z</time>
      </trkpt>
      <trkpt lat="45.29867" lon="5.86857">
        <ele>977</ele>
        <time>2011-06-26T17:47:24Z</time>
      </trkpt>
      <trkpt lat="45.2987" lon="5.86859">
        <ele>978</ele>
        <time>2011-06-26T17:47:28Z</time>
      </trkpt>
      <trkpt lat="45.29873" lon="5.86863">
        <ele>978</ele>
        <time>2011-06-26T17:47:32Z</time>
      </trkpt>
      <trkpt lat="45.29875" lon="5.86864">
        <ele>979</ele>
        <time>2011-06-26T17:47:36Z</time>
      </trkpt>
      <trkpt lat="45.29878" lon="5.86867">
        <ele>979</ele>
        <time>2011-06-26T17:47:40Z</time>
      </trkpt>
      <trkpt lat="45.29881" lon="5.86872">
        <ele>979</ele>
        <time>2011-06-26T17:47:44Z</time>
      </trkpt>
      <trkpt lat="45.29885" lon="5.86876">
        <ele>980</ele>
        <time>2011-06-26T17:47:48Z</time>
      </trkpt>
      <trkpt lat="45.29887" lon="5.86882">
        <ele>980</ele>
        <time>2011-06-26T17:47:52Z</time>
      </trkpt>
      <trkpt lat="45.2989" lon="5.8689">
        <ele>981</ele>
        <time>2011-06-26T17:47:56Z</time>
      </trkpt>
      <trkpt lat="45.29895" lon="5.86895">
        <ele>981</ele>
        <time>2011-06-26T17:48:00Z</time>
      </trkpt>
      <trkpt lat="45.299" lon="5.86903">
        <ele>983</ele>
        <time>2011-06-26T17:48:04Z</time>
      </trkpt>
      <trkpt lat="45.29904" lon="5.86912">
        <ele>984</ele>
        <time>2011-06-26T17:48:08Z</time>
      </trkpt>
      <trkpt lat="45.29908" lon="5.86918">
        <ele>984</ele>
        <time>2011-06-26T17:48:12Z</time>
      </trkpt>
      <trkpt lat="45.29912" lon="5.86924">
        <ele>984</ele>
        <time>2011-06-26T17:48:16Z</time>
      </trkpt>
      <trkpt lat="45.29916" lon="5.86931">
        <ele>982</ele>
        <time>2011-06-26T17:48:20Z</time>
      </trkpt>
      <trkpt lat="45.29919" lon="5.86938">
        <ele>992</ele>
        <time>2011-06-26T17:48:24Z</time>
      </trkpt>
      <trkpt lat="45.29923" lon="5.86945">
        <ele>992</ele>
        <time>2011-06-26T17:48:28Z</time>
      </trkpt>
      <trkpt lat="45.29927" lon="5.86951">
        <ele>992</ele>
        <time>2011-06-26T17:48:32Z</time>
      </trkpt>
      <trkpt lat="45.29927" lon="5.86957">
        <ele>992</ele>
        <time>2011-06-26T17:48:36Z</time>
      </trkpt>
      <trkpt lat="45.29927" lon="5.86965">
        <ele>991</ele>
        <time>2011-06-26T17:48:40Z</time>
      </trkpt>
      <trkpt lat="45.29926" lon="5.86971">
        <ele>990</ele>
        <time>2011-06-26T17:48:44Z</time>
      </trkpt>
      <trkpt lat="45.29925" lon="5.86978">
        <ele>989</ele>
        <time>2011-06-26T17:48:48Z</time>
      </trkpt>
      <trkpt lat="45.29923" lon="5.86983">
        <ele>988</ele>
        <time>2011-06-26T17:48:52Z</time>
      </trkpt>
      <trkpt lat="45.29921" lon="5.86989">
        <ele>986</ele>
        <time>2011-06-26T17:48:56Z</time>
      </trkpt>
      <trkpt lat="45.29921" lon="5.86994">
        <ele>985</ele>
        <time>2011-06-26T17:49:00Z</time>
      </trkpt>
      <trkpt lat="45.29918" lon="5.87001">
        <ele>982</ele>
        <time>2011-06-26T17:49:04Z</time>
      </trkpt>
      <trkpt lat="45.29918" lon="5.87005">
        <ele>983</ele>
        <time>2011-06-26T17:49:08Z</time>
      </trkpt>
      <trkpt lat="45.29917" lon="5.8701">
        <ele>979</ele>
        <time>2011-06-26T17:49:12Z</time>
      </trkpt>
      <trkpt lat="45.29914" lon="5.87015">
        <ele>979</ele>
        <time>2011-06-26T17:49:16Z</time>
      </trkpt>
      <trkpt lat="45.29913" lon="5.87019">
        <ele>978</ele>
        <time>2011-06-26T17:49:20Z</time>
      </trkpt>
      <trkpt lat="45.29911" lon="5.87024">
        <ele>978</ele>
        <time>2011-06-26T17:49:25Z</time>
      </trkpt>
      <trkpt lat="45.29909" lon="5.87026">
        <ele>978</ele>
        <time>2011-06-26T17:49:28Z</time>
      </trkpt>
      <trkpt lat="45.29909" lon="5.87029">
        <ele>978</ele>
        <time>2011-06-26T17:49:32Z</time>
      </trkpt>
      <trkpt lat="45.29909" lon="5.87032">
        <ele>978</ele>
        <time>2011-06-26T17:49:36Z</time>
      </trkpt>
      <trkpt lat="45.29907" lon="5.87034">
        <ele>978</ele>
        <time>2011-06-26T17:49:40Z</time>
      </trkpt>
      <trkpt lat="45.29907" lon="5.87036">
        <ele>978</ele>
        <time>2011-06-26T17:49:44Z</time>
      </trkpt>
      <trkpt lat="45.29907" lon="5.87039">
        <ele>978</ele>
        <time>2011-06-26T17:49:48Z</time>
      </trkpt>
      <trkpt lat="45.29907" lon="5.87043">
        <ele>978</ele>
        <time>2011-06-26T17:49:52Z</time>
      </trkpt>
      <trkpt lat="45.29908" lon="5.87046">
        <ele>979</ele>
        <time>2011-06-26T17:49:58Z</time>
      </trkpt>
      <trkpt lat="45.29907" lon="5.87048">
        <ele>979</ele>
        <time>2011-06-26T17:50:00Z</time>
      </trkpt>
      <trkpt lat="45.29906" lon="5.87053">
        <ele>980</ele>
        <time>2011-06-26T17:50:04Z</time>
      </trkpt>
      <trkpt lat="45.29901" lon="5.87054">
        <ele>979</ele>
        <time>2011-06-26T17:50:08Z</time>
      </trkpt>
      <trkpt lat="45.29895" lon="5.87054">
        <ele>978</ele>
        <time>2011-06-26T17:50:12Z</time>
      </trkpt>
      <trkpt lat="45.29891" lon="5.87051">
        <ele>978</ele>
        <time>2011-06-26T17:50:16Z</time>
      </trkpt>
      <trkpt lat="45.29884" lon="5.87048">
        <ele>977</ele>
        <time>2011-06-26T17:50:20Z</time>
      </trkpt>
      <trkpt lat="45.29879" lon="5.87047">
        <ele>976</ele>
        <time>2011-06-26T17:50:24Z</time>
      </trkpt>
      <trkpt lat="45.29877" lon="5.87051">
        <ele>976</ele>
        <time>2011-06-26T17:50:28Z</time>
      </trkpt>
      <trkpt lat="45.2987" lon="5.87054">
        <ele>975</ele>
        <time>2011-06-26T17:50:32Z</time>
      </trkpt>
      <trkpt lat="45.29865" lon="5.87056">
        <ele>975</ele>
        <time>2011-06-26T17:50:36Z</time>
      </trkpt>
      <trkpt lat="45.29861" lon="5.87057">
        <ele>974</ele>
        <time>2011-06-26T17:50:41Z</time>
      </trkpt>
      <trkpt lat="45.29859" lon="5.87059">
        <ele>974</ele>
        <time>2011-06-26T17:50:44Z</time>
      </trkpt>
      <trkpt lat="45.29854" lon="5.87061">
        <ele>974</ele>
        <time>2011-06-26T17:50:48Z</time>
      </trkpt>
      <trkpt lat="45.29849" lon="5.87062">
        <ele>973</ele>
        <time>2011-06-26T17:50:52Z</time>
      </trkpt>
      <trkpt lat="45.29841" lon="5.87062">
        <ele>973</ele>
        <time>2011-06-26T17:50:56Z</time>
      </trkpt>
      <trkpt lat="45.29828" lon="5.87065">
        <ele>962</ele>
        <time>2011-06-26T17:51:00Z</time>
      </trkpt>
      <trkpt lat="45.29818" lon="5.8707">
        <ele>962</ele>
        <time>2011-06-26T17:51:04Z</time>
      </trkpt>
      <trkpt lat="45.2981" lon="5.87078">
        <ele>961</ele>
        <time>2011-06-26T17:51:08Z</time>
      </trkpt>
      <trkpt lat="45.29805" lon="5.87083">
        <ele>960</ele>
        <time>2011-06-26T17:51:12Z</time>
      </trkpt>
      <trkpt lat="45.29796" lon="5.87088">
        <ele>969</ele>
        <time>2011-06-26T17:51:16Z</time>
      </trkpt>
      <trkpt lat="45.29787" lon="5.8709">
        <ele>968</ele>
        <time>2011-06-26T17:51:20Z</time>
      </trkpt>
      <trkpt lat="45.29782" lon="5.87094">
        <ele>967</ele>
        <time>2011-06-26T17:51:24Z</time>
      </trkpt>
      <trkpt lat="45.29778" lon="5.87097">
        <ele>967</ele>
        <time>2011-06-26T17:51:28Z</time>
      </trkpt>
      <trkpt lat="45.29773" lon="5.87099">
        <ele>966</ele>
        <time>2011-06-26T17:51:32Z</time>
      </trkpt>
      <trkpt lat="45.29767" lon="5.87102">
        <ele>966</ele>
        <time>2011-06-26T17:51:36Z</time>
      </trkpt>
      <trkpt lat="45.29762" lon="5.87105">
        <ele>966</ele>
        <time>2011-06-26T17:51:40Z</time>
      </trkpt>
      <trkpt lat="45.29755" lon="5.87105">
        <ele>965</ele>
        <time>2011-06-26T17:51:44Z</time>
      </trkpt>
      <trkpt lat="45.2975" lon="5.87104">
        <ele>957</ele>
        <time>2011-06-26T17:51:48Z</time>
      </trkpt>
      <trkpt lat="45.29745" lon="5.87104">
        <ele>957</ele>
        <time>2011-06-26T17:51:52Z</time>
      </trkpt>
      <trkpt lat="45.29741" lon="5.87103">
        <ele>957</ele>
        <time>2011-06-26T17:51:56Z</time>
      </trkpt>
      <trkpt lat="45.29736" lon="5.87101">
        <ele>957</ele>
        <time>2011-06-26T17:52:00Z</time>
      </trkpt>
      <trkpt lat="45.29732" lon="5.87098">
        <ele>956</ele>
        <time>2011-06-26T17:52:04Z</time>
      </trkpt>
      <trkpt lat="45.29728" lon="5.87095">
        <ele>956</ele>
        <time>2011-06-26T17:52:08Z</time>
      </trkpt>
      <trkpt lat="45.29725" lon="5.87093">
        <ele>956</ele>
        <time>2011-06-26T17:52:12Z</time>
      </trkpt>
      <trkpt lat="45.29722" lon="5.87089">
        <ele>955</ele>
        <time>2011-06-26T17:52:16Z</time>
      </trkpt>
      <trkpt lat="45.29718" lon="5.87086">
        <ele>954</ele>
        <time>2011-06-26T17:52:20Z</time>
      </trkpt>
      <trkpt lat="45.29711" lon="5.87086">
        <ele>953</ele>
        <time>2011-06-26T17:52:24Z</time>
      </trkpt>
      <trkpt lat="45.29703" lon="5.87085">
        <ele>952</ele>
        <time>2011-06-26T17:52:28Z</time>
      </trkpt>
      <trkpt lat="45.29696" lon="5.87086">
        <ele>950</ele>
        <time>2011-06-26T17:52:32Z</time>
      </trkpt>
      <trkpt lat="45.29688" lon="5.87088">
        <ele>948</ele>
        <time>2011-06-26T17:52:36Z</time>
      </trkpt>
      <trkpt lat="45.2968" lon="5.8709">
        <ele>945</ele>
        <time>2011-06-26T17:52:40Z</time>
      </trkpt>
      <trkpt lat="45.29671" lon="5.8709">
        <ele>941</ele>
        <time>2011-06-26T17:52:44Z</time>
      </trkpt>
      <trkpt lat="45.29665" lon="5.87087">
        <ele>935</ele>
        <time>2011-06-26T17:52:48Z</time>
      </trkpt>
      <trkpt lat="45.29662" lon="5.87089">
        <ele>935</ele>
        <time>2011-06-26T17:52:52Z</time>
      </trkpt>
      <trkpt lat="45.29657" lon="5.87093">
        <ele>935</ele>
        <time>2011-06-26T17:52:56Z</time>
      </trkpt>
      <trkpt lat="45.29653" lon="5.87093">
        <ele>934</ele>
        <time>2011-06-26T17:53:00Z</time>
      </trkpt>
      <trkpt lat="45.29648" lon="5.87094">
        <ele>934</ele>
        <time>2011-06-26T17:53:04Z</time>
      </trkpt>
      <trkpt lat="45.29643" lon="5.87095">
        <ele>933</ele>
        <time>2011-06-26T17:53:08Z</time>
      </trkpt>
      <trkpt lat="45.29639" lon="5.87097">
        <ele>933</ele>
        <time>2011-06-26T17:53:12Z</time>
      </trkpt>
      <trkpt lat="45.29633" lon="5.871">
        <ele>932</ele>
        <time>2011-06-26T17:53:16Z</time>
      </trkpt>
      <trkpt lat="45.29629" lon="5.87103">
        <ele>932</ele>
        <time>2011-06-26T17:53:20Z</time>
      </trkpt>
      <trkpt lat="45.29627" lon="5.87106">
        <ele>932</ele>
        <time>2011-06-26T17:53:24Z</time>
      </trkpt>
      <trkpt lat="45.29624" lon="5.8711">
        <ele>931</ele>
        <time>2011-06-26T17:53:28Z</time>
      </trkpt>
      <trkpt lat="45.29619" lon="5.87112">
        <ele>931</ele>
        <time>2011-06-26T17:53:33Z</time>
      </trkpt>
      <trkpt lat="45.29616" lon="5.87114">
        <ele>930</ele>
        <time>2011-06-26T17:53:36Z</time>
      </trkpt>
      <trkpt lat="45.29613" lon="5.87114">
        <ele>930</ele>
        <time>2011-06-26T17:53:40Z</time>
      </trkpt>
      <trkpt lat="45.29608" lon="5.87114">
        <ele>929</ele>
        <time>2011-06-26T17:53:44Z</time>
      </trkpt>
      <trkpt lat="45.29605" lon="5.87117">
        <ele>929</ele>
        <time>2011-06-26T17:53:48Z</time>
      </trkpt>
      <trkpt lat="45.296" lon="5.87122">
        <ele>929</ele>
        <time>2011-06-26T17:53:53Z</time>
      </trkpt>
      <trkpt lat="45.29597" lon="5.87123">
        <ele>929</ele>
        <time>2011-06-26T17:53:56Z</time>
      </trkpt>
      <trkpt lat="45.29592" lon="5.87127">
        <ele>930</ele>
        <time>2011-06-26T17:54:00Z</time>
      </trkpt>
      <trkpt lat="45.29588" lon="5.87133">
        <ele>931</ele>
        <time>2011-06-26T17:54:04Z</time>
      </trkpt>
      <trkpt lat="45.29582" lon="5.87137">
        <ele>912</ele>
        <time>2011-06-26T17:54:08Z</time>
      </trkpt>
      <trkpt lat="45.29578" lon="5.87146">
        <ele>915</ele>
        <time>2011-06-26T17:54:12Z</time>
      </trkpt>
      <trkpt lat="45.29573" lon="5.87153">
        <ele>917</ele>
        <time>2011-06-26T17:54:16Z</time>
      </trkpt>
      <trkpt lat="45.29571" lon="5.87159">
        <ele>919</ele>
        <time>2011-06-26T17:54:20Z</time>
      </trkpt>
      <trkpt lat="45.29566" lon="5.87165">
        <ele>918</ele>
        <time>2011-06-26T17:54:24Z</time>
      </trkpt>
      <trkpt lat="45.29561" lon="5.87168">
        <ele>929</ele>
        <time>2011-06-26T17:54:28Z</time>
      </trkpt>
      <trkpt lat="45.29557" lon="5.87175">
        <ele>929</ele>
        <time>2011-06-26T17:54:33Z</time>
      </trkpt>
      <trkpt lat="45.29555" lon="5.87177">
        <ele>928</ele>
        <time>2011-06-26T17:54:36Z</time>
      </trkpt>
      <trkpt lat="45.29551" lon="5.87182">
        <ele>928</ele>
        <time>2011-06-26T17:54:40Z</time>
      </trkpt>
      <trkpt lat="45.29547" lon="5.87186">
        <ele>927</ele>
        <time>2011-06-26T17:54:44Z</time>
      </trkpt>
      <trkpt lat="45.29544" lon="5.87189">
        <ele>927</ele>
        <time>2011-06-26T17:54:48Z</time>
      </trkpt>
      <trkpt lat="45.29539" lon="5.87195">
        <ele>927</ele>
        <time>2011-06-26T17:54:53Z</time>
      </trkpt>
      <trkpt lat="45.29534" lon="5.87199">
        <ele>927</ele>
        <time>2011-06-26T17:54:56Z</time>
      </trkpt>
      <trkpt lat="45.29529" lon="5.87202">
        <ele>926</ele>
        <time>2011-06-26T17:55:00Z</time>
      </trkpt>
      <trkpt lat="45.29526" lon="5.87206">
        <ele>926</ele>
        <time>2011-06-26T17:55:04Z</time>
      </trkpt>
      <trkpt lat="45.2952" lon="5.8721">
        <ele>927</ele>
        <time>2011-06-26T17:55:08Z</time>
      </trkpt>
      <trkpt lat="45.29513" lon="5.87215">
        <ele>927</ele>
        <time>2011-06-26T17:55:12Z</time>
      </trkpt>
      <trkpt lat="45.29508" lon="5.87218">
        <ele>928</ele>
        <time>2011-06-26T17:55:16Z</time>
      </trkpt>
      <trkpt lat="45.29504" lon="5.87222">
        <ele>928</ele>
        <time>2011-06-26T17:55:20Z</time>
      </trkpt>
      <trkpt lat="45.295" lon="5.87225">
        <ele>919</ele>
        <time>2011-06-26T17:55:24Z</time>
      </trkpt>
      <trkpt lat="45.29496" lon="5.87229">
        <ele>920</ele>
        <time>2011-06-26T17:55:28Z</time>
      </trkpt>
      <trkpt lat="45.29491" lon="5.87233">
        <ele>921</ele>
        <time>2011-06-26T17:55:32Z</time>
      </trkpt>
      <trkpt lat="45.29487" lon="5.87238">
        <ele>922</ele>
        <time>2011-06-26T17:55:36Z</time>
      </trkpt>
      <trkpt lat="45.29484" lon="5.87243">
        <ele>923</ele>
        <time>2011-06-26T17:55:40Z</time>
      </trkpt>
      <trkpt lat="45.2948" lon="5.8725">
        <ele>935</ele>
        <time>2011-06-26T17:55:46Z</time>
      </trkpt>
      <trkpt lat="45.29479" lon="5.87252">
        <ele>935</ele>
        <time>2011-06-26T17:55:48Z</time>
      </trkpt>
      <trkpt lat="45.29477" lon="5.87255">
        <ele>935</ele>
        <time>2011-06-26T17:55:52Z</time>
      </trkpt>
      <trkpt lat="45.29475" lon="5.8726">
        <ele>935</ele>
        <time>2011-06-26T17:55:56Z</time>
      </trkpt>
      <trkpt lat="45.29473" lon="5.87264">
        <ele>936</ele>
        <time>2011-06-26T17:56:00Z</time>
      </trkpt>
      <trkpt lat="45.29468" lon="5.87272">
        <ele>936</ele>
        <time>2011-06-26T17:56:04Z</time>
      </trkpt>
      <trkpt lat="45.29463" lon="5.87277">
        <ele>936</ele>
        <time>2011-06-26T17:56:08Z</time>
      </trkpt>
      <trkpt lat="45.2946" lon="5.87282">
        <ele>936</ele>
        <time>2011-06-26T17:56:12Z</time>
      </trkpt>
      <trkpt lat="45.29458" lon="5.87286">
        <ele>936</ele>
        <time>2011-06-26T17:56:16Z</time>
      </trkpt>
      <trkpt lat="45.29455" lon="5.8729">
        <ele>936</ele>
        <time>2011-06-26T17:56:20Z</time>
      </trkpt>
      <trkpt lat="45.29452" lon="5.87296">
        <ele>937</ele>
        <time>2011-06-26T17:56:24Z</time>
      </trkpt>
      <trkpt lat="45.29449" lon="5.87301">
        <ele>937</ele>
        <time>2011-06-26T17:56:28Z</time>
      </trkpt>
      <trkpt lat="45.29448" lon="5.87306">
        <ele>937</ele>
        <time>2011-06-26T17:56:32Z</time>
      </trkpt>
      <trkpt lat="45.29449" lon="5.87309">
        <ele>938</ele>
        <time>2011-06-26T17:56:36Z</time>
      </trkpt>
      <trkpt lat="45.29449" lon="5.87312">
        <ele>938</ele>
        <time>2011-06-26T17:56:40Z</time>
      </trkpt>
      <trkpt lat="45.29446" lon="5.87317">
        <ele>938</ele>
        <time>2011-06-26T17:56:44Z</time>
      </trkpt>
      <trkpt lat="45.29443" lon="5.8732">
        <ele>938</ele>
        <time>2011-06-26T17:56:48Z</time>
      </trkpt>
      <trkpt lat="45.29442" lon="5.87326">
        <ele>938</ele>
        <time>2011-06-26T17:56:52Z</time>
      </trkpt>
      <trkpt lat="45.29439" lon="5.87331">
        <ele>937</ele>
        <time>2011-06-26T17:56:56Z</time>
      </trkpt>
      <trkpt lat="45.29436" lon="5.87336">
        <ele>951</ele>
        <time>2011-06-26T17:57:00Z</time>
      </trkpt>
      <trkpt lat="45.29434" lon="5.87341">
        <ele>951</ele>
        <time>2011-06-26T17:57:04Z</time>
      </trkpt>
      <trkpt lat="45.29431" lon="5.87346">
        <ele>951</ele>
        <time>2011-06-26T17:57:08Z</time>
      </trkpt>
      <trkpt lat="45.29428" lon="5.8735">
        <ele>952</ele>
        <time>2011-06-26T17:57:12Z</time>
      </trkpt>
      <trkpt lat="45.29424" lon="5.87354">
        <ele>953</ele>
        <time>2011-06-26T17:57:16Z</time>
      </trkpt>
      <trkpt lat="45.29422" lon="5.87357">
        <ele>955</ele>
        <time>2011-06-26T17:57:20Z</time>
      </trkpt>
      <trkpt lat="45.29418" lon="5.87361">
        <ele>956</ele>
        <time>2011-06-26T17:57:24Z</time>
      </trkpt>
      <trkpt lat="45.29416" lon="5.87366">
        <ele>928</ele>
        <time>2011-06-26T17:57:28Z</time>
      </trkpt>
      <trkpt lat="45.29412" lon="5.87373">
        <ele>928</ele>
        <time>2011-06-26T17:57:34Z</time>
      </trkpt>
      <trkpt lat="45.29412" lon="5.87375">
        <ele>928</ele>
        <time>2011-06-26T17:57:36Z</time>
      </trkpt>
      <trkpt lat="45.29411" lon="5.8738">
        <ele>929</ele>
        <time>2011-06-26T17:57:40Z</time>
      </trkpt>
      <trkpt lat="45.29411" lon="5.87385">
        <ele>931</ele>
        <time>2011-06-26T17:57:44Z</time>
      </trkpt>
      <trkpt lat="45.29409" lon="5.87389">
        <ele>932</ele>
        <time>2011-06-26T17:57:48Z</time>
      </trkpt>
      <trkpt lat="45.29407" lon="5.87393">
        <ele>934</ele>
        <time>2011-06-26T17:57:52Z</time>
      </trkpt>
      <trkpt lat="45.29404" lon="5.87399">
        <ele>936</ele>
        <time>2011-06-26T17:57:56Z</time>
      </trkpt>
      <trkpt lat="45.29402" lon="5.87404">
        <ele>937</ele>
        <time>2011-06-26T17:58:00Z</time>
      </trkpt>
      <trkpt lat="45.29401" lon="5.87408">
        <ele>938</ele>
        <time>2011-06-26T17:58:04Z</time>
      </trkpt>
      <trkpt lat="45.29399" lon="5.87411">
        <ele>938</ele>
        <time>2011-06-26T17:58:08Z</time>
      </trkpt>
      <trkpt lat="45.29398" lon="5.87415">
        <ele>936</ele>
        <time>2011-06-26T17:58:12Z</time>
      </trkpt>
      <trkpt lat="45.29397" lon="5.87418">
        <ele>916</ele>
        <time>2011-06-26T17:58:16Z</time>
      </trkpt>
      <trkpt lat="45.29397" lon="5.87421">
        <ele>917</ele>
        <time>2011-06-26T17:58:20Z</time>
      </trkpt>
      <trkpt lat="45.29395" lon="5.87425">
        <ele>911</ele>
        <time>2011-06-26T17:58:24Z</time>
      </trkpt>
      <trkpt lat="45.29394" lon="5.87428">
        <ele>908</ele>
        <time>2011-06-26T17:58:28Z</time>
      </trkpt>
      <trkpt lat="45.29395" lon="5.8743">
        <ele>907</ele>
        <time>2011-06-26T17:58:32Z</time>
      </trkpt>
      <trkpt lat="45.29395" lon="5.8743">
        <ele>908</ele>
        <time>2011-06-26T17:58:36Z</time>
      </trkpt>
      <trkpt lat="45.29395" lon="5.87433">
        <ele>906</ele>
        <time>2011-06-26T17:58:40Z</time>
      </trkpt>
      <trkpt lat="45.29394" lon="5.87435">
        <ele>904</ele>
        <time>2011-06-26T17:58:44Z</time>
      </trkpt>
      <trkpt lat="45.29393" lon="5.87437">
        <ele>900</ele>
        <time>2011-06-26T17:58:48Z</time>
      </trkpt>
      <trkpt lat="45.29391" lon="5.87439">
        <ele>897</ele>
        <time>2011-06-26T17:58:52Z</time>
      </trkpt>
      <trkpt lat="45.29387" lon="5.87441">
        <ele>891</ele>
        <time>2011-06-26T17:58:56Z</time>
      </trkpt>
      <trkpt lat="45.29383" lon="5.87444">
        <ele>884</ele>
        <time>2011-06-26T17:59:01Z</time>
      </trkpt>
      <trkpt lat="45.29378" lon="5.87446">
        <ele>879</ele>
        <time>2011-06-26T17:59:04Z</time>
      </trkpt>
      <trkpt lat="45.29373" lon="5.87449">
        <ele>871</ele>
        <time>2011-06-26T17:59:08Z</time>
      </trkpt>
      <trkpt lat="45.29369" lon="5.87454">
        <ele>865</ele>
        <time>2011-06-26T17:59:12Z</time>
      </trkpt>
      <trkpt lat="45.29365" lon="5.87458">
        <ele>859</ele>
        <time>2011-06-26T17:59:16Z</time>
      </trkpt>
      <trkpt lat="45.29363" lon="5.87461">
        <ele>854</ele>
        <time>2011-06-26T17:59:20Z</time>
      </trkpt>
      <trkpt lat="45.2936" lon="5.87465">
        <ele>848</ele>
        <time>2011-06-26T17:59:24Z</time>
      </trkpt>
      <trkpt lat="45.29358" lon="5.87468">
        <ele>844</ele>
        <time>2011-06-26T17:59:28Z</time>
      </trkpt>
      <trkpt lat="45.29358" lon="5.87472">
        <ele>840</ele>
        <time>2011-06-26T17:59:32Z</time>
      </trkpt>
      <trkpt lat="45.29357" lon="5.87476">
        <ele>835</ele>
        <time>2011-06-26T17:59:36Z</time>
      </trkpt>
      <trkpt lat="45.29358" lon="5.87479">
        <ele>834</ele>
        <time>2011-06-26T17:59:40Z</time>
      </trkpt>
      <trkpt lat="45.29358" lon="5.87482">
        <ele>829</ele>
        <time>2011-06-26T17:59:44Z</time>
      </trkpt>
      <trkpt lat="45.29358" lon="5.87487">
        <ele>824</ele>
        <time>2011-06-26T17:59:48Z</time>
      </trkpt>
      <trkpt lat="45.29359" lon="5.87492">
        <ele>823</ele>
        <time>2011-06-26T17:59:52Z</time>
      </trkpt>
      <trkpt lat="45.2936" lon="5.87497">
        <ele>824</ele>
        <time>2011-06-26T17:59:56Z</time>
      </trkpt>
      <trkpt lat="45.29361" lon="5.87501">
        <ele>778</ele>
        <time>2011-06-26T18:00:00Z</time>
      </trkpt>
      <trkpt lat="45.29363" lon="5.87507">
        <ele>781</ele>
        <time>2011-06-26T18:00:04Z</time>
      </trkpt>
      <trkpt lat="45.29363" lon="5.87514">
        <ele>781</ele>
        <time>2011-06-26T18:00:08Z</time>
      </trkpt>
      <trkpt lat="45.29364" lon="5.87522">
        <ele>780</ele>
        <time>2011-06-26T18:00:12Z</time>
      </trkpt>
      <trkpt lat="45.29365" lon="5.8753">
        <ele>779</ele>
        <time>2011-06-26T18:00:16Z</time>
      </trkpt>
      <trkpt lat="45.29366" lon="5.87538">
        <ele>776</ele>
        <time>2011-06-26T18:00:20Z</time>
      </trkpt>
      <trkpt lat="45.29368" lon="5.87545">
        <ele>775</ele>
        <time>2011-06-26T18:00:24Z</time>
      </trkpt>
      <trkpt lat="45.2937" lon="5.8755">
        <ele>774</ele>
        <time>2011-06-26T18:00:28Z</time>
      </trkpt>
      <trkpt lat="45.29373" lon="5.87555">
        <ele>775</ele>
        <time>2011-06-26T18:00:32Z</time>
      </trkpt>
      <trkpt lat="45.29376" lon="5.8756">
        <ele>778</ele>
        <time>2011-06-26T18:00:36Z</time>
      </trkpt>
      <trkpt lat="45.2938" lon="5.87566">
        <ele>783</ele>
        <time>2011-06-26T18:00:40Z</time>
      </trkpt>
      <trkpt lat="45.29385" lon="5.87571">
        <ele>790</ele>
        <time>2011-06-26T18:00:44Z</time>
      </trkpt>
      <trkpt lat="45.2939" lon="5.87575">
        <ele>801</ele>
        <time>2011-06-26T18:00:48Z</time>
      </trkpt>
      <trkpt lat="45.29394" lon="5.87578">
        <ele>808</ele>
        <time>2011-06-26T18:00:52Z</time>
      </trkpt>
      <trkpt lat="45.29402" lon="5.87583">
        <ele>826</ele>
        <time>2011-06-26T18:00:56Z</time>
      </trkpt>
      <trkpt lat="45.29409" lon="5.87588">
        <ele>818</ele>
        <time>2011-06-26T18:01:00Z</time>
      </trkpt>
      <trkpt lat="45.29416" lon="5.87593">
        <ele>820</ele>
        <time>2011-06-26T18:01:04Z</time>
      </trkpt>
      <trkpt lat="45.29424" lon="5.87598">
        <ele>878</ele>
        <time>2011-06-26T18:01:08Z</time>
      </trkpt>
      <trkpt lat="45.29431" lon="5.87603">
        <ele>883</ele>
        <time>2011-06-26T18:01:12Z</time>
      </trkpt>
      <trkpt lat="45.2944" lon="5.87609">
        <ele>889</ele>
        <time>2011-06-26T18:01:16Z</time>
      </trkpt>
      <trkpt lat="45.29449" lon="5.87614">
        <ele>894</ele>
        <time>2011-06-26T18:01:20Z</time>
      </trkpt>
      <trkpt lat="45.29457" lon="5.8762">
        <ele>899</ele>
        <time>2011-06-26T18:01:24Z</time>
      </trkpt>
      <trkpt lat="45.29464" lon="5.87626">
        <ele>901</ele>
        <time>2011-06-26T18:01:28Z</time>
      </trkpt>
      <trkpt lat="45.29471" lon="5.87633">
        <ele>905</ele>
        <time>2011-06-26T18:01:32Z</time>
      </trkpt>
      <trkpt lat="45.29476" lon="5.8764">
        <ele>908</ele>
        <time>2011-06-26T18:01:36Z</time>
      </trkpt>
      <trkpt lat="45.29481" lon="5.87644">
        <ele>911</ele>
        <time>2011-06-26T18:01:40Z</time>
      </trkpt>
      <trkpt lat="45.29487" lon="5.87649">
        <ele>917</ele>
        <time>2011-06-26T18:01:44Z</time>
      </trkpt>
      <trkpt lat="45.29494" lon="5.87654">
        <ele>924</ele>
        <time>2011-06-26T18:01:48Z</time>
      </trkpt>
      <trkpt lat="45.29504" lon="5.87659">
        <ele>950</ele>
        <time>2011-06-26T18:01:52Z</time>
      </trkpt>
      <trkpt lat="45.29512" lon="5.87664">
        <ele>953</ele>
        <time>2011-06-26T18:01:56Z</time>
      </trkpt>
      <trkpt lat="45.29519" lon="5.87668">
        <ele>943</ele>
        <time>2011-06-26T18:02:00Z</time>
      </trkpt>
      <trkpt lat="45.29526" lon="5.87671">
        <ele>945</ele>
        <time>2011-06-26T18:02:04Z</time>
      </trkpt>
      <trkpt lat="45.29534" lon="5.87673">
        <ele>946</ele>
        <time>2011-06-26T18:02:08Z</time>
      </trkpt>
      <trkpt lat="45.29542" lon="5.87677">
        <ele>948</ele>
        <time>2011-06-26T18:02:12Z</time>
      </trkpt>
      <trkpt lat="45.29549" lon="5.87678">
        <ele>949</ele>
        <time>2011-06-26T18:02:16Z</time>
      </trkpt>
      <trkpt lat="45.29556" lon="5.87681">
        <ele>951</ele>
        <time>2011-06-26T18:02:20Z</time>
      </trkpt>
      <trkpt lat="45.29562" lon="5.87684">
        <ele>952</ele>
        <time>2011-06-26T18:02:24Z</time>
      </trkpt>
      <trkpt lat="45.29566" lon="5.87689">
        <ele>952</ele>
        <time>2011-06-26T18:02:28Z</time>
      </trkpt>
      <trkpt lat="45.29571" lon="5.87696">
        <ele>951</ele>
        <time>2011-06-26T18:02:32Z</time>
      </trkpt>
      <trkpt lat="45.29576" lon="5.87705">
        <ele>950</ele>
        <time>2011-06-26T18:02:36Z</time>
      </trkpt>
      <trkpt lat="45.29581" lon="5.87712">
        <ele>949</ele>
        <time>2011-06-26T18:02:40Z</time>
      </trkpt>
      <trkpt lat="45.29588" lon="5.87718">
        <ele>968</ele>
        <time>2011-06-26T18:02:44Z</time>
      </trkpt>
      <trkpt lat="45.29592" lon="5.87726">
        <ele>966</ele>
        <time>2011-06-26T18:02:48Z</time>
      </trkpt>
      <trkpt lat="45.29592" lon="5.87734">
        <ele>963</ele>
        <time>2011-06-26T18:02:52Z</time>
      </trkpt>
      <trkpt lat="45.29592" lon="5.87742">
        <ele>959</ele>
        <time>2011-06-26T18:02:56Z</time>
      </trkpt>
      <trkpt lat="45.29591" lon="5.87749">
        <ele>956</ele>
        <time>2011-06-26T18:03:00Z</time>
      </trkpt>
      <trkpt lat="45.2959" lon="5.87755">
        <ele>956</ele>
        <time>2011-06-26T18:03:04Z</time>
      </trkpt>
      <trkpt lat="45.29591" lon="5.87761">
        <ele>959</ele>
        <time>2011-06-26T18:03:08Z</time>
      </trkpt>
      <trkpt lat="45.2959" lon="5.87767">
        <ele>961</ele>
        <time>2011-06-26T18:03:12Z</time>
      </trkpt>
      <trkpt lat="45.29591" lon="5.87772">
        <ele>963</ele>
        <time>2011-06-26T18:03:16Z</time>
      </trkpt>
      <trkpt lat="45.29592" lon="5.87778">
        <ele>965</ele>
        <time>2011-06-26T18:03:20Z</time>
      </trkpt>
      <trkpt lat="45.29594" lon="5.87784">
        <ele>967</ele>
        <time>2011-06-26T18:03:24Z</time>
      </trkpt>
      <trkpt lat="45.29596" lon="5.87788">
        <ele>967</ele>
        <time>2011-06-26T18:03:28Z</time>
      </trkpt>
      <trkpt lat="45.29597" lon="5.87793">
        <ele>968</ele>
        <time>2011-06-26T18:03:32Z</time>
      </trkpt>
      <trkpt lat="45.29598" lon="5.87798">
        <ele>969</ele>
        <time>2011-06-26T18:03:36Z</time>
      </trkpt>
      <trkpt lat="45.29599" lon="5.87805">
        <ele>969</ele>
        <time>2011-06-26T18:03:40Z</time>
      </trkpt>
      <trkpt lat="45.296" lon="5.87811">
        <ele>969</ele>
        <time>2011-06-26T18:03:44Z</time>
      </trkpt>
      <trkpt lat="45.29601" lon="5.87819">
        <ele>969</ele>
        <time>2011-06-26T18:03:48Z</time>
      </trkpt>
      <trkpt lat="45.29602" lon="5.87825">
        <ele>969</ele>
        <time>2011-06-26T18:03:52Z</time>
      </trkpt>
      <trkpt lat="45.29602" lon="5.87831">
        <ele>969</ele>
        <time>2011-06-26T18:03:56Z</time>
      </trkpt>
      <trkpt lat="45.29603" lon="5.87836">
        <ele>958</ele>
        <time>2011-06-26T18:04:00Z</time>
      </trkpt>
      <trkpt lat="45.29606" lon="5.87841">
        <ele>957</ele>
        <time>2011-06-26T18:04:04Z</time>
      </trkpt>
      <trkpt lat="45.29608" lon="5.87845">
        <ele>956</ele>
        <time>2011-06-26T18:04:08Z</time>
      </trkpt>
      <trkpt lat="45.29609" lon="5.87849">
        <ele>955</ele>
        <time>2011-06-26T18:04:12Z</time>
      </trkpt>
      <trkpt lat="45.29609" lon="5.87855">
        <ele>954</ele>
        <time>2011-06-26T18:04:16Z</time>
      </trkpt>
      <trkpt lat="45.2961" lon="5.87861">
        <ele>952</ele>
        <time>2011-06-26T18:04:20Z</time>
      </trkpt>
      <trkpt lat="45.29612" lon="5.87867">
        <ele>950</ele>
        <time>2011-06-26T18:04:24Z</time>
      </trkpt>
      <trkpt lat="45.29613" lon="5.87873">
        <ele>948</ele>
        <time>2011-06-26T18:04:28Z</time>
      </trkpt>
      <trkpt lat="45.29615" lon="5.87878">
        <ele>947</ele>
        <time>2011-06-26T18:04:32Z</time>
      </trkpt>
      <trkpt lat="45.29617" lon="5.87883">
        <ele>945</ele>
        <time>2011-06-26T18:04:36Z</time>
      </trkpt>
      <trkpt lat="45.29621" lon="5.87887">
        <ele>945</ele>
        <time>2011-06-26T18:04:40Z</time>
      </trkpt>
      <trkpt lat="45.29623" lon="5.87892">
        <ele>945</ele>
        <time>2011-06-26T18:04:44Z</time>
      </trkpt>
      <trkpt lat="45.29624" lon="5.87899">
        <ele>943</ele>
        <time>2011-06-26T18:04:48Z</time>
      </trkpt>
      <trkpt lat="45.29624" lon="5.87905">
        <ele>942</ele>
        <time>2011-06-26T18:04:52Z</time>
      </trkpt>
      <trkpt lat="45.29624" lon="5.87912">
        <ele>940</ele>
        <time>2011-06-26T18:04:56Z</time>
      </trkpt>
      <trkpt lat="45.29623" lon="5.87919">
        <ele>867</ele>
        <time>2011-06-26T18:05:00Z</time>
      </trkpt>
      <trkpt lat="45.29624" lon="5.87924">
        <ele>864</ele>
        <time>2011-06-26T18:05:04Z</time>
      </trkpt>
      <trkpt lat="45.29624" lon="5.87928">
        <ele>862</ele>
        <time>2011-06-26T18:05:08Z</time>
      </trkpt>
      <trkpt lat="45.29624" lon="5.87932">
        <ele>860</ele>
        <time>2011-06-26T18:05:12Z</time>
      </trkpt>
      <trkpt lat="45.29626" lon="5.87933">
        <ele>860</ele>
        <time>2011-06-26T18:05:16Z</time>
      </trkpt>
      <trkpt lat="45.29628" lon="5.87933">
        <ele>861</ele>
        <time>2011-06-26T18:05:20Z</time>
      </trkpt>
      <trkpt lat="45.29631" lon="5.87934">
        <ele>862</ele>
        <time>2011-06-26T18:05:24Z</time>
      </trkpt>
      <trkpt lat="45.29633" lon="5.87933">
        <ele>865</ele>
        <time>2011-06-26T18:05:28Z</time>
      </trkpt>
      <trkpt lat="45.29636" lon="5.87932">
        <ele>868</ele>
        <time>2011-06-26T18:05:32Z</time>
      </trkpt>
      <trkpt lat="45.29639" lon="5.87931">
        <ele>873</ele>
        <time>2011-06-26T18:05:36Z</time>
      </trkpt>
      <trkpt lat="45.29642" lon="5.87929">
        <ele>878</ele>
        <time>2011-06-26T18:05:40Z</time>
      </trkpt>
      <trkpt lat="45.29645" lon="5.87928">
        <ele>884</ele>
        <time>2011-06-26T18:05:44Z</time>
      </trkpt>
      <trkpt lat="45.29648" lon="5.87927">
        <ele>890</ele>
        <time>2011-06-26T18:05:48Z</time>
      </trkpt>
      <trkpt lat="45.29651" lon="5.87924">
        <ele>899</ele>
        <time>2011-06-26T18:05:52Z</time>
      </trkpt>
      <trkpt lat="45.29655" lon="5.87921">
        <ele>910</ele>
        <time>2011-06-26T18:05:56Z</time>
      </trkpt>
      <trkpt lat="45.29658" lon="5.87919">
        <ele>921</ele>
        <time>2011-06-26T18:06:00Z</time>
      </trkpt>
      <trkpt lat="45.29661" lon="5.87918">
        <ele>933</ele>
        <time>2011-06-26T18:06:04Z</time>
      </trkpt>
      <trkpt lat="45.29663" lon="5.87916">
        <ele>959</ele>
        <time>2011-06-26T18:06:08Z</time>
      </trkpt>
      <trkpt lat="45.29666" lon="5.87916">
        <ele>960</ele>
        <time>2011-06-26T18:06:12Z</time>
      </trkpt>
      <trkpt lat="45.29668" lon="5.87916">
        <ele>962</ele>
        <time>2011-06-26T18:06:16Z</time>
      </trkpt>
      <trkpt lat="45.2967" lon="5.87915">
        <ele>965</ele>
        <time>2011-06-26T18:06:20Z</time>
      </trkpt>
      <trkpt lat="45.29671" lon="5.87913">
        <ele>968</ele>
        <time>2011-06-26T18:06:24Z</time>
      </trkpt>
      <trkpt lat="45.29673" lon="5.87911">
        <ele>971</ele>
        <time>2011-06-26T18:06:28Z</time>
      </trkpt>
      <trkpt lat="45.29675" lon="5.87909">
        <ele>975</ele>
        <time>2011-06-26T18:06:32Z</time>
      </trkpt>
      <trkpt lat="45.29678" lon="5.87908">
        <ele>977</ele>
        <time>2011-06-26T18:06:36Z</time>
      </trkpt>
      <trkpt lat="45.2968" lon="5.87907">
        <ele>980</ele>
        <time>2011-06-26T18:06:40Z</time>
      </trkpt>
      <trkpt lat="45.29683" lon="5.87905">
        <ele>982</ele>
        <time>2011-06-26T18:06:44Z</time>
      </trkpt>
      <trkpt lat="45.29686" lon="5.87903">
        <ele>984</ele>
        <time>2011-06-26T18:06:48Z</time>
      </trkpt>
      <trkpt lat="45.29688" lon="5.87903">
        <ele>986</ele>
        <time>2011-06-26T18:06:52Z</time>
      </trkpt>
      <trkpt lat="45.29691" lon="5.87902">
        <ele>988</ele>
        <time>2011-06-26T18:06:56Z</time>
      </trkpt>
      <trkpt lat="45.29694" lon="5.879">
        <ele>990</ele>
        <time>2011-06-26T18:07:00Z</time>
      </trkpt>
      <trkpt lat="45.29696" lon="5.87899">
        <ele>991</ele>
        <time>2011-06-26T18:07:04Z</time>
      </trkpt>
      <trkpt lat="45.29698" lon="5.87898">
        <ele>992</ele>
        <time>2011-06-26T18:07:08Z</time>
      </trkpt>
      <trkpt lat="45.297" lon="5.87897">
        <ele>993</ele>
        <time>2011-06-26T18:07:12Z</time>
      </trkpt>
      <trkpt lat="45.29702" lon="5.87896">
        <ele>994</ele>
        <time>2011-06-26T18:07:16Z</time>
      </trkpt>
      <trkpt lat="45.29705" lon="5.87895">
        <ele>995</ele>
        <time>2011-06-26T18:07:20Z</time>
      </trkpt>
      <trkpt lat="45.29706" lon="5.87895">
        <ele>996</ele>
        <time>2011-06-26T18:07:24Z</time>
      </trkpt>
      <trkpt lat="45.29708" lon="5.87895">
        <ele>997</ele>
        <time>2011-06-26T18:07:28Z</time>
      </trkpt>
      <trkpt lat="45.29711" lon="5.87897">
        <ele>998</ele>
        <time>2011-06-26T18:07:32Z</time>
      </trkpt>
      <trkpt lat="45.29714" lon="5.87897">
        <ele>999</ele>
        <time>2011-06-26T18:07:36Z</time>
      </trkpt>
      <trkpt lat="45.29716" lon="5.87899">
        <ele>999</ele>
        <time>2011-06-26T18:07:40Z</time>
      </trkpt>
      <trkpt lat="45.29718" lon="5.879">
        <ele>1000</ele>
        <time>2011-06-26T18:07:44Z</time>
      </trkpt>
      <trkpt lat="45.29721" lon="5.87901">
        <ele>1001</ele>
        <time>2011-06-26T18:07:48Z</time>
      </trkpt>
      <trkpt lat="45.29723" lon="5.87903">
        <ele>1002</ele>
        <time>2011-06-26T18:07:52Z</time>
      </trkpt>
      <trkpt lat="45.29726" lon="5.87905">
        <ele>1004</ele>
        <time>2011-06-26T18:07:56Z</time>
      </trkpt>
      <trkpt lat="45.29728" lon="5.87905">
        <ele>1005</ele>
        <time>2011-06-26T18:08:00Z</time>
      </trkpt>
      <trkpt lat="45.29729" lon="5.87906">
        <ele>1005</ele>
        <time>2011-06-26T18:08:05Z</time>
      </trkpt>
      <trkpt lat="45.2973" lon="5.87907">
        <ele>1006</ele>
        <time>2011-06-26T18:08:08Z</time>
      </trkpt>
      <trkpt lat="45.29731" lon="5.87909">
        <ele>1006</ele>
        <time>2011-06-26T18:08:12Z</time>
      </trkpt>
      <trkpt lat="45.29731" lon="5.87912">
        <ele>1007</ele>
        <time>2011-06-26T18:08:16Z</time>
      </trkpt>
      <trkpt lat="45.29731" lon="5.87914">
        <ele>1007</ele>
        <time>2011-06-26T18:08:20Z</time>
      </trkpt>
      <trkpt lat="45.29731" lon="5.87917">
        <ele>984</ele>
        <time>2011-06-26T18:08:24Z</time>
      </trkpt>
      <trkpt lat="45.2973" lon="5.87921">
        <ele>982</ele>
        <time>2011-06-26T18:08:28Z</time>
      </trkpt>
      <trkpt lat="45.29729" lon="5.87925">
        <ele>979</ele>
        <time>2011-06-26T18:08:32Z</time>
      </trkpt>
      <trkpt lat="45.29727" lon="5.87929">
        <ele>976</ele>
        <time>2011-06-26T18:08:36Z</time>
      </trkpt>
      <trkpt lat="45.29725" lon="5.87935">
        <ele>971</ele>
        <time>2011-06-26T18:08:40Z</time>
      </trkpt>
      <trkpt lat="45.29723" lon="5.87939">
        <ele>967</ele>
        <time>2011-06-26T18:08:44Z</time>
      </trkpt>
      <trkpt lat="45.29721" lon="5.87944">
        <ele>963</ele>
        <time>2011-06-26T18:08:48Z</time>
      </trkpt>
      <trkpt lat="45.29721" lon="5.87949">
        <ele>961</ele>
        <time>2011-06-26T18:08:52Z</time>
      </trkpt>
      <trkpt lat="45.29723" lon="5.87952">
        <ele>961</ele>
        <time>2011-06-26T18:08:56Z</time>
      </trkpt>
      <trkpt lat="45.29725" lon="5.87955">
        <ele>962</ele>
        <time>2011-06-26T18:09:00Z</time>
      </trkpt>
      <trkpt lat="45.29727" lon="5.87956">
        <ele>963</ele>
        <time>2011-06-26T18:09:04Z</time>
      </trkpt>
      <trkpt lat="45.29728" lon="5.87957">
        <ele>964</ele>
        <time>2011-06-26T18:09:08Z</time>
      </trkpt>
      <trkpt lat="45.29729" lon="5.87958">
        <ele>964</ele>
        <time>2011-06-26T18:09:12Z</time>
      </trkpt>
      <trkpt lat="45.29731" lon="5.87959">
        <ele>965</ele>
        <time>2011-06-26T18:09:16Z</time>
      </trkpt>
      <trkpt lat="45.29732" lon="5.8796">
        <ele>966</ele>
        <time>2011-06-26T18:09:20Z</time>
      </trkpt>
      <trkpt lat="45.29732" lon="5.87962">
        <ele>965</ele>
        <time>2011-06-26T18:09:24Z</time>
      </trkpt>
      <trkpt lat="45.29734" lon="5.87963">
        <ele>967</ele>
        <time>2011-06-26T18:09:28Z</time>
      </trkpt>
      <trkpt lat="45.29737" lon="5.87964">
        <ele>969</ele>
        <time>2011-06-26T18:09:32Z</time>
      </trkpt>
      <trkpt lat="45.29739" lon="5.87965">
        <ele>970</ele>
        <time>2011-06-26T18:09:36Z</time>
      </trkpt>
      <trkpt lat="45.29741" lon="5.87967">
        <ele>971</ele>
        <time>2011-06-26T18:09:40Z</time>
      </trkpt>
      <trkpt lat="45.29744" lon="5.87969">
        <ele>973</ele>
        <time>2011-06-26T18:09:44Z</time>
      </trkpt>
      <trkpt lat="45.29746" lon="5.8797">
        <ele>975</ele>
        <time>2011-06-26T18:09:48Z</time>
      </trkpt>
      <trkpt lat="45.29748" lon="5.87973">
        <ele>977</ele>
        <time>2011-06-26T18:09:52Z</time>
      </trkpt>
      <trkpt lat="45.2975" lon="5.87975">
        <ele>1028</ele>
        <time>2011-06-26T18:09:56Z</time>
      </trkpt>
      <trkpt lat="45.29753" lon="5.87976">
        <ele>1028</ele>
        <time>2011-06-26T18:10:00Z</time>
      </trkpt>
      <trkpt lat="45.29757" lon="5.87978">
        <ele>1028</ele>
        <time>2011-06-26T18:10:04Z</time>
      </trkpt>
      <trkpt lat="45.2976" lon="5.87978">
        <ele>1029</ele>
        <time>2011-06-26T18:10:08Z</time>
      </trkpt>
      <trkpt lat="45.29764" lon="5.87979">
        <ele>1029</ele>
        <time>2011-06-26T18:10:12Z</time>
      </trkpt>
      <trkpt lat="45.29767" lon="5.8798">
        <ele>1029</ele>
        <time>2011-06-26T18:10:16Z</time>
      </trkpt>
      <trkpt lat="45.29771" lon="5.8798">
        <ele>1030</ele>
        <time>2011-06-26T18:10:20Z</time>
      </trkpt>
      <trkpt lat="45.29775" lon="5.87981">
        <ele>1030</ele>
        <time>2011-06-26T18:10:24Z</time>
      </trkpt>
      <trkpt lat="45.29778" lon="5.87982">
        <ele>1031</ele>
        <time>2011-06-26T18:10:28Z</time>
      </trkpt>
      <trkpt lat="45.29781" lon="5.87984">
        <ele>1031</ele>
        <time>2011-06-26T18:10:32Z</time>
      </trkpt>
      <trkpt lat="45.29784" lon="5.87982">
        <ele>1032</ele>
        <time>2011-06-26T18:10:36Z</time>
      </trkpt>
      <trkpt lat="45.29787" lon="5.87983">
        <ele>1032</ele>
        <time>2011-06-26T18:10:40Z</time>
      </trkpt>
      <trkpt lat="45.2979" lon="5.87982">
        <ele>1033</ele>
        <time>2011-06-26T18:10:44Z</time>
      </trkpt>
      <trkpt lat="45.29792" lon="5.87982">
        <ele>1033</ele>
        <time>2011-06-26T18:10:48Z</time>
      </trkpt>
      <trkpt lat="45.29795" lon="5.87983">
        <ele>1033</ele>
        <time>2011-06-26T18:10:52Z</time>
      </trkpt>
      <trkpt lat="45.29797" lon="5.87983">
        <ele>1034</ele>
        <time>2011-06-26T18:10:56Z</time>
      </trkpt>
      <trkpt lat="45.29799" lon="5.87983">
        <ele>1034</ele>
        <time>2011-06-26T18:11:00Z</time>
      </trkpt>
      <trkpt lat="45.29801" lon="5.87984">
        <ele>1034</ele>
        <time>2011-06-26T18:11:04Z</time>
      </trkpt>
      <trkpt lat="45.29804" lon="5.87986">
        <ele>1035</ele>
        <time>2011-06-26T18:11:08Z</time>
      </trkpt>
      <trkpt lat="45.29806" lon="5.87987">
        <ele>1036</ele>
        <time>2011-06-26T18:11:12Z</time>
      </trkpt>
      <trkpt lat="45.29809" lon="5.87989">
        <ele>1036</ele>
        <time>2011-06-26T18:11:16Z</time>
      </trkpt>
      <trkpt lat="45.29813" lon="5.8799">
        <ele>1037</ele>
        <time>2011-06-26T18:11:20Z</time>
      </trkpt>
      <trkpt lat="45.29817" lon="5.87991">
        <ele>1038</ele>
        <time>2011-06-26T18:11:24Z</time>
      </trkpt>
      <trkpt lat="45.29822" lon="5.87992">
        <ele>1039</ele>
        <time>2011-06-26T18:11:28Z</time>
      </trkpt>
      <trkpt lat="45.29827" lon="5.87994">
        <ele>1041</ele>
        <time>2011-06-26T18:11:32Z</time>
      </trkpt>
      <trkpt lat="45.29833" lon="5.87997">
        <ele>1043</ele>
        <time>2011-06-26T18:11:36Z</time>
      </trkpt>
      <trkpt lat="45.2984" lon="5.88">
        <ele>1045</ele>
        <time>2011-06-26T18:11:40Z</time>
      </trkpt>
      <trkpt lat="45.29847" lon="5.88004">
        <ele>1045</ele>
        <time>2011-06-26T18:11:44Z</time>
      </trkpt>
      <trkpt lat="45.29853" lon="5.88008">
        <ele>1045</ele>
        <time>2011-06-26T18:11:48Z</time>
      </trkpt>
      <trkpt lat="45.29857" lon="5.88012">
        <ele>1045</ele>
        <time>2011-06-26T18:11:52Z</time>
      </trkpt>
      <trkpt lat="45.2986" lon="5.88016">
        <ele>1045</ele>
        <time>2011-06-26T18:11:56Z</time>
      </trkpt>
      <trkpt lat="45.29863" lon="5.8802">
        <ele>1044</ele>
        <time>2011-06-26T18:12:00Z</time>
      </trkpt>
      <trkpt lat="45.29867" lon="5.88023">
        <ele>1045</ele>
        <time>2011-06-26T18:12:04Z</time>
      </trkpt>
      <trkpt lat="45.29872" lon="5.88027">
        <ele>1045</ele>
        <time>2011-06-26T18:12:08Z</time>
      </trkpt>
      <trkpt lat="45.29876" lon="5.8803">
        <ele>1045</ele>
        <time>2011-06-26T18:12:12Z</time>
      </trkpt>
      <trkpt lat="45.2988" lon="5.88033">
        <ele>1045</ele>
        <time>2011-06-26T18:12:16Z</time>
      </trkpt>
      <trkpt lat="45.29884" lon="5.88036">
        <ele>1045</ele>
        <time>2011-06-26T18:12:20Z</time>
      </trkpt>
      <trkpt lat="45.29885" lon="5.88039">
        <ele>1045</ele>
        <time>2011-06-26T18:12:24Z</time>
      </trkpt>
      <trkpt lat="45.29888" lon="5.88042">
        <ele>1045</ele>
        <time>2011-06-26T18:12:28Z</time>
      </trkpt>
      <trkpt lat="45.29892" lon="5.88045">
        <ele>1046</ele>
        <time>2011-06-26T18:12:32Z</time>
      </trkpt>
      <trkpt lat="45.29896" lon="5.88048">
        <ele>1046</ele>
        <time>2011-06-26T18:12:36Z</time>
      </trkpt>
      <trkpt lat="45.29899" lon="5.88051">
        <ele>1046</ele>
        <time>2011-06-26T18:12:40Z</time>
      </trkpt>
      <trkpt lat="45.29904" lon="5.88055">
        <ele>1046</ele>
        <time>2011-06-26T18:12:44Z</time>
      </trkpt>
      <trkpt lat="45.29909" lon="5.88061">
        <ele>1047</ele>
        <time>2011-06-26T18:12:48Z</time>
      </trkpt>
      <trkpt lat="45.29913" lon="5.88068">
        <ele>1048</ele>
        <time>2011-06-26T18:12:52Z</time>
      </trkpt>
      <trkpt lat="45.29917" lon="5.88077">
        <ele>1052</ele>
        <time>2011-06-26T18:12:56Z</time>
      </trkpt>
      <trkpt lat="45.29921" lon="5.88086">
        <ele>1051</ele>
        <time>2011-06-26T18:13:00Z</time>
      </trkpt>
      <trkpt lat="45.29925" lon="5.88096">
        <ele>1051</ele>
        <time>2011-06-26T18:13:04Z</time>
      </trkpt>
      <trkpt lat="45.29929" lon="5.88104">
        <ele>1051</ele>
        <time>2011-06-26T18:13:08Z</time>
      </trkpt>
      <trkpt lat="45.29934" lon="5.88113">
        <ele>1051</ele>
        <time>2011-06-26T18:13:12Z</time>
      </trkpt>
      <trkpt lat="45.29939" lon="5.88124">
        <ele>1050</ele>
        <time>2011-06-26T18:13:16Z</time>
      </trkpt>
      <trkpt lat="45.29942" lon="5.88138">
        <ele>1049</ele>
        <time>2011-06-26T18:13:20Z</time>
      </trkpt>
      <trkpt lat="45.29945" lon="5.88149">
        <ele>1049</ele>
        <time>2011-06-26T18:13:24Z</time>
      </trkpt>
      <trkpt lat="45.29947" lon="5.88161">
        <ele>1048</ele>
        <time>2011-06-26T18:13:28Z</time>
      </trkpt>
      <trkpt lat="45.2995" lon="5.88173">
        <ele>1047</ele>
        <time>2011-06-26T18:13:32Z</time>
      </trkpt>
      <trkpt lat="45.29952" lon="5.88184">
        <ele>1048</ele>
        <time>2011-06-26T18:13:36Z</time>
      </trkpt>
      <trkpt lat="45.29955" lon="5.88195">
        <ele>1049</ele>
        <time>2011-06-26T18:13:40Z</time>
      </trkpt>
      <trkpt lat="45.29959" lon="5.88206">
        <ele>1049</ele>
        <time>2011-06-26T18:13:44Z</time>
      </trkpt>
      <trkpt lat="45.29964" lon="5.88214">
        <ele>1049</ele>
        <time>2011-06-26T18:13:48Z</time>
      </trkpt>
      <trkpt lat="45.29968" lon="5.8822">
        <ele>1050</ele>
        <time>2011-06-26T18:13:52Z</time>
      </trkpt>
      <trkpt lat="45.29971" lon="5.88227">
        <ele>1050</ele>
        <time>2011-06-26T18:13:56Z</time>
      </trkpt>
      <trkpt lat="45.29976" lon="5.88234">
        <ele>1050</ele>
        <time>2011-06-26T18:14:00Z</time>
      </trkpt>
      <trkpt lat="45.29981" lon="5.88242">
        <ele>1051</ele>
        <time>2011-06-26T18:14:04Z</time>
      </trkpt>
      <trkpt lat="45.29988" lon="5.8825">
        <ele>1044</ele>
        <time>2011-06-26T18:14:08Z</time>
      </trkpt>
      <trkpt lat="45.29994" lon="5.88261">
        <ele>1043</ele>
        <time>2011-06-26T18:14:12Z</time>
      </trkpt>
      <trkpt lat="45.29998" lon="5.8827">
        <ele>1040</ele>
        <time>2011-06-26T18:14:16Z</time>
      </trkpt>
      <trkpt lat="45.30002" lon="5.88278">
        <ele>1045</ele>
        <time>2011-06-26T18:14:20Z</time>
      </trkpt>
      <trkpt lat="45.30007" lon="5.88285">
        <ele>1044</ele>
        <time>2011-06-26T18:14:24Z</time>
      </trkpt>
      <trkpt lat="45.30011" lon="5.88293">
        <ele>1042</ele>
        <time>2011-06-26T18:14:28Z</time>
      </trkpt>
      <trkpt lat="45.30016" lon="5.883">
        <ele>1041</ele>
        <time>2011-06-26T18:14:32Z</time>
      </trkpt>
      <trkpt lat="45.30023" lon="5.88307">
        <ele>1040</ele>
        <time>2011-06-26T18:14:36Z</time>
      </trkpt>
      <trkpt lat="45.30029" lon="5.88312">
        <ele>1041</ele>
        <time>2011-06-26T18:14:40Z</time>
      </trkpt>
      <trkpt lat="45.30036" lon="5.88318">
        <ele>1041</ele>
        <time>2011-06-26T18:14:44Z</time>
      </trkpt>
      <trkpt lat="45.30044" lon="5.88323">
        <ele>1042</ele>
        <time>2011-06-26T18:14:48Z</time>
      </trkpt>
      <trkpt lat="45.30051" lon="5.8833">
        <ele>1042</ele>
        <time>2011-06-26T18:14:52Z</time>
      </trkpt>
      <trkpt lat="45.30056" lon="5.88337">
        <ele>1023</ele>
        <time>2011-06-26T18:14:56Z</time>
      </trkpt>
      <trkpt lat="45.30063" lon="5.88341">
        <ele>1026</ele>
        <time>2011-06-26T18:15:00Z</time>
      </trkpt>
      <trkpt lat="45.30072" lon="5.88343">
        <ele>1030</ele>
        <time>2011-06-26T18:15:04Z</time>
      </trkpt>
      <trkpt lat="45.30079" lon="5.88346">
        <ele>1031</ele>
        <time>2011-06-26T18:15:08Z</time>
      </trkpt>
      <trkpt lat="45.30086" lon="5.88349">
        <ele>1036</ele>
        <time>2011-06-26T18:15:12Z</time>
      </trkpt>
      <trkpt lat="45.3009" lon="5.8835">
        <ele>1035</ele>
        <time>2011-06-26T18:15:16Z</time>
      </trkpt>
      <trkpt lat="45.30097" lon="5.88351">
        <ele>1033</ele>
        <time>2011-06-26T18:15:20Z</time>
      </trkpt>
      <trkpt lat="45.30108" lon="5.88354">
        <ele>1031</ele>
        <time>2011-06-26T18:15:24Z</time>
      </trkpt>
      <trkpt lat="45.30119" lon="5.88356">
        <ele>1029</ele>
        <time>2011-06-26T18:15:28Z</time>
      </trkpt>
      <trkpt lat="45.30127" lon="5.88357">
        <ele>1028</ele>
        <time>2011-06-26T18:15:32Z</time>
      </trkpt>
      <trkpt lat="45.30137" lon="5.88358">
        <ele>1028</ele>
        <time>2011-06-26T18:15:36Z</time>
      </trkpt>
      <trkpt lat="45.30142" lon="5.88359">
        <ele>1028</ele>
        <time>2011-06-26T18:15:40Z</time>
      </trkpt>
      <trkpt lat="45.30146" lon="5.88363">
        <ele>1028</ele>
        <time>2011-06-26T18:15:44Z</time>
      </trkpt>
      <trkpt lat="45.30153" lon="5.88365">
        <ele>1027</ele>
        <time>2011-06-26T18:15:48Z</time>
      </trkpt>
      <trkpt lat="45.30158" lon="5.88368">
        <ele>1027</ele>
        <time>2011-06-26T18:15:52Z</time>
      </trkpt>
      <trkpt lat="45.30166" lon="5.8837">
        <ele>1026</ele>
        <time>2011-06-26T18:15:56Z</time>
      </trkpt>
      <trkpt lat="45.30173" lon="5.88373">
        <ele>1024</ele>
        <time>2011-06-26T18:16:00Z</time>
      </trkpt>
      <trkpt lat="45.30177" lon="5.88374">
        <ele>1023</ele>
        <time>2011-06-26T18:16:04Z</time>
      </trkpt>
      <trkpt lat="45.30185" lon="5.88375">
        <ele>1023</ele>
        <time>2011-06-26T18:16:08Z</time>
      </trkpt>
      <trkpt lat="45.3019" lon="5.88383">
        <ele>1022</ele>
        <time>2011-06-26T18:16:12Z</time>
      </trkpt>
      <trkpt lat="45.30194" lon="5.88387">
        <ele>1021</ele>
        <time>2011-06-26T18:16:16Z</time>
      </trkpt>
      <trkpt lat="45.30197" lon="5.88389">
        <ele>1021</ele>
        <time>2011-06-26T18:16:20Z</time>
      </trkpt>
      <trkpt lat="45.30204" lon="5.88394">
        <ele>1021</ele>
        <time>2011-06-26T18:16:24Z</time>
      </trkpt>
      <trkpt lat="45.30211" lon="5.88399">
        <ele>1020</ele>
        <time>2011-06-26T18:16:28Z</time>
      </trkpt>
      <trkpt lat="45.30219" lon="5.88404">
        <ele>1020</ele>
        <time>2011-06-26T18:16:32Z</time>
      </trkpt>
      <trkpt lat="45.30225" lon="5.88408">
        <ele>1019</ele>
        <time>2011-06-26T18:16:36Z</time>
      </trkpt>
      <trkpt lat="45.30229" lon="5.88413">
        <ele>1019</ele>
        <time>2011-06-26T18:16:40Z</time>
      </trkpt>
      <trkpt lat="45.30235" lon="5.88419">
        <ele>1007</ele>
        <time>2011-06-26T18:16:44Z</time>
      </trkpt>
      <trkpt lat="45.3024" lon="5.88427">
        <ele>1007</ele>
        <time>2011-06-26T18:16:48Z</time>
      </trkpt>
      <trkpt lat="45.30245" lon="5.88432">
        <ele>1006</ele>
        <time>2011-06-26T18:16:52Z</time>
      </trkpt>
      <trkpt lat="45.30248" lon="5.88438">
        <ele>1003</ele>
        <time>2011-06-26T18:16:56Z</time>
      </trkpt>
      <trkpt lat="45.30253" lon="5.88446">
        <ele>1005</ele>
        <time>2011-06-26T18:17:00Z</time>
      </trkpt>
      <trkpt lat="45.3026" lon="5.88452">
        <ele>1003</ele>
        <time>2011-06-26T18:17:04Z</time>
      </trkpt>
      <trkpt lat="45.30267" lon="5.88456">
        <ele>1002</ele>
        <time>2011-06-26T18:17:08Z</time>
      </trkpt>
      <trkpt lat="45.30275" lon="5.88456">
        <ele>1002</ele>
        <time>2011-06-26T18:17:12Z</time>
      </trkpt>
      <trkpt lat="45.30284" lon="5.88454">
        <ele>1003</ele>
        <time>2011-06-26T18:17:16Z</time>
      </trkpt>
      <trkpt lat="45.3029" lon="5.88455">
        <ele>1003</ele>
        <time>2011-06-26T18:17:20Z</time>
      </trkpt>
      <trkpt lat="45.30296" lon="5.88459">
        <ele>1002</ele>
        <time>2011-06-26T18:17:24Z</time>
      </trkpt>
      <trkpt lat="45.30302" lon="5.8846">
        <ele>1002</ele>
        <time>2011-06-26T18:17:28Z</time>
      </trkpt>
      <trkpt lat="45.30308" lon="5.88463">
        <ele>1002</ele>
        <time>2011-06-26T18:17:32Z</time>
      </trkpt>
      <trkpt lat="45.30313" lon="5.88463">
        <ele>1002</ele>
        <time>2011-06-26T18:17:36Z</time>
      </trkpt>
      <trkpt lat="45.30319" lon="5.88465">
        <ele>1002</ele>
        <time>2011-06-26T18:17:40Z</time>
      </trkpt>
      <trkpt lat="45.30326" lon="5.88468">
        <ele>1002</ele>
        <time>2011-06-26T18:17:44Z</time>
      </trkpt>
      <trkpt lat="45.30334" lon="5.8847">
        <ele>999</ele>
        <time>2011-06-26T18:17:48Z</time>
      </trkpt>
      <trkpt lat="45.30341" lon="5.88474">
        <ele>999</ele>
        <time>2011-06-26T18:17:52Z</time>
      </trkpt>
      <trkpt lat="45.30346" lon="5.88478">
        <ele>998</ele>
        <time>2011-06-26T18:17:56Z</time>
      </trkpt>
      <trkpt lat="45.30352" lon="5.88479">
        <ele>998</ele>
        <time>2011-06-26T18:18:00Z</time>
      </trkpt>
      <trkpt lat="45.30362" lon="5.88481">
        <ele>997</ele>
        <time>2011-06-26T18:18:04Z</time>
      </trkpt>
      <trkpt lat="45.30371" lon="5.88484">
        <ele>996</ele>
        <time>2011-06-26T18:18:08Z</time>
      </trkpt>
      <trkpt lat="45.30377" lon="5.88486">
        <ele>995</ele>
        <time>2011-06-26T18:18:12Z</time>
      </trkpt>
      <trkpt lat="45.30383" lon="5.8849">
        <ele>994</ele>
        <time>2011-06-26T18:18:16Z</time>
      </trkpt>
      <trkpt lat="45.30389" lon="5.88493">
        <ele>993</ele>
        <time>2011-06-26T18:18:20Z</time>
      </trkpt>
      <trkpt lat="45.30394" lon="5.88497">
        <ele>992</ele>
        <time>2011-06-26T18:18:24Z</time>
      </trkpt>
      <trkpt lat="45.30398" lon="5.88499">
        <ele>992</ele>
        <time>2011-06-26T18:18:28Z</time>
      </trkpt>
      <trkpt lat="45.30403" lon="5.885">
        <ele>982</ele>
        <time>2011-06-26T18:18:32Z</time>
      </trkpt>
      <trkpt lat="45.30409" lon="5.88503">
        <ele>984</ele>
        <time>2011-06-26T18:18:36Z</time>
      </trkpt>
      <trkpt lat="45.30414" lon="5.885">
        <ele>986</ele>
        <time>2011-06-26T18:18:40Z</time>
      </trkpt>
      <trkpt lat="45.30418" lon="5.88498">
        <ele>986</ele>
        <time>2011-06-26T18:18:44Z</time>
      </trkpt>
      <trkpt lat="45.30422" lon="5.88499">
        <ele>985</ele>
        <time>2011-06-26T18:18:48Z</time>
      </trkpt>
      <trkpt lat="45.30426" lon="5.88501">
        <ele>980</ele>
        <time>2011-06-26T18:18:52Z</time>
      </trkpt>
      <trkpt lat="45.30428" lon="5.88504">
        <ele>979</ele>
        <time>2011-06-26T18:18:56Z</time>
      </trkpt>
      <trkpt lat="45.30429" lon="5.88509">
        <ele>977</ele>
        <time>2011-06-26T18:19:00Z</time>
      </trkpt>
      <trkpt lat="45.30431" lon="5.88515">
        <ele>975</ele>
        <time>2011-06-26T18:19:04Z</time>
      </trkpt>
      <trkpt lat="45.30433" lon="5.88518">
        <ele>973</ele>
        <time>2011-06-26T18:19:08Z</time>
      </trkpt>
      <trkpt lat="45.30435" lon="5.88524">
        <ele>971</ele>
        <time>2011-06-26T18:19:12Z</time>
      </trkpt>
      <trkpt lat="45.30437" lon="5.88529">
        <ele>970</ele>
        <time>2011-06-26T18:19:16Z</time>
      </trkpt>
      <trkpt lat="45.30437" lon="5.88535">
        <ele>968</ele>
        <time>2011-06-26T18:19:20Z</time>
      </trkpt>
      <trkpt lat="45.30438" lon="5.8854">
        <ele>967</ele>
        <time>2011-06-26T18:19:24Z</time>
      </trkpt>
      <trkpt lat="45.30439" lon="5.88544">
        <ele>966</ele>
        <time>2011-06-26T18:19:28Z</time>
      </trkpt>
      <trkpt lat="45.3044" lon="5.88553">
        <ele>965</ele>
        <time>2011-06-26T18:19:32Z</time>
      </trkpt>
      <trkpt lat="45.30439" lon="5.88559">
        <ele>964</ele>
        <time>2011-06-26T18:19:36Z</time>
      </trkpt>
      <trkpt lat="45.30436" lon="5.88567">
        <ele>963</ele>
        <time>2011-06-26T18:19:40Z</time>
      </trkpt>
      <trkpt lat="45.30434" lon="5.88574">
        <ele>962</ele>
        <time>2011-06-26T18:19:44Z</time>
      </trkpt>
      <trkpt lat="45.30433" lon="5.8858">
        <ele>961</ele>
        <time>2011-06-26T18:19:48Z</time>
      </trkpt>
      <trkpt lat="45.30434" lon="5.88588">
        <ele>951</ele>
        <time>2011-06-26T18:19:52Z</time>
      </trkpt>
      <trkpt lat="45.30433" lon="5.88596">
        <ele>949</ele>
        <time>2011-06-26T18:19:56Z</time>
      </trkpt>
      <trkpt lat="45.30435" lon="5.88603">
        <ele>948</ele>
        <time>2011-06-26T18:20:00Z</time>
      </trkpt>
      <trkpt lat="45.30435" lon="5.88611">
        <ele>946</ele>
        <time>2011-06-26T18:20:04Z</time>
      </trkpt>
      <trkpt lat="45.30435" lon="5.88619">
        <ele>944</ele>
        <time>2011-06-26T18:20:08Z</time>
      </trkpt>
      <trkpt lat="45.3044" lon="5.88625">
        <ele>943</ele>
        <time>2011-06-26T18:20:12Z</time>
      </trkpt>
      <trkpt lat="45.30445" lon="5.88632">
        <ele>942</ele>
        <time>2011-06-26T18:20:16Z</time>
      </trkpt>
      <trkpt lat="45.30448" lon="5.88639">
        <ele>941</ele>
        <time>2011-06-26T18:20:20Z</time>
      </trkpt>
      <trkpt lat="45.30453" lon="5.88644">
        <ele>940</ele>
        <time>2011-06-26T18:20:24Z</time>
      </trkpt>
      <trkpt lat="45.30456" lon="5.88648">
        <ele>940</ele>
        <time>2011-06-26T18:20:28Z</time>
      </trkpt>
      <trkpt lat="45.30458" lon="5.88654">
        <ele>940</ele>
        <time>2011-06-26T18:20:32Z</time>
      </trkpt>
      <trkpt lat="45.30461" lon="5.88659">
        <ele>940</ele>
        <time>2011-06-26T18:20:36Z</time>
      </trkpt>
      <trkpt lat="45.30464" lon="5.88663">
        <ele>940</ele>
        <time>2011-06-26T18:20:40Z</time>
      </trkpt>
      <trkpt lat="45.30465" lon="5.88668">
        <ele>922</ele>
        <time>2011-06-26T18:20:44Z</time>
      </trkpt>
      <trkpt lat="45.30467" lon="5.88673">
        <ele>922</ele>
        <time>2011-06-26T18:20:48Z</time>
      </trkpt>
      <trkpt lat="45.30472" lon="5.88678">
        <ele>923</ele>
        <time>2011-06-26T18:20:52Z</time>
      </trkpt>
      <trkpt lat="45.30476" lon="5.8868">
        <ele>923</ele>
        <time>2011-06-26T18:20:56Z</time>
      </trkpt>
      <trkpt lat="45.3048" lon="5.88685">
        <ele>923</ele>
        <time>2011-06-26T18:21:00Z</time>
      </trkpt>
      <trkpt lat="45.30478" lon="5.88691">
        <ele>921</ele>
        <time>2011-06-26T18:21:04Z</time>
      </trkpt>
      <trkpt lat="45.30476" lon="5.88697">
        <ele>919</ele>
        <time>2011-06-26T18:21:08Z</time>
      </trkpt>
      <trkpt lat="45.3048" lon="5.88701">
        <ele>919</ele>
        <time>2011-06-26T18:21:12Z</time>
      </trkpt>
      <trkpt lat="45.30485" lon="5.88704">
        <ele>919</ele>
        <time>2011-06-26T18:21:16Z</time>
      </trkpt>
      <trkpt lat="45.30489" lon="5.88704">
        <ele>919</ele>
        <time>2011-06-26T18:21:20Z</time>
      </trkpt>
      <trkpt lat="45.30491" lon="5.88705">
        <ele>919</ele>
        <time>2011-06-26T18:21:24Z</time>
      </trkpt>
      <trkpt lat="45.3049" lon="5.88707">
        <ele>918</ele>
        <time>2011-06-26T18:21:28Z</time>
      </trkpt>
      <trkpt lat="45.30489" lon="5.88709">
        <ele>918</ele>
        <time>2011-06-26T18:21:32Z</time>
      </trkpt>
      <trkpt lat="45.30486" lon="5.88711">
        <ele>917</ele>
        <time>2011-06-26T18:21:36Z</time>
      </trkpt>
      <trkpt lat="45.30481" lon="5.88718">
        <ele>915</ele>
        <time>2011-06-26T18:21:40Z</time>
      </trkpt>
      <trkpt lat="45.30474" lon="5.88725">
        <ele>913</ele>
        <time>2011-06-26T18:21:44Z</time>
      </trkpt>
      <trkpt lat="45.30467" lon="5.8873">
        <ele>912</ele>
        <time>2011-06-26T18:21:48Z</time>
      </trkpt>
      <trkpt lat="45.3046" lon="5.88732">
        <ele>910</ele>
        <time>2011-06-26T18:21:52Z</time>
      </trkpt>
      <trkpt lat="45.30453" lon="5.88733">
        <ele>909</ele>
        <time>2011-06-26T18:21:56Z</time>
      </trkpt>
      <trkpt lat="45.30447" lon="5.88732">
        <ele>907</ele>
        <time>2011-06-26T18:22:00Z</time>
      </trkpt>
      <trkpt lat="45.30445" lon="5.88734">
        <ele>906</ele>
        <time>2011-06-26T18:22:04Z</time>
      </trkpt>
      <trkpt lat="45.30445" lon="5.88736">
        <ele>906</ele>
        <time>2011-06-26T18:22:08Z</time>
      </trkpt>
      <trkpt lat="45.30447" lon="5.88737">
        <ele>906</ele>
        <time>2011-06-26T18:22:12Z</time>
      </trkpt>
      <trkpt lat="45.30449" lon="5.88741">
        <ele>906</ele>
        <time>2011-06-26T18:22:16Z</time>
      </trkpt>
      <trkpt lat="45.30451" lon="5.88744">
        <ele>906</ele>
        <time>2011-06-26T18:22:20Z</time>
      </trkpt>
      <trkpt lat="45.30453" lon="5.88748">
        <ele>906</ele>
        <time>2011-06-26T18:22:24Z</time>
      </trkpt>
      <trkpt lat="45.30458" lon="5.88751">
        <ele>863</ele>
        <time>2011-06-26T18:22:28Z</time>
      </trkpt>
      <trkpt lat="45.30466" lon="5.88755">
        <ele>866</ele>
        <time>2011-06-26T18:22:32Z</time>
      </trkpt>
      <trkpt lat="45.30471" lon="5.8876">
        <ele>867</ele>
        <time>2011-06-26T18:22:36Z</time>
      </trkpt>
      <trkpt lat="45.30475" lon="5.88767">
        <ele>866</ele>
        <time>2011-06-26T18:22:40Z</time>
      </trkpt>
      <trkpt lat="45.3048" lon="5.88774">
        <ele>864</ele>
        <time>2011-06-26T18:22:44Z</time>
      </trkpt>
      <trkpt lat="45.30484" lon="5.88779">
        <ele>862</ele>
        <time>2011-06-26T18:22:48Z</time>
      </trkpt>
      <trkpt lat="45.30488" lon="5.88784">
        <ele>859</ele>
        <time>2011-06-26T18:22:52Z</time>
      </trkpt>
      <trkpt lat="45.30495" lon="5.88784">
        <ele>861</ele>
        <time>2011-06-26T18:22:56Z</time>
      </trkpt>
      <trkpt lat="45.30504" lon="5.88783">
        <ele>892</ele>
        <time>2011-06-26T18:23:00Z</time>
      </trkpt>
      <trkpt lat="45.30515" lon="5.88781">
        <ele>894</ele>
        <time>2011-06-26T18:23:04Z</time>
      </trkpt>
      <trkpt lat="45.30521" lon="5.88778">
        <ele>895</ele>
        <time>2011-06-26T18:23:08Z</time>
      </trkpt>
      <trkpt lat="45.30527" lon="5.88778">
        <ele>895</ele>
        <time>2011-06-26T18:23:12Z</time>
      </trkpt>
      <trkpt lat="45.30533" lon="5.88779">
        <ele>895</ele>
        <time>2011-06-26T18:23:16Z</time>
      </trkpt>
      <trkpt lat="45.30537" lon="5.88783">
        <ele>894</ele>
        <time>2011-06-26T18:23:20Z</time>
      </trkpt>
      <trkpt lat="45.30542" lon="5.88786">
        <ele>894</ele>
        <time>2011-06-26T18:23:24Z</time>
      </trkpt>
      <trkpt lat="45.30547" lon="5.88787">
        <ele>895</ele>
        <time>2011-06-26T18:23:28Z</time>
      </trkpt>
      <trkpt lat="45.3055" lon="5.88792">
        <ele>894</ele>
        <time>2011-06-26T18:23:32Z</time>
      </trkpt>
      <trkpt lat="45.30553" lon="5.88797">
        <ele>894</ele>
        <time>2011-06-26T18:23:36Z</time>
      </trkpt>
      <trkpt lat="45.30555" lon="5.88803">
        <ele>893</ele>
        <time>2011-06-26T18:23:40Z</time>
      </trkpt>
      <trkpt lat="45.30554" lon="5.88809">
        <ele>893</ele>
        <time>2011-06-26T18:23:44Z</time>
      </trkpt>
      <trkpt lat="45.30553" lon="5.88815">
        <ele>892</ele>
        <time>2011-06-26T18:23:48Z</time>
      </trkpt>
      <trkpt lat="45.30554" lon="5.88819">
        <ele>892</ele>
        <time>2011-06-26T18:23:52Z</time>
      </trkpt>
      <trkpt lat="45.30556" lon="5.88821">
        <ele>892</ele>
        <time>2011-06-26T18:23:56Z</time>
      </trkpt>
      <trkpt lat="45.30559" lon="5.88822">
        <ele>893</ele>
        <time>2011-06-26T18:24:00Z</time>
      </trkpt>
      <trkpt lat="45.30564" lon="5.88822">
        <ele>895</ele>
        <time>2011-06-26T18:24:04Z</time>
      </trkpt>
      <trkpt lat="45.30569" lon="5.8882">
        <ele>896</ele>
        <time>2011-06-26T18:24:08Z</time>
      </trkpt>
      <trkpt lat="45.30573" lon="5.88818">
        <ele>897</ele>
        <time>2011-06-26T18:24:12Z</time>
      </trkpt>
      <trkpt lat="45.30577" lon="5.88818">
        <ele>897</ele>
        <time>2011-06-26T18:24:16Z</time>
      </trkpt>
      <trkpt lat="45.30581" lon="5.88818">
        <ele>898</ele>
        <time>2011-06-26T18:24:20Z</time>
      </trkpt>
      <trkpt lat="45.30584" lon="5.88819">
        <ele>907</ele>
        <time>2011-06-26T18:24:24Z</time>
      </trkpt>
      <trkpt lat="45.30588" lon="5.88818">
        <ele>907</ele>
        <time>2011-06-26T18:24:28Z</time>
      </trkpt>
      <trkpt lat="45.30592" lon="5.88816">
        <ele>907</ele>
        <time>2011-06-26T18:24:32Z</time>
      </trkpt>
      <trkpt lat="45.30595" lon="5.88815">
        <ele>908</ele>
        <time>2011-06-26T18:24:36Z</time>
      </trkpt>
      <trkpt lat="45.30597" lon="5.88814">
        <ele>908</ele>
        <time>2011-06-26T18:24:40Z</time>
      </trkpt>
      <trkpt lat="45.30598" lon="5.88812">
        <ele>908</ele>
        <time>2011-06-26T18:24:44Z</time>
      </trkpt>
      <trkpt lat="45.30601" lon="5.8881">
        <ele>909</ele>
        <time>2011-06-26T18:24:48Z</time>
      </trkpt>
      <trkpt lat="45.30603" lon="5.88809">
        <ele>909</ele>
        <time>2011-06-26T18:24:52Z</time>
      </trkpt>
      <trkpt lat="45.30606" lon="5.88808">
        <ele>909</ele>
        <time>2011-06-26T18:24:56Z</time>
      </trkpt>
      <trkpt lat="45.30608" lon="5.88806">
        <ele>910</ele>
        <time>2011-06-26T18:25:00Z</time>
      </trkpt>
      <trkpt lat="45.30609" lon="5.88804">
        <ele>910</ele>
        <time>2011-06-26T18:25:04Z</time>
      </trkpt>
      <trkpt lat="45.30609" lon="5.88801">
        <ele>910</ele>
        <time>2011-06-26T18:25:08Z</time>
      </trkpt>
      <trkpt lat="45.3061" lon="5.888">
        <ele>910</ele>
        <time>2011-06-26T18:25:12Z</time>
      </trkpt>
      <trkpt lat="45.30611" lon="5.88798">
        <ele>910</ele>
        <time>2011-06-26T18:25:16Z</time>
      </trkpt>
      <trkpt lat="45.30612" lon="5.888">
        <ele>910</ele>
        <time>2011-06-26T18:25:20Z</time>
      </trkpt>
      <trkpt lat="45.30613" lon="5.88802">
        <ele>910</ele>
        <time>2011-06-26T18:25:24Z</time>
      </trkpt>
      <trkpt lat="45.30613" lon="5.88801">
        <ele>910</ele>
        <time>2011-06-26T18:25:28Z</time>
      </trkpt>
      <trkpt lat="45.30613" lon="5.88798">
        <ele>911</ele>
        <time>2011-06-26T18:25:32Z</time>
      </trkpt>
      <trkpt lat="45.30613" lon="5.88795">
        <ele>911</ele>
        <time>2011-06-26T18:25:36Z</time>
      </trkpt>
      <trkpt lat="45.30615" lon="5.88795">
        <ele>911</ele>
        <time>2011-06-26T18:25:40Z</time>
      </trkpt>
      <trkpt lat="45.30617" lon="5.88797">
        <ele>911</ele>
        <time>2011-06-26T18:25:44Z</time>
      </trkpt>
      <trkpt lat="45.30618" lon="5.88797">
        <ele>911</ele>
        <time>2011-06-26T18:25:48Z</time>
      </trkpt>
      <trkpt lat="45.3062" lon="5.88794">
        <ele>911</ele>
        <time>2011-06-26T18:25:52Z</time>
      </trkpt>
      <trkpt lat="45.30624" lon="5.88791">
        <ele>912</ele>
        <time>2011-06-26T18:25:56Z</time>
      </trkpt>
      <trkpt lat="45.30629" lon="5.88786">
        <ele>912</ele>
        <time>2011-06-26T18:26:00Z</time>
      </trkpt>
      <trkpt lat="45.30634" lon="5.88783">
        <ele>913</ele>
        <time>2011-06-26T18:26:04Z</time>
      </trkpt>
      <trkpt lat="45.30639" lon="5.8878">
        <ele>914</ele>
        <time>2011-06-26T18:26:08Z</time>
      </trkpt>
      <trkpt lat="45.30644" lon="5.88777">
        <ele>915</ele>
        <time>2011-06-26T18:26:12Z</time>
      </trkpt>
      <trkpt lat="45.30647" lon="5.88772">
        <ele>916</ele>
        <time>2011-06-26T18:26:16Z</time>
      </trkpt>
      <trkpt lat="45.3065" lon="5.88768">
        <ele>917</ele>
        <time>2011-06-26T18:26:20Z</time>
      </trkpt>
      <trkpt lat="45.30653" lon="5.88764">
        <ele>919</ele>
        <time>2011-06-26T18:26:24Z</time>
      </trkpt>
      <trkpt lat="45.30657" lon="5.8876">
        <ele>920</ele>
        <time>2011-06-26T18:26:28Z</time>
      </trkpt>
      <trkpt lat="45.3066" lon="5.88756">
        <ele>922</ele>
        <time>2011-06-26T18:26:32Z</time>
      </trkpt>
      <trkpt lat="45.30662" lon="5.88751">
        <ele>924</ele>
        <time>2011-06-26T18:26:36Z</time>
      </trkpt>
      <trkpt lat="45.30665" lon="5.88747">
        <ele>927</ele>
        <time>2011-06-26T18:26:40Z</time>
      </trkpt>
      <trkpt lat="45.30668" lon="5.88744">
        <ele>929</ele>
        <time>2011-06-26T18:26:44Z</time>
      </trkpt>
      <trkpt lat="45.30671" lon="5.8874">
        <ele>931</ele>
        <time>2011-06-26T18:26:48Z</time>
      </trkpt>
      <trkpt lat="45.30673" lon="5.88736">
        <ele>932</ele>
        <time>2011-06-26T18:26:52Z</time>
      </trkpt>
      <trkpt lat="45.30674" lon="5.8873">
        <ele>933</ele>
        <time>2011-06-26T18:26:56Z</time>
      </trkpt>
      <trkpt lat="45.30675" lon="5.88724">
        <ele>934</ele>
        <time>2011-06-26T18:27:00Z</time>
      </trkpt>
      <trkpt lat="45.30676" lon="5.88719">
        <ele>934</ele>
        <time>2011-06-26T18:27:04Z</time>
      </trkpt>
      <trkpt lat="45.30677" lon="5.88713">
        <ele>935</ele>
        <time>2011-06-26T18:27:08Z</time>
      </trkpt>
      <trkpt lat="45.30678" lon="5.88708">
        <ele>935</ele>
        <time>2011-06-26T18:27:12Z</time>
      </trkpt>
      <trkpt lat="45.30678" lon="5.88702">
        <ele>936</ele>
        <time>2011-06-26T18:27:16Z</time>
      </trkpt>
      <trkpt lat="45.30678" lon="5.88696">
        <ele>936</ele>
        <time>2011-06-26T18:27:20Z</time>
      </trkpt>
      <trkpt lat="45.30678" lon="5.88691">
        <ele>936</ele>
        <time>2011-06-26T18:27:24Z</time>
      </trkpt>
      <trkpt lat="45.30679" lon="5.88685">
        <ele>936</ele>
        <time>2011-06-26T18:27:28Z</time>
      </trkpt>
      <trkpt lat="45.30679" lon="5.8868">
        <ele>937</ele>
        <time>2011-06-26T18:27:32Z</time>
      </trkpt>
      <trkpt lat="45.30679" lon="5.88674">
        <ele>937</ele>
        <time>2011-06-26T18:27:36Z</time>
      </trkpt>
      <trkpt lat="45.3068" lon="5.88668">
        <ele>937</ele>
        <time>2011-06-26T18:27:40Z</time>
      </trkpt>
      <trkpt lat="45.30681" lon="5.88662">
        <ele>940</ele>
        <time>2011-06-26T18:27:44Z</time>
      </trkpt>
      <trkpt lat="45.30682" lon="5.88656">
        <ele>941</ele>
        <time>2011-06-26T18:27:48Z</time>
      </trkpt>
      <trkpt lat="45.30684" lon="5.8865">
        <ele>941</ele>
        <time>2011-06-26T18:27:52Z</time>
      </trkpt>
      <trkpt lat="45.30685" lon="5.88644">
        <ele>942</ele>
        <time>2011-06-26T18:27:56Z</time>
      </trkpt>
      <trkpt lat="45.30688" lon="5.88639">
        <ele>943</ele>
        <time>2011-06-26T18:28:00Z</time>
      </trkpt>
      <trkpt lat="45.3069" lon="5.88634">
        <ele>943</ele>
        <time>2011-06-26T18:28:04Z</time>
      </trkpt>
      <trkpt lat="45.30692" lon="5.8863">
        <ele>943</ele>
        <time>2011-06-26T18:28:08Z</time>
      </trkpt>
      <trkpt lat="45.30694" lon="5.88627">
        <ele>944</ele>
        <time>2011-06-26T18:28:12Z</time>
      </trkpt>
      <trkpt lat="45.30697" lon="5.88623">
        <ele>944</ele>
        <time>2011-06-26T18:28:16Z</time>
      </trkpt>
      <trkpt lat="45.30698" lon="5.8862">
        <ele>944</ele>
        <time>2011-06-26T18:28:20Z</time>
      </trkpt>
      <trkpt lat="45.307" lon="5.88619">
        <ele>944</ele>
        <time>2011-06-26T18:28:24Z</time>
      </trkpt>
      <trkpt lat="45.30699" lon="5.8862">
        <ele>944</ele>
        <time>2011-06-26T18:28:28Z</time>
      </trkpt>
      <trkpt lat="45.30699" lon="5.88622">
        <ele>944</ele>
        <time>2011-06-26T18:28:32Z</time>
      </trkpt>
      <trkpt lat="45.30702" lon="5.88624">
        <ele>944</ele>
        <time>2011-06-26T18:28:36Z</time>
      </trkpt>
      <trkpt lat="45.30705" lon="5.88628">
        <ele>944</ele>
        <time>2011-06-26T18:28:40Z</time>
      </trkpt>
      <trkpt lat="45.30706" lon="5.88633">
        <ele>944</ele>
        <time>2011-06-26T18:28:44Z</time>
      </trkpt>
      <trkpt lat="45.3071" lon="5.88633">
        <ele>945</ele>
        <time>2011-06-26T18:28:48Z</time>
      </trkpt>
      <trkpt lat="45.30713" lon="5.88635">
        <ele>945</ele>
        <time>2011-06-26T18:28:52Z</time>
      </trkpt>
      <trkpt lat="45.30716" lon="5.88638">
        <ele>945</ele>
        <time>2011-06-26T18:28:56Z</time>
      </trkpt>
      <trkpt lat="45.30719" lon="5.8864">
        <ele>945</ele>
        <time>2011-06-26T18:29:00Z</time>
      </trkpt>
      <trkpt lat="45.30725" lon="5.88644">
        <ele>946</ele>
        <time>2011-06-26T18:29:04Z</time>
      </trkpt>
      <trkpt lat="45.30732" lon="5.88644">
        <ele>946</ele>
        <time>2011-06-26T18:29:08Z</time>
      </trkpt>
      <trkpt lat="45.30739" lon="5.88642">
        <ele>946</ele>
        <time>2011-06-26T18:29:12Z</time>
      </trkpt>
      <trkpt lat="45.30745" lon="5.88637">
        <ele>947</ele>
        <time>2011-06-26T18:29:16Z</time>
      </trkpt>
      <trkpt lat="45.3075" lon="5.88634">
        <ele>947</ele>
        <time>2011-06-26T18:29:20Z</time>
      </trkpt>
      <trkpt lat="45.30754" lon="5.88633">
        <ele>953</ele>
        <time>2011-06-26T18:29:24Z</time>
      </trkpt>
      <trkpt lat="45.30755" lon="5.88634">
        <ele>953</ele>
        <time>2011-06-26T18:29:28Z</time>
      </trkpt>
      <trkpt lat="45.30761" lon="5.88634">
        <ele>953</ele>
        <time>2011-06-26T18:29:32Z</time>
      </trkpt>
      <trkpt lat="45.30767" lon="5.88634">
        <ele>953</ele>
        <time>2011-06-26T18:29:36Z</time>
      </trkpt>
      <trkpt lat="45.30773" lon="5.88636">
        <ele>954</ele>
        <time>2011-06-26T18:29:40Z</time>
      </trkpt>
      <trkpt lat="45.30777" lon="5.88638">
        <ele>954</ele>
        <time>2011-06-26T18:29:44Z</time>
      </trkpt>
      <trkpt lat="45.30778" lon="5.8864">
        <ele>954</ele>
        <time>2011-06-26T18:29:48Z</time>
      </trkpt>
      <trkpt lat="45.30781" lon="5.88643">
        <ele>954</ele>
        <time>2011-06-26T18:29:52Z</time>
      </trkpt>
      <trkpt lat="45.30784" lon="5.88646">
        <ele>954</ele>
        <time>2011-06-26T18:29:56Z</time>
      </trkpt>
      <trkpt lat="45.30789" lon="5.88649">
        <ele>954</ele>
        <time>2011-06-26T18:30:00Z</time>
      </trkpt>
      <trkpt lat="45.30794" lon="5.88653">
        <ele>954</ele>
        <time>2011-06-26T18:30:04Z</time>
      </trkpt>
      <trkpt lat="45.30796" lon="5.88659">
        <ele>954</ele>
        <time>2011-06-26T18:30:08Z</time>
      </trkpt>
      <trkpt lat="45.30803" lon="5.88664">
        <ele>955</ele>
        <time>2011-06-26T18:30:12Z</time>
      </trkpt>
      <trkpt lat="45.3081" lon="5.8867">
        <ele>951</ele>
        <time>2011-06-26T18:30:16Z</time>
      </trkpt>
      <trkpt lat="45.30814" lon="5.8868">
        <ele>951</ele>
        <time>2011-06-26T18:30:20Z</time>
      </trkpt>
      <trkpt lat="45.30816" lon="5.8869">
        <ele>950</ele>
        <time>2011-06-26T18:30:24Z</time>
      </trkpt>
      <trkpt lat="45.30817" lon="5.88702">
        <ele>949</ele>
        <time>2011-06-26T18:30:28Z</time>
      </trkpt>
      <trkpt lat="45.30819" lon="5.88712">
        <ele>948</ele>
        <time>2011-06-26T18:30:32Z</time>
      </trkpt>
      <trkpt lat="45.30824" lon="5.88722">
        <ele>948</ele>
        <time>2011-06-26T18:30:36Z</time>
      </trkpt>
      <trkpt lat="45.30833" lon="5.8873">
        <ele>948</ele>
        <time>2011-06-26T18:30:40Z</time>
      </trkpt>
      <trkpt lat="45.3084" lon="5.88732">
        <ele>953</ele>
        <time>2011-06-26T18:30:44Z</time>
      </trkpt>
      <trkpt lat="45.30847" lon="5.88732">
        <ele>954</ele>
        <time>2011-06-26T18:30:48Z</time>
      </trkpt>
      <trkpt lat="45.30853" lon="5.88731">
        <ele>955</ele>
        <time>2011-06-26T18:30:52Z</time>
      </trkpt>
      <trkpt lat="45.30858" lon="5.88731">
        <ele>955</ele>
        <time>2011-06-26T18:30:56Z</time>
      </trkpt>
      <trkpt lat="45.3086" lon="5.88733">
        <ele>955</ele>
        <time>2011-06-26T18:31:00Z</time>
      </trkpt>
      <trkpt lat="45.30864" lon="5.88736">
        <ele>956</ele>
        <time>2011-06-26T18:31:04Z</time>
      </trkpt>
      <trkpt lat="45.30868" lon="5.8874">
        <ele>956</ele>
        <time>2011-06-26T18:31:08Z</time>
      </trkpt>
      <trkpt lat="45.30871" lon="5.88744">
        <ele>956</ele>
        <time>2011-06-26T18:31:12Z</time>
      </trkpt>
      <trkpt lat="45.30872" lon="5.88748">
        <ele>956</ele>
        <time>2011-06-26T18:31:16Z</time>
      </trkpt>
      <trkpt lat="45.30874" lon="5.88752">
        <ele>950</ele>
        <time>2011-06-26T18:31:20Z</time>
      </trkpt>
      <trkpt lat="45.30876" lon="5.88756">
        <ele>950</ele>
        <time>2011-06-26T18:31:24Z</time>
      </trkpt>
      <trkpt lat="45.30879" lon="5.8876">
        <ele>951</ele>
        <time>2011-06-26T18:31:28Z</time>
      </trkpt>
      <trkpt lat="45.30884" lon="5.88765">
        <ele>951</ele>
        <time>2011-06-26T18:31:32Z</time>
      </trkpt>
      <trkpt lat="45.3089" lon="5.88769">
        <ele>952</ele>
        <time>2011-06-26T18:31:36Z</time>
      </trkpt>
      <trkpt lat="45.30897" lon="5.88772">
        <ele>952</ele>
        <time>2011-06-26T18:31:40Z</time>
      </trkpt>
      <trkpt lat="45.30903" lon="5.88775">
        <ele>953</ele>
        <time>2011-06-26T18:31:44Z</time>
      </trkpt>
      <trkpt lat="45.30908" lon="5.88776">
        <ele>953</ele>
        <time>2011-06-26T18:31:48Z</time>
      </trkpt>
      <trkpt lat="45.30914" lon="5.88776">
        <ele>954</ele>
        <time>2011-06-26T18:31:52Z</time>
      </trkpt>
      <trkpt lat="45.3092" lon="5.88776">
        <ele>962</ele>
        <time>2011-06-26T18:31:56Z</time>
      </trkpt>
      <trkpt lat="45.30925" lon="5.88775">
        <ele>963</ele>
        <time>2011-06-26T18:32:00Z</time>
      </trkpt>
      <trkpt lat="45.30931" lon="5.88774">
        <ele>963</ele>
        <time>2011-06-26T18:32:04Z</time>
      </trkpt>
      <trkpt lat="45.30937" lon="5.88772">
        <ele>963</ele>
        <time>2011-06-26T18:32:08Z</time>
      </trkpt>
      <trkpt lat="45.30941" lon="5.88771">
        <ele>963</ele>
        <time>2011-06-26T18:32:12Z</time>
      </trkpt>
      <trkpt lat="45.30945" lon="5.88769">
        <ele>963</ele>
        <time>2011-06-26T18:32:16Z</time>
      </trkpt>
      <trkpt lat="45.3095" lon="5.88767">
        <ele>964</ele>
        <time>2011-06-26T18:32:20Z</time>
      </trkpt>
      <trkpt lat="45.30956" lon="5.88764">
        <ele>964</ele>
        <time>2011-06-26T18:32:24Z</time>
      </trkpt>
      <trkpt lat="45.30961" lon="5.88762">
        <ele>964</ele>
        <time>2011-06-26T18:32:28Z</time>
      </trkpt>
      <trkpt lat="45.30966" lon="5.88762">
        <ele>965</ele>
        <time>2011-06-26T18:32:32Z</time>
      </trkpt>
      <trkpt lat="45.3097" lon="5.88763">
        <ele>965</ele>
        <time>2011-06-26T18:32:36Z</time>
      </trkpt>
      <trkpt lat="45.30974" lon="5.88767">
        <ele>965</ele>
        <time>2011-06-26T18:32:40Z</time>
      </trkpt>
      <trkpt lat="45.30976" lon="5.88773">
        <ele>965</ele>
        <time>2011-06-26T18:32:44Z</time>
      </trkpt>
      <trkpt lat="45.3098" lon="5.88779">
        <ele>965</ele>
        <time>2011-06-26T18:32:48Z</time>
      </trkpt>
      <trkpt lat="45.30983" lon="5.88784">
        <ele>965</ele>
        <time>2011-06-26T18:32:52Z</time>
      </trkpt>
      <trkpt lat="45.30988" lon="5.88789">
        <ele>965</ele>
        <time>2011-06-26T18:32:56Z</time>
      </trkpt>
      <trkpt lat="45.30994" lon="5.88796">
        <ele>965</ele>
        <time>2011-06-26T18:33:00Z</time>
      </trkpt>
      <trkpt lat="45.31" lon="5.88801">
        <ele>967</ele>
        <time>2011-06-26T18:33:04Z</time>
      </trkpt>
      <trkpt lat="45.31006" lon="5.88807">
        <ele>967</ele>
        <time>2011-06-26T18:33:08Z</time>
      </trkpt>
      <trkpt lat="45.31015" lon="5.88807">
        <ele>967</ele>
        <time>2011-06-26T18:33:12Z</time>
      </trkpt>
      <trkpt lat="45.31025" lon="5.88805">
        <ele>966</ele>
        <time>2011-06-26T18:33:16Z</time>
      </trkpt>
      <trkpt lat="45.31034" lon="5.888">
        <ele>966</ele>
        <time>2011-06-26T18:33:20Z</time>
      </trkpt>
      <trkpt lat="45.31041" lon="5.8879">
        <ele>966</ele>
        <time>2011-06-26T18:33:24Z</time>
      </trkpt>
      <trkpt lat="45.3104" lon="5.88779">
        <ele>966</ele>
        <time>2011-06-26T18:33:28Z</time>
      </trkpt>
      <trkpt lat="45.31034" lon="5.88776">
        <ele>966</ele>
        <time>2011-06-26T18:33:32Z</time>
      </trkpt>
      <trkpt lat="45.31027" lon="5.88771">
        <ele>966</ele>
        <time>2011-06-26T18:33:36Z</time>
      </trkpt>
      <trkpt lat="45.31022" lon="5.88763">
        <ele>966</ele>
        <time>2011-06-26T18:33:40Z</time>
      </trkpt>
      <trkpt lat="45.31017" lon="5.88754">
        <ele>967</ele>
        <time>2011-06-26T18:33:44Z</time>
      </trkpt>
      <trkpt lat="45.31017" lon="5.88752">
        <ele>967</ele>
        <time>2011-06-26T18:33:48Z</time>
      </trkpt>
      <trkpt lat="45.31018" lon="5.88753">
        <ele>967</ele>
        <time>2011-06-26T18:33:54Z</time>
      </trkpt>
      <trkpt lat="45.31019" lon="5.88752">
        <ele>967</ele>
        <time>2011-06-26T18:33:56Z</time>
      </trkpt>
      <trkpt lat="45.3102" lon="5.88753">
        <ele>967</ele>
        <time>2011-06-26T18:34:00Z</time>
      </trkpt>
      <trkpt lat="45.3102" lon="5.88754">
        <ele>967</ele>
        <time>2011-06-26T18:34:07Z</time>
      </trkpt>
      <trkpt lat="45.3102" lon="5.88754">
        <ele>967</ele>
        <time>2011-06-26T18:34:08Z</time>
      </trkpt>
      <trkpt lat="45.3102" lon="5.88756">
        <ele>967</ele>
        <time>2011-06-26T18:34:31Z</time>
      </trkpt>
      <trkpt lat="45.3102" lon="5.88756">
        <ele>967</ele>
        <time>2011-06-26T18:34:32Z</time>
      </trkpt>
      <trkpt lat="45.31019" lon="5.88753">
        <ele>967</ele>
        <time>2011-06-26T18:34:36Z</time>
      </trkpt>
      <trkpt lat="45.31021" lon="5.88752">
        <ele>967</ele>
        <time>2011-06-26T18:34:40Z</time>
      </trkpt>
      <trkpt lat="45.31022" lon="5.88748">
        <ele>968</ele>
        <time>2011-06-26T18:34:44Z</time>
      </trkpt>
      <trkpt lat="45.31022" lon="5.88746">
        <ele>968</ele>
        <time>2011-06-26T18:34:48Z</time>
      </trkpt>
      <trkpt lat="45.31023" lon="5.88746">
        <ele>968</ele>
        <time>2011-06-26T18:34:52Z</time>
      </trkpt>
      <trkpt lat="45.31023" lon="5.88742">
        <ele>968</ele>
        <time>2011-06-26T18:35:32Z</time>
      </trkpt>
      <trkpt lat="45.3102" lon="5.88741">
        <ele>968</ele>
        <time>2011-06-26T18:35:45Z</time>
      </trkpt>
      <trkpt lat="45.3102" lon="5.88741">
        <ele>968</ele>
        <time>2011-06-26T18:35:48Z</time>
      </trkpt>
      <trkpt lat="45.31018" lon="5.8874">
        <ele>968</ele>
        <time>2011-06-26T18:35:52Z</time>
      </trkpt>
      <trkpt lat="45.31018" lon="5.88739">
        <ele>968</ele>
        <time>2011-06-26T18:35:59Z</time>
      </trkpt>
      <trkpt lat="45.31018" lon="5.88738">
        <ele>968</ele>
        <time>2011-06-26T18:36:00Z</time>
      </trkpt>
      <trkpt lat="45.31018" lon="5.88739">
        <ele>968</ele>
        <time>2011-06-26T18:36:04Z</time>
      </trkpt>
      <trkpt lat="45.31019" lon="5.8874">
        <ele>968</ele>
        <time>2011-06-26T18:36:08Z</time>
      </trkpt>
      <trkpt lat="45.3102" lon="5.88738">
        <ele>968</ele>
        <time>2011-06-26T18:36:23Z</time>
      </trkpt>
      <trkpt lat="45.3102" lon="5.88738">
        <ele>968</ele>
        <time>2011-06-26T18:36:24Z</time>
      </trkpt>
      <trkpt lat="45.3102" lon="5.88738">
        <ele>968</ele>
        <time>2011-06-26T18:36:28Z</time>
      </trkpt>
      <trkpt lat="45.31018" lon="5.88739">
        <ele>968</ele>
        <time>2011-06-26T18:36:32Z</time>
      </trkpt>
      <trkpt lat="45.31018" lon="5.8874">
        <ele>968</ele>
        <time>2011-06-26T18:36:37Z</time>
      </trkpt>
      <trkpt lat="45.31017" lon="5.8874">
        <ele>968</ele>
        <time>2011-06-26T18:36:40Z</time>
      </trkpt>
      <trkpt lat="45.31018" lon="5.88737">
        <ele>968</ele>
        <time>2011-06-26T18:37:16Z</time>
      </trkpt>
      <trkpt lat="45.31018" lon="5.88737">
        <ele>968</ele>
        <time>2011-06-26T18:37:26Z</time>
      </trkpt>
      <trkpt lat="45.31019" lon="5.88737">
        <ele>968</ele>
        <time>2011-06-26T18:37:28Z</time>
      </trkpt>
      <trkpt lat="45.31019" lon="5.88737">
        <ele>968</ele>
        <time>2011-06-26T18:37:32Z</time>
      </trkpt>
    </trkseg>
  </trk>
</gpx>